<?xml version="1.0" encoding="UTF-8"?>
<gpx version="1.1" creator="2bulu-scraper" xmlns="http://www.topografix.com/GPX/1/1">
  <metadata><name>榕山之巅.古宋城六门连穿</name><desc>source: 2bulu.com trackId=81092480; exported 2026-09-01T14:55:16.189Z</desc>
    <bounds minlat="28.7886759" minlon="105.927624" maxlat="28.82454" maxlon="105.9655179"/>
    <link href="https://www.2bulu.com/track/t-kCw5qjeqyH%252Fp%252FR2KBg5Tzw%253D%253D.htm"><text>2bulu 源页面</text></link>
  </metadata>
  <wpt lat="28.8232838" lon="105.9289905"><ele>204</ele><name>洞沟头
        </name></wpt>
  <wpt lat="28.8206985" lon="105.9343652"><ele>278</ele><name>油菜花
        </name></wpt>
  <wpt lat="28.8234293" lon="105.9399931"><ele>293</ele><name>远眺榕山
        </name></wpt>
  <wpt lat="28.8245103" lon="105.9486627"><ele>401</ele><name>“甘蔗地”
        </name></wpt>
  <wpt lat="28.8238849" lon="105.9492623"><ele>424</ele><name>山脚菜花
        </name></wpt>
  <wpt lat="28.8207969" lon="105.9522363"><ele>467</ele><name>上山石径
        </name></wpt>
  <wpt lat="28.8197168" lon="105.9528094"><ele>525</ele><name>八仙洞
        </name></wpt>
  <wpt lat="28.8183516" lon="105.95351"><ele>590</ele><name>远眺笔架山
        </name></wpt>
  <wpt lat="28.8149458" lon="105.957944"><ele>728</ele><name>永昌门
        </name></wpt>
  <wpt lat="28.820555" lon="105.9566718"><ele>779</ele><name>狗钻洞
        </name></wpt>
  <wpt lat="28.8209446" lon="105.9565092"><ele>774</ele><name>太平门
        </name></wpt>
  <wpt lat="28.8216941" lon="105.9571406"><ele>825</ele><name>山巅木屋
        </name></wpt>
  <wpt lat="28.8223354" lon="105.9584806"><ele>817</ele><name>天鹅池
        </name></wpt>
  <wpt lat="28.8227873" lon="105.9591978"><ele>824</ele><name>芙蓉池
        </name></wpt>
  <wpt lat="28.8237251" lon="105.9604921"><ele>867</ele><name>榕山之巅望火塔
        </name></wpt>
  <wpt lat="28.8217713" lon="105.9623849"><ele>847</ele><name>长乐门
        </name></wpt>
  <wpt lat="28.8212351" lon="105.9630065"><ele>804</ele><name>滴水观音
        </name></wpt>
  <wpt lat="28.8203418" lon="105.9638609"><ele>744</ele><name>吉安门
        </name></wpt>
  <wpt lat="28.8176722" lon="105.9648918"><ele>653</ele><name>竹林幽径
        </name></wpt>
  <wpt lat="28.8163506" lon="105.9624972"><ele>742</ele><name>得胜门
        </name></wpt>
  <wpt lat="28.8164253" lon="105.9621268"><ele>803</ele><name>补水点
        </name></wpt>
  <wpt lat="28.8158597" lon="105.9603502"><ele>863</ele><name>榕山林场
        </name></wpt>
  <wpt lat="28.8155799" lon="105.9590613"><ele>842</ele><name>大定门
        </name></wpt>
  <wpt lat="28.8107319" lon="105.9590057"><ele>793</ele><name>山脊小路
        </name></wpt>
  <wpt lat="28.8026703" lon="105.9588864"><ele>782</ele><name>山脊小路
        </name></wpt>
  <wpt lat="28.8006277" lon="105.9584118"><ele>794</ele><name>棋盘石
        </name></wpt>
  <wpt lat="28.791911" lon="105.9583587"><ele>706</ele><name>下山小道
        </name></wpt>
  <wpt lat="28.7915864" lon="105.9558699"><ele>674</ele><name>倒角沟
        </name></wpt>
  <wpt lat="28.7907738" lon="105.9543445"><ele>669</ele><name>田园风光
        </name></wpt>
  <wpt lat="28.7931091" lon="105.947737"><ele>572</ele><name>回望榕山
        </name></wpt>
  <wpt lat="28.7960391" lon="105.9438327"><ele>466</ele><name>田园小道
        </name></wpt>
  <wpt lat="28.822155" lon="105.9283438"><ele>196</ele><name>潺潺溪流
        </name></wpt>
  <trk><name>榕山之巅.古宋城六门连穿</name>
      <trkseg>
        <trkpt lat="28.8239857" lon="105.927714"><ele>203.66</ele><time>2026-03-09T20:38:36.000Z</time></trkpt>
        <trkpt lat="28.8239312" lon="105.9278038"><ele>203.66</ele><time>2026-03-09T20:38:44.000Z</time></trkpt>
        <trkpt lat="28.8238913" lon="105.927905"><ele>203.75</ele><time>2026-03-09T20:38:54.000Z</time></trkpt>
        <trkpt lat="28.8238568" lon="105.9280037"><ele>203.73</ele><time>2026-03-09T20:39:02.000Z</time></trkpt>
        <trkpt lat="28.8238302" lon="105.9281325"><ele>203.21</ele><time>2026-03-09T20:39:10.000Z</time></trkpt>
        <trkpt lat="28.8237898" lon="105.9282384"><ele>203.37</ele><time>2026-03-09T20:39:16.000Z</time></trkpt>
        <trkpt lat="28.8237416" lon="105.928349"><ele>203.99</ele><time>2026-03-09T20:39:24.000Z</time></trkpt>
        <trkpt lat="28.8237228" lon="105.9284548"><ele>205.07</ele><time>2026-03-09T20:39:30.000Z</time></trkpt>
        <trkpt lat="28.823741" lon="105.9285717"><ele>205.53</ele><time>2026-03-09T20:39:38.000Z</time></trkpt>
        <trkpt lat="28.8237742" lon="105.9286931"><ele>205.33</ele><time>2026-03-09T20:39:46.000Z</time></trkpt>
        <trkpt lat="28.8237861" lon="105.9288245"><ele>205.14</ele><time>2026-03-09T20:39:54.000Z</time></trkpt>
        <trkpt lat="28.8237558" lon="105.9289461"><ele>204.75</ele><time>2026-03-09T20:40:02.000Z</time></trkpt>
        <trkpt lat="28.8236887" lon="105.9290408"><ele>204.37</ele><time>2026-03-09T20:40:10.000Z</time></trkpt>
        <trkpt lat="28.823591" lon="105.929085"><ele>203.98</ele><time>2026-03-09T20:40:18.000Z</time></trkpt>
        <trkpt lat="28.8234864" lon="105.9290692"><ele>203.93</ele><time>2026-03-09T20:40:26.000Z</time></trkpt>
        <trkpt lat="28.8233875" lon="105.9290323"><ele>203.87</ele><time>2026-03-09T20:40:34.000Z</time></trkpt>
        <trkpt lat="28.8232838" lon="105.9289905"><ele>204.32</ele><time>2026-03-09T20:40:44.000Z</time></trkpt>
        <trkpt lat="28.8231869" lon="105.9289859"><ele>204.67</ele><time>2026-03-09T20:40:52.000Z</time></trkpt>
        <trkpt lat="28.8230948" lon="105.9289951"><ele>205.12</ele><time>2026-03-09T20:41:00.000Z</time></trkpt>
        <trkpt lat="28.8230408" lon="105.929076"><ele>205.48</ele><time>2026-03-09T20:41:10.000Z</time></trkpt>
        <trkpt lat="28.8229597" lon="105.9290588"><ele>206.06</ele><time>2026-03-09T20:41:22.000Z</time></trkpt>
        <trkpt lat="28.8228723" lon="105.9290209"><ele>208.03</ele><time>2026-03-09T20:41:30.000Z</time></trkpt>
        <trkpt lat="28.8227737" lon="105.9290034"><ele>209.41</ele><time>2026-03-09T20:41:38.000Z</time></trkpt>
        <trkpt lat="28.8226628" lon="105.9289957"><ele>210.12</ele><time>2026-03-09T20:41:46.000Z</time></trkpt>
        <trkpt lat="28.8225609" lon="105.9289982"><ele>210.47</ele><time>2026-03-09T20:41:54.000Z</time></trkpt>
        <trkpt lat="28.8224726" lon="105.9290473"><ele>211.58</ele><time>2026-03-09T20:42:02.000Z</time></trkpt>
        <trkpt lat="28.8223848" lon="105.9291159"><ele>212.39</ele><time>2026-03-09T20:42:12.000Z</time></trkpt>
        <trkpt lat="28.8223073" lon="105.929185"><ele>213.8</ele><time>2026-03-09T20:42:22.000Z</time></trkpt>
        <trkpt lat="28.8222347" lon="105.9292517"><ele>215.9</ele><time>2026-03-09T20:42:32.000Z</time></trkpt>
        <trkpt lat="28.8221545" lon="105.9293158"><ele>218.92</ele><time>2026-03-09T20:42:42.000Z</time></trkpt>
        <trkpt lat="28.8220677" lon="105.9293821"><ele>222.28</ele><time>2026-03-09T20:42:54.000Z</time></trkpt>
        <trkpt lat="28.8219924" lon="105.9294588"><ele>226.87</ele><time>2026-03-09T20:43:06.000Z</time></trkpt>
        <trkpt lat="28.8219287" lon="105.929536"><ele>231.81</ele><time>2026-03-09T20:43:18.000Z</time></trkpt>
        <trkpt lat="28.8218947" lon="105.9296301"><ele>235.39</ele><time>2026-03-09T20:43:32.000Z</time></trkpt>
        <trkpt lat="28.8218472" lon="105.9297171"><ele>239.47</ele><time>2026-03-09T20:43:44.000Z</time></trkpt>
        <trkpt lat="28.821795" lon="105.929812"><ele>243.88</ele><time>2026-03-09T20:44:02.000Z</time></trkpt>
        <trkpt lat="28.821741" lon="105.9299067"><ele>248.98</ele><time>2026-03-09T20:44:18.000Z</time></trkpt>
        <trkpt lat="28.8216809" lon="105.9299916"><ele>254.13</ele><time>2026-03-09T20:44:34.000Z</time></trkpt>
        <trkpt lat="28.821682" lon="105.9300864"><ele>258.53</ele><time>2026-03-09T20:44:50.000Z</time></trkpt>
        <trkpt lat="28.821685" lon="105.9302043"><ele>261.16</ele><time>2026-03-09T20:45:04.000Z</time></trkpt>
        <trkpt lat="28.821692" lon="105.9303238"><ele>261.67</ele><time>2026-03-09T20:45:14.000Z</time></trkpt>
        <trkpt lat="28.8217308" lon="105.9304323"><ele>261.66</ele><time>2026-03-09T20:45:24.000Z</time></trkpt>
        <trkpt lat="28.8217595" lon="105.9305386"><ele>260.74</ele><time>2026-03-09T20:45:34.000Z</time></trkpt>
        <trkpt lat="28.8217494" lon="105.9306482"><ele>259.5</ele><time>2026-03-09T20:45:44.000Z</time></trkpt>
        <trkpt lat="28.8217072" lon="105.9307595"><ele>261.53</ele><time>2026-03-09T20:45:52.000Z</time></trkpt>
        <trkpt lat="28.8217153" lon="105.9308696"><ele>264.39</ele><time>2026-03-09T20:46:04.000Z</time></trkpt>
        <trkpt lat="28.8217585" lon="105.9309678"><ele>267.79</ele><time>2026-03-09T20:46:18.000Z</time></trkpt>
        <trkpt lat="28.8217734" lon="105.9310725"><ele>271.96</ele><time>2026-03-09T20:46:30.000Z</time></trkpt>
        <trkpt lat="28.8217902" lon="105.9311866"><ele>275.37</ele><time>2026-03-09T20:46:42.000Z</time></trkpt>
        <trkpt lat="28.8217511" lon="105.9313076"><ele>277.43</ele><time>2026-03-09T20:46:52.000Z</time></trkpt>
        <trkpt lat="28.8217302" lon="105.9314253"><ele>278.43</ele><time>2026-03-09T20:47:00.000Z</time></trkpt>
        <trkpt lat="28.8217105" lon="105.9315409"><ele>279.04</ele><time>2026-03-09T20:47:08.000Z</time></trkpt>
        <trkpt lat="28.8216789" lon="105.9316501"><ele>280.27</ele><time>2026-03-09T20:47:16.000Z</time></trkpt>
        <trkpt lat="28.8216425" lon="105.931759"><ele>280.98</ele><time>2026-03-09T20:47:24.000Z</time></trkpt>
        <trkpt lat="28.8215851" lon="105.9318549"><ele>281.71</ele><time>2026-03-09T20:47:32.000Z</time></trkpt>
        <trkpt lat="28.8215149" lon="105.9319347"><ele>281.81</ele><time>2026-03-09T20:47:40.000Z</time></trkpt>
        <trkpt lat="28.8214434" lon="105.9320077"><ele>281.87</ele><time>2026-03-09T20:47:48.000Z</time></trkpt>
        <trkpt lat="28.8213747" lon="105.9320882"><ele>282.29</ele><time>2026-03-09T20:47:56.000Z</time></trkpt>
        <trkpt lat="28.8213304" lon="105.9321177"><ele>283.13</ele><time>2026-03-09T20:48:00.000Z</time></trkpt>
        <trkpt lat="28.8212516" lon="105.9321291"><ele>283.79</ele><time>2026-03-09T20:48:10.000Z</time></trkpt>
        <trkpt lat="28.8211786" lon="105.9321951"><ele>285.08</ele><time>2026-03-09T20:48:22.000Z</time></trkpt>
        <trkpt lat="28.8210981" lon="105.9322546"><ele>286.13</ele><time>2026-03-09T20:48:34.000Z</time></trkpt>
        <trkpt lat="28.821008" lon="105.9322901"><ele>286.41</ele><time>2026-03-09T20:48:46.000Z</time></trkpt>
        <trkpt lat="28.8209609" lon="105.9323855"><ele>285.7</ele><time>2026-03-09T20:49:00.000Z</time></trkpt>
        <trkpt lat="28.8209058" lon="105.9324766"><ele>283.65</ele><time>2026-03-09T20:49:16.000Z</time></trkpt>
        <trkpt lat="28.8208635" lon="105.9325736"><ele>283.36</ele><time>2026-03-09T20:49:28.000Z</time></trkpt>
        <trkpt lat="28.8208648" lon="105.9326938"><ele>282.9</ele><time>2026-03-09T20:50:32.000Z</time></trkpt>
        <trkpt lat="28.8208148" lon="105.9327891"><ele>282.54</ele><time>2026-03-09T20:50:40.000Z</time></trkpt>
        <trkpt lat="28.8207297" lon="105.9328341"><ele>282.89</ele><time>2026-03-09T20:50:48.000Z</time></trkpt>
        <trkpt lat="28.8206357" lon="105.9328664"><ele>283.66</ele><time>2026-03-09T20:50:56.000Z</time></trkpt>
        <trkpt lat="28.8205448" lon="105.9328912"><ele>284.57</ele><time>2026-03-09T20:51:04.000Z</time></trkpt>
        <trkpt lat="28.820488" lon="105.9329639"><ele>285.28</ele><time>2026-03-09T20:51:12.000Z</time></trkpt>
        <trkpt lat="28.8204148" lon="105.9330171"><ele>287.22</ele><time>2026-03-09T20:51:20.000Z</time></trkpt>
        <trkpt lat="28.8203195" lon="105.9330586"><ele>289.21</ele><time>2026-03-09T20:51:30.000Z</time></trkpt>
        <trkpt lat="28.8202087" lon="105.9330882"><ele>291.51</ele><time>2026-03-09T20:51:40.000Z</time></trkpt>
        <trkpt lat="28.8201722" lon="105.933178"><ele>292.75</ele><time>2026-03-09T20:51:48.000Z</time></trkpt>
        <trkpt lat="28.8201822" lon="105.9332747"><ele>293.71</ele><time>2026-03-09T20:51:56.000Z</time></trkpt>
        <trkpt lat="28.8202229" lon="105.9333826"><ele>295.35</ele><time>2026-03-09T20:52:10.000Z</time></trkpt>
        <trkpt lat="28.820246" lon="105.9335041"><ele>294.03</ele><time>2026-03-09T20:52:18.000Z</time></trkpt>
        <trkpt lat="28.8202744" lon="105.9336313"><ele>292.74</ele><time>2026-03-09T20:52:26.000Z</time></trkpt>
        <trkpt lat="28.8203044" lon="105.9337543"><ele>291.7</ele><time>2026-03-09T20:52:34.000Z</time></trkpt>
        <trkpt lat="28.820299" lon="105.9338755"><ele>290.49</ele><time>2026-03-09T20:52:42.000Z</time></trkpt>
        <trkpt lat="28.8202585" lon="105.933993"><ele>289.39</ele><time>2026-03-09T20:52:50.000Z</time></trkpt>
        <trkpt lat="28.8202045" lon="105.9341072"><ele>288.27</ele><time>2026-03-09T20:52:58.000Z</time></trkpt>
        <trkpt lat="28.820166" lon="105.9342332"><ele>286.74</ele><time>2026-03-09T20:53:06.000Z</time></trkpt>
        <trkpt lat="28.8201689" lon="105.9343425"><ele>284.77</ele><time>2026-03-09T20:53:12.000Z</time></trkpt>
        <trkpt lat="28.8202126" lon="105.9344325"><ele>282.66</ele><time>2026-03-09T20:53:18.000Z</time></trkpt>
        <trkpt lat="28.8203064" lon="105.9344861"><ele>281.57</ele><time>2026-03-09T20:53:26.000Z</time></trkpt>
        <trkpt lat="28.8204203" lon="105.9344896"><ele>280.6</ele><time>2026-03-09T20:53:34.000Z</time></trkpt>
        <trkpt lat="28.8205314" lon="105.9344562"><ele>279.39</ele><time>2026-03-09T20:53:42.000Z</time></trkpt>
        <trkpt lat="28.8206399" lon="105.9344051"><ele>278.26</ele><time>2026-03-09T20:53:50.000Z</time></trkpt>
        <trkpt lat="28.8206985" lon="105.9343652"><ele>277.86</ele><time>2026-03-09T20:53:56.000Z</time></trkpt>
        <trkpt lat="28.8207541" lon="105.9344245"><ele>276.63</ele><time>2026-03-09T20:54:06.000Z</time></trkpt>
        <trkpt lat="28.8207814" lon="105.9345448"><ele>275.38</ele><time>2026-03-09T20:54:14.000Z</time></trkpt>
        <trkpt lat="28.8207734" lon="105.9346866"><ele>274.51</ele><time>2026-03-09T20:54:22.000Z</time></trkpt>
        <trkpt lat="28.820743" lon="105.9348254"><ele>275.77</ele><time>2026-03-09T20:54:30.000Z</time></trkpt>
        <trkpt lat="28.8207321" lon="105.934965"><ele>277.11</ele><time>2026-03-09T20:54:38.000Z</time></trkpt>
        <trkpt lat="28.820764" lon="105.9350868"><ele>278.43</ele><time>2026-03-09T20:54:46.000Z</time></trkpt>
        <trkpt lat="28.8208199" lon="105.9351928"><ele>279.91</ele><time>2026-03-09T20:54:54.000Z</time></trkpt>
        <trkpt lat="28.8209044" lon="105.9352689"><ele>280.53</ele><time>2026-03-09T20:55:02.000Z</time></trkpt>
        <trkpt lat="28.8210106" lon="105.935303"><ele>280.67</ele><time>2026-03-09T20:55:10.000Z</time></trkpt>
        <trkpt lat="28.8211274" lon="105.9353096"><ele>280.2</ele><time>2026-03-09T20:55:18.000Z</time></trkpt>
        <trkpt lat="28.8212417" lon="105.9352908"><ele>279.45</ele><time>2026-03-09T20:55:26.000Z</time></trkpt>
        <trkpt lat="28.8213456" lon="105.9352876"><ele>278.8</ele><time>2026-03-09T20:55:34.000Z</time></trkpt>
        <trkpt lat="28.8214492" lon="105.9353193"><ele>278.81</ele><time>2026-03-09T20:55:44.000Z</time></trkpt>
        <trkpt lat="28.8215495" lon="105.935386"><ele>278.95</ele><time>2026-03-09T20:55:52.000Z</time></trkpt>
        <trkpt lat="28.8216574" lon="105.9354381"><ele>278.3</ele><time>2026-03-09T20:56:00.000Z</time></trkpt>
        <trkpt lat="28.8217645" lon="105.9354903"><ele>277.01</ele><time>2026-03-09T20:56:08.000Z</time></trkpt>
        <trkpt lat="28.8218423" lon="105.9355794"><ele>275.67</ele><time>2026-03-09T20:56:16.000Z</time></trkpt>
        <trkpt lat="28.8218908" lon="105.9357015"><ele>274.22</ele><time>2026-03-09T20:56:24.000Z</time></trkpt>
        <trkpt lat="28.8219204" lon="105.9358121"><ele>273.34</ele><time>2026-03-09T20:56:30.000Z</time></trkpt>
        <trkpt lat="28.8219789" lon="105.9358911"><ele>273.35</ele><time>2026-03-09T20:56:38.000Z</time></trkpt>
        <trkpt lat="28.822055" lon="105.9359523"><ele>273.23</ele><time>2026-03-09T20:56:46.000Z</time></trkpt>
        <trkpt lat="28.8221188" lon="105.936027"><ele>273.23</ele><time>2026-03-09T20:56:54.000Z</time></trkpt>
        <trkpt lat="28.8221734" lon="105.9361305"><ele>273.24</ele><time>2026-03-09T20:57:02.000Z</time></trkpt>
        <trkpt lat="28.8222043" lon="105.9362343"><ele>274.02</ele><time>2026-03-09T20:57:10.000Z</time></trkpt>
        <trkpt lat="28.8222468" lon="105.9363462"><ele>274.52</ele><time>2026-03-09T20:57:20.000Z</time></trkpt>
        <trkpt lat="28.8222795" lon="105.9364688"><ele>275</ele><time>2026-03-09T20:57:28.000Z</time></trkpt>
        <trkpt lat="28.822309" lon="105.9365969"><ele>276.3</ele><time>2026-03-09T20:57:36.000Z</time></trkpt>
        <trkpt lat="28.8223655" lon="105.9366979"><ele>277.02</ele><time>2026-03-09T20:57:44.000Z</time></trkpt>
        <trkpt lat="28.8224507" lon="105.9367435"><ele>277.71</ele><time>2026-03-09T20:57:52.000Z</time></trkpt>
        <trkpt lat="28.8225449" lon="105.9367731"><ele>278.35</ele><time>2026-03-09T20:58:00.000Z</time></trkpt>
        <trkpt lat="28.822643" lon="105.93682"><ele>278.58</ele><time>2026-03-09T20:58:08.000Z</time></trkpt>
        <trkpt lat="28.8227097" lon="105.9368934"><ele>277.82</ele><time>2026-03-09T20:58:14.000Z</time></trkpt>
        <trkpt lat="28.8227437" lon="105.9369939"><ele>278.93</ele><time>2026-03-09T20:58:22.000Z</time></trkpt>
        <trkpt lat="28.8227327" lon="105.9371044"><ele>280.23</ele><time>2026-03-09T20:58:32.000Z</time></trkpt>
        <trkpt lat="28.8226899" lon="105.9372104"><ele>281.49</ele><time>2026-03-09T20:58:42.000Z</time></trkpt>
        <trkpt lat="28.8226177" lon="105.9372859"><ele>283.11</ele><time>2026-03-09T20:58:52.000Z</time></trkpt>
        <trkpt lat="28.8225449" lon="105.9373667"><ele>284.88</ele><time>2026-03-09T20:59:02.000Z</time></trkpt>
        <trkpt lat="28.822461" lon="105.9374446"><ele>287.19</ele><time>2026-03-09T20:59:12.000Z</time></trkpt>
        <trkpt lat="28.8223828" lon="105.9375234"><ele>290.91</ele><time>2026-03-09T20:59:22.000Z</time></trkpt>
        <trkpt lat="28.8224231" lon="105.9375984"><ele>293.89</ele><time>2026-03-09T20:59:34.000Z</time></trkpt>
        <trkpt lat="28.8224945" lon="105.9376867"><ele>293.62</ele><time>2026-03-09T20:59:44.000Z</time></trkpt>
        <trkpt lat="28.8225639" lon="105.9377891"><ele>293.53</ele><time>2026-03-09T20:59:54.000Z</time></trkpt>
        <trkpt lat="28.8226129" lon="105.9379037"><ele>293.75</ele><time>2026-03-09T21:00:04.000Z</time></trkpt>
        <trkpt lat="28.8226447" lon="105.9380242"><ele>294.4</ele><time>2026-03-09T21:00:14.000Z</time></trkpt>
        <trkpt lat="28.8226545" lon="105.9381479"><ele>294.8</ele><time>2026-03-09T21:00:24.000Z</time></trkpt>
        <trkpt lat="28.8226752" lon="105.9382555"><ele>297.18</ele><time>2026-03-09T21:00:32.000Z</time></trkpt>
        <trkpt lat="28.8226946" lon="105.9383572"><ele>300.67</ele><time>2026-03-09T21:00:38.000Z</time></trkpt>
        <trkpt lat="28.8227125" lon="105.9384708"><ele>302.41</ele><time>2026-03-09T21:00:44.000Z</time></trkpt>
        <trkpt lat="28.822789" lon="105.9385363"><ele>304.75</ele><time>2026-03-09T21:00:54.000Z</time></trkpt>
        <trkpt lat="28.8228814" lon="105.9385218"><ele>305.54</ele><time>2026-03-09T21:01:02.000Z</time></trkpt>
        <trkpt lat="28.8229783" lon="105.9384879"><ele>304.43</ele><time>2026-03-09T21:01:10.000Z</time></trkpt>
        <trkpt lat="28.8230829" lon="105.9384714"><ele>304.23</ele><time>2026-03-09T21:01:18.000Z</time></trkpt>
        <trkpt lat="28.8231713" lon="105.9385018"><ele>304.6</ele><time>2026-03-09T21:01:26.000Z</time></trkpt>
        <trkpt lat="28.8232398" lon="105.9385734"><ele>304.09</ele><time>2026-03-09T21:01:34.000Z</time></trkpt>
        <trkpt lat="28.8232462" lon="105.938681"><ele>304.78</ele><time>2026-03-09T21:01:42.000Z</time></trkpt>
        <trkpt lat="28.8232787" lon="105.9388093"><ele>307.06</ele><time>2026-03-09T21:01:52.000Z</time></trkpt>
        <trkpt lat="28.8232675" lon="105.9389334"><ele>308.78</ele><time>2026-03-09T21:02:00.000Z</time></trkpt>
        <trkpt lat="28.8232809" lon="105.9390459"><ele>308.16</ele><time>2026-03-09T21:02:10.000Z</time></trkpt>
        <trkpt lat="28.8233326" lon="105.9391294"><ele>306.96</ele><time>2026-03-09T21:02:22.000Z</time></trkpt>
        <trkpt lat="28.8233172" lon="105.9392379"><ele>305.4</ele><time>2026-03-09T21:02:30.000Z</time></trkpt>
        <trkpt lat="28.8233037" lon="105.9393518"><ele>303.22</ele><time>2026-03-09T21:02:44.000Z</time></trkpt>
        <trkpt lat="28.8232845" lon="105.939466"><ele>300.43</ele><time>2026-03-09T21:02:54.000Z</time></trkpt>
        <trkpt lat="28.8233116" lon="105.939568"><ele>299.94</ele><time>2026-03-09T21:03:02.000Z</time></trkpt>
        <trkpt lat="28.8233401" lon="105.9396848"><ele>296.09</ele><time>2026-03-09T21:03:12.000Z</time></trkpt>
        <trkpt lat="28.8233513" lon="105.9397997"><ele>291.74</ele><time>2026-03-09T21:03:22.000Z</time></trkpt>
        <trkpt lat="28.8233792" lon="105.9399078"><ele>292.27</ele><time>2026-03-09T21:03:28.000Z</time></trkpt>
        <trkpt lat="28.8234293" lon="105.9399931"><ele>292.87</ele><time>2026-03-09T21:03:34.000Z</time></trkpt>
        <trkpt lat="28.8234963" lon="105.9400691"><ele>296.66</ele><time>2026-03-09T21:03:44.000Z</time></trkpt>
        <trkpt lat="28.8234452" lon="105.9401162"><ele>300.4</ele><time>2026-03-09T21:04:02.000Z</time></trkpt>
        <trkpt lat="28.8233577" lon="105.9401602"><ele>305.02</ele><time>2026-03-09T21:04:10.000Z</time></trkpt>
        <trkpt lat="28.8232586" lon="105.9401569"><ele>307.85</ele><time>2026-03-09T21:04:16.000Z</time></trkpt>
        <trkpt lat="28.8231597" lon="105.940131"><ele>310.06</ele><time>2026-03-09T21:04:22.000Z</time></trkpt>
        <trkpt lat="28.8230637" lon="105.9401242"><ele>311.46</ele><time>2026-03-09T21:04:28.000Z</time></trkpt>
        <trkpt lat="28.8229575" lon="105.940144"><ele>312.67</ele><time>2026-03-09T21:04:36.000Z</time></trkpt>
        <trkpt lat="28.8228867" lon="105.9402267"><ele>313.08</ele><time>2026-03-09T21:04:42.000Z</time></trkpt>
        <trkpt lat="28.8228444" lon="105.9403349"><ele>312.67</ele><time>2026-03-09T21:04:48.000Z</time></trkpt>
        <trkpt lat="28.8227889" lon="105.9404357"><ele>312.44</ele><time>2026-03-09T21:04:56.000Z</time></trkpt>
        <trkpt lat="28.8227294" lon="105.9405546"><ele>312.83</ele><time>2026-03-09T21:05:04.000Z</time></trkpt>
        <trkpt lat="28.8226457" lon="105.9405987"><ele>313.09</ele><time>2026-03-09T21:05:10.000Z</time></trkpt>
        <trkpt lat="28.822548" lon="105.9406603"><ele>313.98</ele><time>2026-03-09T21:05:20.000Z</time></trkpt>
        <trkpt lat="28.8225131" lon="105.9407525"><ele>313.73</ele><time>2026-03-09T21:05:26.000Z</time></trkpt>
        <trkpt lat="28.822441" lon="105.940774"><ele>312.51</ele><time>2026-03-09T21:05:34.000Z</time></trkpt>
        <trkpt lat="28.8224377" lon="105.9407578"><ele>311.2</ele><time>2026-03-09T21:05:36.000Z</time></trkpt>
        <trkpt lat="28.8223984" lon="105.9408275"><ele>308.61</ele><time>2026-03-09T21:05:48.000Z</time></trkpt>
        <trkpt lat="28.8223571" lon="105.9409265"><ele>306.17</ele><time>2026-03-09T21:06:00.000Z</time></trkpt>
        <trkpt lat="28.8224148" lon="105.9410139"><ele>301.79</ele><time>2026-03-09T21:06:10.000Z</time></trkpt>
        <trkpt lat="28.82252" lon="105.9410546"><ele>297.67</ele><time>2026-03-09T21:06:18.000Z</time></trkpt>
        <trkpt lat="28.8226377" lon="105.9410763"><ele>293.91</ele><time>2026-03-09T21:06:26.000Z</time></trkpt>
        <trkpt lat="28.822743" lon="105.941118"><ele>290.94</ele><time>2026-03-09T21:06:34.000Z</time></trkpt>
        <trkpt lat="28.8228315" lon="105.9411881"><ele>289.08</ele><time>2026-03-09T21:06:42.000Z</time></trkpt>
        <trkpt lat="28.822926" lon="105.9412545"><ele>288.29</ele><time>2026-03-09T21:06:50.000Z</time></trkpt>
        <trkpt lat="28.823012" lon="105.9413245"><ele>288.31</ele><time>2026-03-09T21:06:58.000Z</time></trkpt>
        <trkpt lat="28.823043" lon="105.9414461"><ele>287.34</ele><time>2026-03-09T21:07:06.000Z</time></trkpt>
        <trkpt lat="28.8230326" lon="105.9415609"><ele>287.39</ele><time>2026-03-09T21:07:12.000Z</time></trkpt>
        <trkpt lat="28.822984" lon="105.9416787"><ele>288</ele><time>2026-03-09T21:07:20.000Z</time></trkpt>
        <trkpt lat="28.8229587" lon="105.9418014"><ele>289.16</ele><time>2026-03-09T21:07:28.000Z</time></trkpt>
        <trkpt lat="28.8229715" lon="105.9419203"><ele>289.96</ele><time>2026-03-09T21:07:36.000Z</time></trkpt>
        <trkpt lat="28.8229629" lon="105.9420382"><ele>290.7</ele><time>2026-03-09T21:07:44.000Z</time></trkpt>
        <trkpt lat="28.8229065" lon="105.9421166"><ele>292.47</ele><time>2026-03-09T21:07:52.000Z</time></trkpt>
        <trkpt lat="28.8228426" lon="105.9421959"><ele>294.49</ele><time>2026-03-09T21:08:00.000Z</time></trkpt>
        <trkpt lat="28.8227974" lon="105.9422994"><ele>295.95</ele><time>2026-03-09T21:08:08.000Z</time></trkpt>
        <trkpt lat="28.8227936" lon="105.9424207"><ele>296.62</ele><time>2026-03-09T21:08:16.000Z</time></trkpt>
        <trkpt lat="28.8228148" lon="105.9425434"><ele>296.83</ele><time>2026-03-09T21:08:24.000Z</time></trkpt>
        <trkpt lat="28.82284" lon="105.9426587"><ele>296.88</ele><time>2026-03-09T21:08:32.000Z</time></trkpt>
        <trkpt lat="28.8228629" lon="105.9427735"><ele>297.27</ele><time>2026-03-09T21:08:40.000Z</time></trkpt>
        <trkpt lat="28.8229268" lon="105.9428515"><ele>298.4</ele><time>2026-03-09T21:08:52.000Z</time></trkpt>
        <trkpt lat="28.8229317" lon="105.9429433"><ele>297.53</ele><time>2026-03-09T21:09:02.000Z</time></trkpt>
        <trkpt lat="28.8229918" lon="105.9430024"><ele>299.7</ele><time>2026-03-09T21:09:26.000Z</time></trkpt>
        <trkpt lat="28.8230803" lon="105.9430148"><ele>301.8</ele><time>2026-03-09T21:09:54.000Z</time></trkpt>
        <trkpt lat="28.8230993" lon="105.9430914"><ele>305.33</ele><time>2026-03-09T21:10:06.000Z</time></trkpt>
        <trkpt lat="28.8230989" lon="105.9431917"><ele>308.94</ele><time>2026-03-09T21:10:20.000Z</time></trkpt>
        <trkpt lat="28.8231088" lon="105.9432985"><ele>312.95</ele><time>2026-03-09T21:10:42.000Z</time></trkpt>
        <trkpt lat="28.8231329" lon="105.9434066"><ele>315.37</ele><time>2026-03-09T21:10:52.000Z</time></trkpt>
        <trkpt lat="28.8231702" lon="105.9435052"><ele>316.52</ele><time>2026-03-09T21:11:02.000Z</time></trkpt>
        <trkpt lat="28.8231473" lon="105.943605"><ele>314.15</ele><time>2026-03-09T21:11:12.000Z</time></trkpt>
        <trkpt lat="28.8231807" lon="105.9436932"><ele>315.09</ele><time>2026-03-09T21:11:22.000Z</time></trkpt>
        <trkpt lat="28.8232359" lon="105.9437785"><ele>316.36</ele><time>2026-03-09T21:11:40.000Z</time></trkpt>
        <trkpt lat="28.8232937" lon="105.943863"><ele>320.18</ele><time>2026-03-09T21:11:56.000Z</time></trkpt>
        <trkpt lat="28.8233807" lon="105.9439025"><ele>322.59</ele><time>2026-03-09T21:12:18.000Z</time></trkpt>
        <trkpt lat="28.8234462" lon="105.9439755"><ele>327.23</ele><time>2026-03-09T21:12:30.000Z</time></trkpt>
        <trkpt lat="28.8235298" lon="105.9439807"><ele>333.87</ele><time>2026-03-09T21:12:46.000Z</time></trkpt>
        <trkpt lat="28.8236237" lon="105.9439675"><ele>338.68</ele><time>2026-03-09T21:13:08.000Z</time></trkpt>
        <trkpt lat="28.8237211" lon="105.9439761"><ele>344.02</ele><time>2026-03-09T21:13:22.000Z</time></trkpt>
        <trkpt lat="28.8237731" lon="105.9440494"><ele>347.07</ele><time>2026-03-09T21:13:38.000Z</time></trkpt>
        <trkpt lat="28.8238318" lon="105.9441285"><ele>352.34</ele><time>2026-03-09T21:13:48.000Z</time></trkpt>
        <trkpt lat="28.8239166" lon="105.944191"><ele>354.55</ele><time>2026-03-09T21:14:00.000Z</time></trkpt>
        <trkpt lat="28.8239868" lon="105.9442741"><ele>357.26</ele><time>2026-03-09T21:14:10.000Z</time></trkpt>
        <trkpt lat="28.8240624" lon="105.9443386"><ele>358.22</ele><time>2026-03-09T21:14:22.000Z</time></trkpt>
        <trkpt lat="28.824084" lon="105.9444362"><ele>359.86</ele><time>2026-03-09T21:14:34.000Z</time></trkpt>
        <trkpt lat="28.8240848" lon="105.9445465"><ele>361.18</ele><time>2026-03-09T21:14:42.000Z</time></trkpt>
        <trkpt lat="28.8240904" lon="105.9446608"><ele>361.48</ele><time>2026-03-09T21:14:50.000Z</time></trkpt>
        <trkpt lat="28.8240958" lon="105.9447898"><ele>362.21</ele><time>2026-03-09T21:14:58.000Z</time></trkpt>
        <trkpt lat="28.824076" lon="105.9449082"><ele>361.45</ele><time>2026-03-09T21:15:06.000Z</time></trkpt>
        <trkpt lat="28.8240301" lon="105.9450086"><ele>360.04</ele><time>2026-03-09T21:15:14.000Z</time></trkpt>
        <trkpt lat="28.8240092" lon="105.9451108"><ele>357.66</ele><time>2026-03-09T21:15:22.000Z</time></trkpt>
        <trkpt lat="28.8239586" lon="105.9452022"><ele>357.23</ele><time>2026-03-09T21:15:30.000Z</time></trkpt>
        <trkpt lat="28.8239074" lon="105.9452965"><ele>358.44</ele><time>2026-03-09T21:15:40.000Z</time></trkpt>
        <trkpt lat="28.8239258" lon="105.9453887"><ele>359.41</ele><time>2026-03-09T21:15:48.000Z</time></trkpt>
        <trkpt lat="28.8239741" lon="105.9454942"><ele>361.85</ele><time>2026-03-09T21:15:58.000Z</time></trkpt>
        <trkpt lat="28.8239982" lon="105.9456019"><ele>364.3</ele><time>2026-03-09T21:16:08.000Z</time></trkpt>
        <trkpt lat="28.8239813" lon="105.9457093"><ele>367.35</ele><time>2026-03-09T21:16:20.000Z</time></trkpt>
        <trkpt lat="28.8239907" lon="105.9458184"><ele>371.43</ele><time>2026-03-09T21:16:32.000Z</time></trkpt>
        <trkpt lat="28.8240264" lon="105.9459228"><ele>375.45</ele><time>2026-03-09T21:16:44.000Z</time></trkpt>
        <trkpt lat="28.8240805" lon="105.9460218"><ele>379</ele><time>2026-03-09T21:16:56.000Z</time></trkpt>
        <trkpt lat="28.8241704" lon="105.9460532"><ele>382.97</ele><time>2026-03-09T21:17:08.000Z</time></trkpt>
        <trkpt lat="28.8242323" lon="105.9461239"><ele>386.65</ele><time>2026-03-09T21:17:20.000Z</time></trkpt>
        <trkpt lat="28.8242364" lon="105.9462346"><ele>390.45</ele><time>2026-03-09T21:17:32.000Z</time></trkpt>
        <trkpt lat="28.8241855" lon="105.946343"><ele>393.64</ele><time>2026-03-09T21:17:42.000Z</time></trkpt>
        <trkpt lat="28.8241545" lon="105.9464643"><ele>395.96</ele><time>2026-03-09T21:17:50.000Z</time></trkpt>
        <trkpt lat="28.824164" lon="105.9465907"><ele>397.72</ele><time>2026-03-09T21:17:58.000Z</time></trkpt>
        <trkpt lat="28.8242022" lon="105.946701"><ele>398.77</ele><time>2026-03-09T21:18:06.000Z</time></trkpt>
        <trkpt lat="28.8242499" lon="105.9468121"><ele>398.3</ele><time>2026-03-09T21:18:14.000Z</time></trkpt>
        <trkpt lat="28.8242925" lon="105.9469376"><ele>397.37</ele><time>2026-03-09T21:18:22.000Z</time></trkpt>
        <trkpt lat="28.8243287" lon="105.9470726"><ele>396.2</ele><time>2026-03-09T21:18:26.000Z</time></trkpt>
        <trkpt lat="28.8243599" lon="105.947205"><ele>395.53</ele><time>2026-03-09T21:18:30.000Z</time></trkpt>
        <trkpt lat="28.8243939" lon="105.9473277"><ele>395.83</ele><time>2026-03-09T21:18:34.000Z</time></trkpt>
        <trkpt lat="28.8244362" lon="105.9474494"><ele>395.77</ele><time>2026-03-09T21:18:38.000Z</time></trkpt>
        <trkpt lat="28.8244828" lon="105.9475744"><ele>395.5</ele><time>2026-03-09T21:18:42.000Z</time></trkpt>
        <trkpt lat="28.8245111" lon="105.9476942"><ele>395.34</ele><time>2026-03-09T21:18:48.000Z</time></trkpt>
        <trkpt lat="28.824499" lon="105.9478257"><ele>393.94</ele><time>2026-03-09T21:18:56.000Z</time></trkpt>
        <trkpt lat="28.8244694" lon="105.9479446"><ele>395.7</ele><time>2026-03-09T21:19:04.000Z</time></trkpt>
        <trkpt lat="28.8244379" lon="105.9480588"><ele>397.25</ele><time>2026-03-09T21:19:12.000Z</time></trkpt>
        <trkpt lat="28.8244076" lon="105.948175"><ele>397.6</ele><time>2026-03-09T21:19:20.000Z</time></trkpt>
        <trkpt lat="28.8243886" lon="105.9483024"><ele>397.72</ele><time>2026-03-09T21:19:28.000Z</time></trkpt>
        <trkpt lat="28.8244077" lon="105.9484328"><ele>398.49</ele><time>2026-03-09T21:19:36.000Z</time></trkpt>
        <trkpt lat="28.8244553" lon="105.9485571"><ele>399.8</ele><time>2026-03-09T21:19:44.000Z</time></trkpt>
        <trkpt lat="28.8245103" lon="105.9486627"><ele>400.59</ele><time>2026-03-09T21:19:54.000Z</time></trkpt>
        <trkpt lat="28.82454" lon="105.9487666"><ele>400.71</ele><time>2026-03-09T21:20:10.000Z</time></trkpt>
        <trkpt lat="28.8244824" lon="105.9488408"><ele>399.56</ele><time>2026-03-09T21:20:18.000Z</time></trkpt>
        <trkpt lat="28.8243758" lon="105.948837"><ele>399.54</ele><time>2026-03-09T21:20:26.000Z</time></trkpt>
        <trkpt lat="28.824267" lon="105.9487678"><ele>399.52</ele><time>2026-03-09T21:20:34.000Z</time></trkpt>
        <trkpt lat="28.8241691" lon="105.9486733"><ele>400.07</ele><time>2026-03-09T21:20:42.000Z</time></trkpt>
        <trkpt lat="28.8240577" lon="105.948639"><ele>400.66</ele><time>2026-03-09T21:20:50.000Z</time></trkpt>
        <trkpt lat="28.8239445" lon="105.9486132"><ele>401.5</ele><time>2026-03-09T21:20:58.000Z</time></trkpt>
        <trkpt lat="28.8238515" lon="105.948542"><ele>401.62</ele><time>2026-03-09T21:21:06.000Z</time></trkpt>
        <trkpt lat="28.8237904" lon="105.9484452"><ele>401.54</ele><time>2026-03-09T21:21:14.000Z</time></trkpt>
        <trkpt lat="28.8237319" lon="105.9483327"><ele>401.48</ele><time>2026-03-09T21:21:22.000Z</time></trkpt>
        <trkpt lat="28.8236693" lon="105.948222"><ele>402.01</ele><time>2026-03-09T21:21:30.000Z</time></trkpt>
        <trkpt lat="28.8236134" lon="105.9481309"><ele>402.87</ele><time>2026-03-09T21:21:36.000Z</time></trkpt>
        <trkpt lat="28.8235315" lon="105.9480612"><ele>404.63</ele><time>2026-03-09T21:21:44.000Z</time></trkpt>
        <trkpt lat="28.8234193" lon="105.9480596"><ele>405.78</ele><time>2026-03-09T21:21:52.000Z</time></trkpt>
        <trkpt lat="28.8232984" lon="105.948082"><ele>405.7</ele><time>2026-03-09T21:22:00.000Z</time></trkpt>
        <trkpt lat="28.8231853" lon="105.9480954"><ele>405.78</ele><time>2026-03-09T21:22:08.000Z</time></trkpt>
        <trkpt lat="28.823077" lon="105.9481086"><ele>406.29</ele><time>2026-03-09T21:22:16.000Z</time></trkpt>
        <trkpt lat="28.8229662" lon="105.9481216"><ele>407</ele><time>2026-03-09T21:22:24.000Z</time></trkpt>
        <trkpt lat="28.822907" lon="105.9482172"><ele>407.93</ele><time>2026-03-09T21:22:32.000Z</time></trkpt>
        <trkpt lat="28.8228693" lon="105.9483438"><ele>408.97</ele><time>2026-03-09T21:22:40.000Z</time></trkpt>
        <trkpt lat="28.8229069" lon="105.9484558"><ele>409.83</ele><time>2026-03-09T21:22:48.000Z</time></trkpt>
        <trkpt lat="28.8230083" lon="105.9484847"><ele>411.36</ele><time>2026-03-09T21:22:58.000Z</time></trkpt>
        <trkpt lat="28.8231289" lon="105.9484883"><ele>412.79</ele><time>2026-03-09T21:23:08.000Z</time></trkpt>
        <trkpt lat="28.8232428" lon="105.9484871"><ele>412.78</ele><time>2026-03-09T21:23:16.000Z</time></trkpt>
        <trkpt lat="28.8233297" lon="105.9485483"><ele>412.13</ele><time>2026-03-09T21:23:24.000Z</time></trkpt>
        <trkpt lat="28.8233725" lon="105.9486621"><ele>412.11</ele><time>2026-03-09T21:23:32.000Z</time></trkpt>
        <trkpt lat="28.8233992" lon="105.9487907"><ele>412.26</ele><time>2026-03-09T21:23:40.000Z</time></trkpt>
        <trkpt lat="28.823437" lon="105.9489028"><ele>412.6</ele><time>2026-03-09T21:23:48.000Z</time></trkpt>
        <trkpt lat="28.8234938" lon="105.9489918"><ele>413.34</ele><time>2026-03-09T21:23:56.000Z</time></trkpt>
        <trkpt lat="28.8235562" lon="105.9490842"><ele>415.31</ele><time>2026-03-09T21:24:06.000Z</time></trkpt>
        <trkpt lat="28.8236419" lon="105.9491303"><ele>418.03</ele><time>2026-03-09T21:24:16.000Z</time></trkpt>
        <trkpt lat="28.8237389" lon="105.949156"><ele>420.34</ele><time>2026-03-09T21:24:26.000Z</time></trkpt>
        <trkpt lat="28.8238317" lon="105.9492089"><ele>422.54</ele><time>2026-03-09T21:24:36.000Z</time></trkpt>
        <trkpt lat="28.8238849" lon="105.9492623"><ele>423.85</ele><time>2026-03-09T21:24:44.000Z</time></trkpt>
        <trkpt lat="28.8239399" lon="105.9493378"><ele>423.85</ele><time>2026-03-09T21:25:00.000Z</time></trkpt>
        <trkpt lat="28.823985" lon="105.9494402"><ele>425.11</ele><time>2026-03-09T21:25:10.000Z</time></trkpt>
        <trkpt lat="28.8239806" lon="105.9495569"><ele>427.63</ele><time>2026-03-09T21:25:20.000Z</time></trkpt>
        <trkpt lat="28.8239627" lon="105.9496711"><ele>431.52</ele><time>2026-03-09T21:25:34.000Z</time></trkpt>
        <trkpt lat="28.8240201" lon="105.9497261"><ele>433.32</ele><time>2026-03-09T21:25:44.000Z</time></trkpt>
        <trkpt lat="28.8241197" lon="105.9497505"><ele>434.24</ele><time>2026-03-09T21:25:56.000Z</time></trkpt>
        <trkpt lat="28.8242264" lon="105.9497756"><ele>433.88</ele><time>2026-03-09T21:26:08.000Z</time></trkpt>
        <trkpt lat="28.824302" lon="105.9498436"><ele>432.93</ele><time>2026-03-09T21:26:20.000Z</time></trkpt>
        <trkpt lat="28.8243534" lon="105.9499361"><ele>433.46</ele><time>2026-03-09T21:26:32.000Z</time></trkpt>
        <trkpt lat="28.8243744" lon="105.9500587"><ele>434.38</ele><time>2026-03-09T21:26:42.000Z</time></trkpt>
        <trkpt lat="28.8243762" lon="105.9501861"><ele>435.48</ele><time>2026-03-09T21:26:50.000Z</time></trkpt>
        <trkpt lat="28.8243831" lon="105.9503099"><ele>437.18</ele><time>2026-03-09T21:26:58.000Z</time></trkpt>
        <trkpt lat="28.8244219" lon="105.9504196"><ele>438.86</ele><time>2026-03-09T21:27:06.000Z</time></trkpt>
        <trkpt lat="28.824458" lon="105.9505286"><ele>439.55</ele><time>2026-03-09T21:27:14.000Z</time></trkpt>
        <trkpt lat="28.824473" lon="105.9506428"><ele>439.74</ele><time>2026-03-09T21:27:22.000Z</time></trkpt>
        <trkpt lat="28.8244895" lon="105.9507636"><ele>439.83</ele><time>2026-03-09T21:27:30.000Z</time></trkpt>
        <trkpt lat="28.8244799" lon="105.9508796"><ele>440.84</ele><time>2026-03-09T21:27:38.000Z</time></trkpt>
        <trkpt lat="28.8244611" lon="105.9509869"><ele>442.88</ele><time>2026-03-09T21:27:52.000Z</time></trkpt>
        <trkpt lat="28.8244717" lon="105.9511025"><ele>444.73</ele><time>2026-03-09T21:28:02.000Z</time></trkpt>
        <trkpt lat="28.8244718" lon="105.9512096"><ele>446.54</ele><time>2026-03-09T21:28:14.000Z</time></trkpt>
        <trkpt lat="28.8245225" lon="105.9512931"><ele>448.62</ele><time>2026-03-09T21:28:24.000Z</time></trkpt>
        <trkpt lat="28.8244683" lon="105.9513398"><ele>450</ele><time>2026-03-09T21:28:42.000Z</time></trkpt>
        <trkpt lat="28.8243704" lon="105.9513659"><ele>452.07</ele><time>2026-03-09T21:28:54.000Z</time></trkpt>
        <trkpt lat="28.8242542" lon="105.9513543"><ele>456.08</ele><time>2026-03-09T21:29:04.000Z</time></trkpt>
        <trkpt lat="28.8241585" lon="105.9512974"><ele>458.07</ele><time>2026-03-09T21:29:12.000Z</time></trkpt>
        <trkpt lat="28.8240566" lon="105.9512511"><ele>459.19</ele><time>2026-03-09T21:29:20.000Z</time></trkpt>
        <trkpt lat="28.8239585" lon="105.9511986"><ele>460.31</ele><time>2026-03-09T21:29:28.000Z</time></trkpt>
        <trkpt lat="28.8238632" lon="105.9511534"><ele>461.68</ele><time>2026-03-09T21:29:36.000Z</time></trkpt>
        <trkpt lat="28.8237751" lon="105.9511125"><ele>463.42</ele><time>2026-03-09T21:29:44.000Z</time></trkpt>
        <trkpt lat="28.8236883" lon="105.9510626"><ele>463.16</ele><time>2026-03-09T21:29:52.000Z</time></trkpt>
        <trkpt lat="28.8236009" lon="105.9510193"><ele>463.8</ele><time>2026-03-09T21:30:00.000Z</time></trkpt>
        <trkpt lat="28.8235076" lon="105.950997"><ele>465.08</ele><time>2026-03-09T21:30:08.000Z</time></trkpt>
        <trkpt lat="28.8234158" lon="105.9509875"><ele>466.12</ele><time>2026-03-09T21:30:16.000Z</time></trkpt>
        <trkpt lat="28.8233157" lon="105.9509733"><ele>467.32</ele><time>2026-03-09T21:30:24.000Z</time></trkpt>
        <trkpt lat="28.8232017" lon="105.9509536"><ele>468.23</ele><time>2026-03-09T21:30:32.000Z</time></trkpt>
        <trkpt lat="28.8230917" lon="105.9509384"><ele>468.7</ele><time>2026-03-09T21:30:40.000Z</time></trkpt>
        <trkpt lat="28.8229862" lon="105.9509384"><ele>468.01</ele><time>2026-03-09T21:30:48.000Z</time></trkpt>
        <trkpt lat="28.8228868" lon="105.9509697"><ele>466.56</ele><time>2026-03-09T21:30:56.000Z</time></trkpt>
        <trkpt lat="28.822798" lon="105.9510324"><ele>464.05</ele><time>2026-03-09T21:31:04.000Z</time></trkpt>
        <trkpt lat="28.8227079" lon="105.9511008"><ele>461.31</ele><time>2026-03-09T21:31:12.000Z</time></trkpt>
        <trkpt lat="28.8226133" lon="105.9511648"><ele>458.87</ele><time>2026-03-09T21:31:20.000Z</time></trkpt>
        <trkpt lat="28.8225083" lon="105.9512158"><ele>456.01</ele><time>2026-03-09T21:31:28.000Z</time></trkpt>
        <trkpt lat="28.8224005" lon="105.9512431"><ele>454.26</ele><time>2026-03-09T21:31:36.000Z</time></trkpt>
        <trkpt lat="28.8222901" lon="105.951274"><ele>453.3</ele><time>2026-03-09T21:31:44.000Z</time></trkpt>
        <trkpt lat="28.8221875" lon="105.9513234"><ele>452.44</ele><time>2026-03-09T21:31:52.000Z</time></trkpt>
        <trkpt lat="28.8220875" lon="105.9513755"><ele>451.58</ele><time>2026-03-09T21:32:00.000Z</time></trkpt>
        <trkpt lat="28.8219784" lon="105.951404"><ele>451.26</ele><time>2026-03-09T21:32:08.000Z</time></trkpt>
        <trkpt lat="28.8218642" lon="105.9513999"><ele>451.31</ele><time>2026-03-09T21:32:16.000Z</time></trkpt>
        <trkpt lat="28.8217514" lon="105.951387"><ele>452.15</ele><time>2026-03-09T21:32:24.000Z</time></trkpt>
        <trkpt lat="28.8216415" lon="105.9513964"><ele>453.22</ele><time>2026-03-09T21:32:32.000Z</time></trkpt>
        <trkpt lat="28.8215335" lon="105.9514161"><ele>454.58</ele><time>2026-03-09T21:32:40.000Z</time></trkpt>
        <trkpt lat="28.821427" lon="105.9514454"><ele>455.31</ele><time>2026-03-09T21:32:48.000Z</time></trkpt>
        <trkpt lat="28.8213803" lon="105.9515015"><ele>456.66</ele><time>2026-03-09T21:32:54.000Z</time></trkpt>
        <trkpt lat="28.8214063" lon="105.9515973"><ele>457.47</ele><time>2026-03-09T21:33:32.000Z</time></trkpt>
        <trkpt lat="28.8214142" lon="105.9517158"><ele>457.66</ele><time>2026-03-09T21:33:46.000Z</time></trkpt>
        <trkpt lat="28.8213872" lon="105.9518236"><ele>459.28</ele><time>2026-03-09T21:33:56.000Z</time></trkpt>
        <trkpt lat="28.8213186" lon="105.9518968"><ele>460.13</ele><time>2026-03-09T21:34:04.000Z</time></trkpt>
        <trkpt lat="28.8212435" lon="105.9519622"><ele>459.37</ele><time>2026-03-09T21:34:14.000Z</time></trkpt>
        <trkpt lat="28.8211512" lon="105.9520062"><ele>457.27</ele><time>2026-03-09T21:34:22.000Z</time></trkpt>
        <trkpt lat="28.8210606" lon="105.9520575"><ele>457.99</ele><time>2026-03-09T21:34:30.000Z</time></trkpt>
        <trkpt lat="28.8209673" lon="105.9521197"><ele>460.12</ele><time>2026-03-09T21:34:38.000Z</time></trkpt>
        <trkpt lat="28.8208827" lon="105.9521851"><ele>462.59</ele><time>2026-03-09T21:34:46.000Z</time></trkpt>
        <trkpt lat="28.8207969" lon="105.9522363"><ele>466.78</ele><time>2026-03-09T21:35:22.000Z</time></trkpt>
        <trkpt lat="28.8207157" lon="105.9522928"><ele>471.84</ele><time>2026-03-09T21:36:14.000Z</time></trkpt>
        <trkpt lat="28.8206207" lon="105.9523124"><ele>478.24</ele><time>2026-03-09T21:36:30.000Z</time></trkpt>
        <trkpt lat="28.8205229" lon="105.9523199"><ele>486.47</ele><time>2026-03-09T21:36:46.000Z</time></trkpt>
        <trkpt lat="28.8204135" lon="105.9522936"><ele>493.13</ele><time>2026-03-09T21:37:00.000Z</time></trkpt>
        <trkpt lat="28.8203453" lon="105.9523534"><ele>496.43</ele><time>2026-03-09T21:37:10.000Z</time></trkpt>
        <trkpt lat="28.8203147" lon="105.952468"><ele>497.97</ele><time>2026-03-09T21:37:22.000Z</time></trkpt>
        <trkpt lat="28.8202825" lon="105.9525859"><ele>500.73</ele><time>2026-03-09T21:37:36.000Z</time></trkpt>
        <trkpt lat="28.8202468" lon="105.9526912"><ele>503.79</ele><time>2026-03-09T21:37:50.000Z</time></trkpt>
        <trkpt lat="28.820173" lon="105.9527521"><ele>506.54</ele><time>2026-03-09T21:38:06.000Z</time></trkpt>
        <trkpt lat="28.8200832" lon="105.9527793"><ele>510.27</ele><time>2026-03-09T21:38:22.000Z</time></trkpt>
        <trkpt lat="28.8199847" lon="105.9527828"><ele>514.38</ele><time>2026-03-09T21:38:38.000Z</time></trkpt>
        <trkpt lat="28.8198851" lon="105.9527773"><ele>519.39</ele><time>2026-03-09T21:38:54.000Z</time></trkpt>
        <trkpt lat="28.8197826" lon="105.952784"><ele>523.55</ele><time>2026-03-09T21:39:10.000Z</time></trkpt>
        <trkpt lat="28.8197168" lon="105.9528094"><ele>524.82</ele><time>2026-03-09T21:39:20.000Z</time></trkpt>
        <trkpt lat="28.8196308" lon="105.9527716"><ele>526.19</ele><time>2026-03-09T21:39:40.000Z</time></trkpt>
        <trkpt lat="28.819538" lon="105.9527906"><ele>525.73</ele><time>2026-03-09T21:39:50.000Z</time></trkpt>
        <trkpt lat="28.8194675" lon="105.952855"><ele>527.47</ele><time>2026-03-09T21:40:14.000Z</time></trkpt>
        <trkpt lat="28.8193937" lon="105.952831"><ele>529.89</ele><time>2026-03-09T21:40:30.000Z</time></trkpt>
        <trkpt lat="28.8193088" lon="105.9528474"><ele>533.98</ele><time>2026-03-09T21:40:46.000Z</time></trkpt>
        <trkpt lat="28.8192162" lon="105.9528364"><ele>536.3</ele><time>2026-03-09T21:41:02.000Z</time></trkpt>
        <trkpt lat="28.8191486" lon="105.9529007"><ele>541</ele><time>2026-03-09T21:41:24.000Z</time></trkpt>
        <trkpt lat="28.8190866" lon="105.9529837"><ele>544.24</ele><time>2026-03-09T21:41:44.000Z</time></trkpt>
        <trkpt lat="28.8190038" lon="105.953039"><ele>547.01</ele><time>2026-03-09T21:42:00.000Z</time></trkpt>
        <trkpt lat="28.8189361" lon="105.9531164"><ele>548.54</ele><time>2026-03-09T21:42:12.000Z</time></trkpt>
        <trkpt lat="28.8189038" lon="105.9532171"><ele>549.55</ele><time>2026-03-09T21:42:32.000Z</time></trkpt>
        <trkpt lat="28.8189639" lon="105.9532163"><ele>552.71</ele><time>2026-03-09T21:42:54.000Z</time></trkpt>
        <trkpt lat="28.8189672" lon="105.9532842"><ele>557.37</ele><time>2026-03-09T21:43:20.000Z</time></trkpt>
        <trkpt lat="28.8189077" lon="105.9533438"><ele>561.55</ele><time>2026-03-09T21:43:36.000Z</time></trkpt>
        <trkpt lat="28.8188114" lon="105.9533732"><ele>567.03</ele><time>2026-03-09T21:43:54.000Z</time></trkpt>
        <trkpt lat="28.8187112" lon="105.9533874"><ele>571.38</ele><time>2026-03-09T21:44:08.000Z</time></trkpt>
        <trkpt lat="28.8186134" lon="105.9534036"><ele>575.73</ele><time>2026-03-09T21:44:30.000Z</time></trkpt>
        <trkpt lat="28.8185216" lon="105.9534294"><ele>580.75</ele><time>2026-03-09T21:44:46.000Z</time></trkpt>
        <trkpt lat="28.8184288" lon="105.9534549"><ele>584.59</ele><time>2026-03-09T21:45:06.000Z</time></trkpt>
        <trkpt lat="28.8183516" lon="105.95351"><ele>589.93</ele><time>2026-03-09T21:45:26.000Z</time></trkpt>
        <trkpt lat="28.8183516" lon="105.95351"><ele>589.93</ele><time>2026-03-09T21:45:53.000Z</time></trkpt>
        <trkpt lat="28.8183009" lon="105.9535974"><ele>594.7</ele><time>2026-03-09T21:45:55.000Z</time></trkpt>
        <trkpt lat="28.8183009" lon="105.9535974"><ele>594.7</ele><time>2026-03-09T21:46:12.000Z</time></trkpt>
        <trkpt lat="28.8183091" lon="105.9537007"><ele>596.64</ele><time>2026-03-09T21:46:22.000Z</time></trkpt>
        <trkpt lat="28.8183095" lon="105.9538224"><ele>596.58</ele><time>2026-03-09T21:46:32.000Z</time></trkpt>
        <trkpt lat="28.818285" lon="105.9539053"><ele>596.8</ele><time>2026-03-09T21:46:42.000Z</time></trkpt>
        <trkpt lat="28.8182119" lon="105.9538931"><ele>597.87</ele><time>2026-03-09T21:47:22.000Z</time></trkpt>
        <trkpt lat="28.8181202" lon="105.9538867"><ele>601.94</ele><time>2026-03-09T21:47:38.000Z</time></trkpt>
        <trkpt lat="28.8180247" lon="105.9538965"><ele>606.87</ele><time>2026-03-09T21:47:54.000Z</time></trkpt>
        <trkpt lat="28.8179309" lon="105.9539248"><ele>610.62</ele><time>2026-03-09T21:48:06.000Z</time></trkpt>
        <trkpt lat="28.8178324" lon="105.953937"><ele>611.72</ele><time>2026-03-09T21:48:16.000Z</time></trkpt>
        <trkpt lat="28.8177487" lon="105.9538876"><ele>612.4</ele><time>2026-03-09T21:48:24.000Z</time></trkpt>
        <trkpt lat="28.8176619" lon="105.9538503"><ele>611.95</ele><time>2026-03-09T21:48:32.000Z</time></trkpt>
        <trkpt lat="28.817574" lon="105.9538885"><ele>609.66</ele><time>2026-03-09T21:48:44.000Z</time></trkpt>
        <trkpt lat="28.8175399" lon="105.9539843"><ele>605.71</ele><time>2026-03-09T21:48:52.000Z</time></trkpt>
        <trkpt lat="28.8175324" lon="105.9541068"><ele>602.65</ele><time>2026-03-09T21:49:00.000Z</time></trkpt>
        <trkpt lat="28.8175119" lon="105.9542255"><ele>600.76</ele><time>2026-03-09T21:49:08.000Z</time></trkpt>
        <trkpt lat="28.8174899" lon="105.9543365"><ele>598.98</ele><time>2026-03-09T21:49:16.000Z</time></trkpt>
        <trkpt lat="28.817476" lon="105.9544459"><ele>597.79</ele><time>2026-03-09T21:49:24.000Z</time></trkpt>
        <trkpt lat="28.8174558" lon="105.9545564"><ele>596.77</ele><time>2026-03-09T21:49:32.000Z</time></trkpt>
        <trkpt lat="28.8173971" lon="105.9546501"><ele>595.04</ele><time>2026-03-09T21:49:40.000Z</time></trkpt>
        <trkpt lat="28.8173245" lon="105.9547236"><ele>593.68</ele><time>2026-03-09T21:49:48.000Z</time></trkpt>
        <trkpt lat="28.8172386" lon="105.9547646"><ele>593.31</ele><time>2026-03-09T21:49:56.000Z</time></trkpt>
        <trkpt lat="28.8171671" lon="105.9548341"><ele>594.37</ele><time>2026-03-09T21:50:04.000Z</time></trkpt>
        <trkpt lat="28.8171039" lon="105.9549433"><ele>595.56</ele><time>2026-03-09T21:50:12.000Z</time></trkpt>
        <trkpt lat="28.8170126" lon="105.9550031"><ele>597.08</ele><time>2026-03-09T21:50:20.000Z</time></trkpt>
        <trkpt lat="28.8169147" lon="105.9549644"><ele>599.82</ele><time>2026-03-09T21:50:28.000Z</time></trkpt>
        <trkpt lat="28.8168349" lon="105.9548928"><ele>604.41</ele><time>2026-03-09T21:50:34.000Z</time></trkpt>
        <trkpt lat="28.8167382" lon="105.9548764"><ele>608.88</ele><time>2026-03-09T21:50:44.000Z</time></trkpt>
        <trkpt lat="28.8166494" lon="105.9548997"><ele>612.04</ele><time>2026-03-09T21:50:52.000Z</time></trkpt>
        <trkpt lat="28.8165517" lon="105.9549319"><ele>613.86</ele><time>2026-03-09T21:51:00.000Z</time></trkpt>
        <trkpt lat="28.8164727" lon="105.9549952"><ele>616.54</ele><time>2026-03-09T21:51:10.000Z</time></trkpt>
        <trkpt lat="28.8164208" lon="105.9550862"><ele>618.06</ele><time>2026-03-09T21:51:20.000Z</time></trkpt>
        <trkpt lat="28.8163645" lon="105.9551964"><ele>619.66</ele><time>2026-03-09T21:51:34.000Z</time></trkpt>
        <trkpt lat="28.8163195" lon="105.9553022"><ele>620.46</ele><time>2026-03-09T21:51:44.000Z</time></trkpt>
        <trkpt lat="28.8162777" lon="105.9554174"><ele>621.08</ele><time>2026-03-09T21:51:56.000Z</time></trkpt>
        <trkpt lat="28.8162" lon="105.9554981"><ele>621.71</ele><time>2026-03-09T21:52:06.000Z</time></trkpt>
        <trkpt lat="28.816129" lon="105.9554562"><ele>622.97</ele><time>2026-03-09T21:52:14.000Z</time></trkpt>
        <trkpt lat="28.8160882" lon="105.9553572"><ele>624.22</ele><time>2026-03-09T21:52:20.000Z</time></trkpt>
        <trkpt lat="28.816007" lon="105.9552853"><ele>624.62</ele><time>2026-03-09T21:52:30.000Z</time></trkpt>
        <trkpt lat="28.8159251" lon="105.95532"><ele>625.73</ele><time>2026-03-09T21:52:38.000Z</time></trkpt>
        <trkpt lat="28.8158388" lon="105.9554044"><ele>626.02</ele><time>2026-03-09T21:52:46.000Z</time></trkpt>
        <trkpt lat="28.8157496" lon="105.9555041"><ele>625.91</ele><time>2026-03-09T21:52:54.000Z</time></trkpt>
        <trkpt lat="28.8156672" lon="105.9555988"><ele>625.78</ele><time>2026-03-09T21:53:02.000Z</time></trkpt>
        <trkpt lat="28.8155993" lon="105.9556872"><ele>627.63</ele><time>2026-03-09T21:53:10.000Z</time></trkpt>
        <trkpt lat="28.8155746" lon="105.9557905"><ele>630.25</ele><time>2026-03-09T21:53:18.000Z</time></trkpt>
        <trkpt lat="28.8156227" lon="105.9558734"><ele>632.7</ele><time>2026-03-09T21:53:28.000Z</time></trkpt>
        <trkpt lat="28.8157132" lon="105.9559321"><ele>630.54</ele><time>2026-03-09T21:53:50.000Z</time></trkpt>
        <trkpt lat="28.815784" lon="105.9560252"><ele>629.52</ele><time>2026-03-09T21:54:00.000Z</time></trkpt>
        <trkpt lat="28.815851" lon="105.9561112"><ele>629.74</ele><time>2026-03-09T21:54:18.000Z</time></trkpt>
        <trkpt lat="28.8158062" lon="105.9561941"><ele>631.01</ele><time>2026-03-09T21:54:34.000Z</time></trkpt>
        <trkpt lat="28.8157567" lon="105.9562869"><ele>631.47</ele><time>2026-03-09T21:54:48.000Z</time></trkpt>
        <trkpt lat="28.8157743" lon="105.9563765"><ele>633.39</ele><time>2026-03-09T21:55:06.000Z</time></trkpt>
        <trkpt lat="28.8157321" lon="105.9564566"><ele>638.43</ele><time>2026-03-09T21:55:20.000Z</time></trkpt>
        <trkpt lat="28.8156786" lon="105.9565536"><ele>643.11</ele><time>2026-03-09T21:55:32.000Z</time></trkpt>
        <trkpt lat="28.8156297" lon="105.956648"><ele>647.11</ele><time>2026-03-09T21:55:42.000Z</time></trkpt>
        <trkpt lat="28.8156029" lon="105.9567646"><ele>651.59</ele><time>2026-03-09T21:55:52.000Z</time></trkpt>
        <trkpt lat="28.8155349" lon="105.9568309"><ele>654.5</ele><time>2026-03-09T21:56:04.000Z</time></trkpt>
        <trkpt lat="28.8154357" lon="105.956841"><ele>656.8</ele><time>2026-03-09T21:56:14.000Z</time></trkpt>
        <trkpt lat="28.8153311" lon="105.9568397"><ele>656.9</ele><time>2026-03-09T21:56:22.000Z</time></trkpt>
        <trkpt lat="28.8152246" lon="105.9568349"><ele>656.37</ele><time>2026-03-09T21:56:30.000Z</time></trkpt>
        <trkpt lat="28.8151145" lon="105.9568283"><ele>655.77</ele><time>2026-03-09T21:56:38.000Z</time></trkpt>
        <trkpt lat="28.8150161" lon="105.9568255"><ele>655.26</ele><time>2026-03-09T21:56:44.000Z</time></trkpt>
        <trkpt lat="28.8149129" lon="105.956829"><ele>655.51</ele><time>2026-03-09T21:56:52.000Z</time></trkpt>
        <trkpt lat="28.8148157" lon="105.9568317"><ele>655.36</ele><time>2026-03-09T21:56:58.000Z</time></trkpt>
        <trkpt lat="28.8147209" lon="105.9568347"><ele>654.51</ele><time>2026-03-09T21:57:04.000Z</time></trkpt>
        <trkpt lat="28.8146285" lon="105.9568471"><ele>653.77</ele><time>2026-03-09T21:57:12.000Z</time></trkpt>
        <trkpt lat="28.8145327" lon="105.9568631"><ele>653.47</ele><time>2026-03-09T21:57:20.000Z</time></trkpt>
        <trkpt lat="28.8144402" lon="105.9569128"><ele>654.07</ele><time>2026-03-09T21:57:28.000Z</time></trkpt>
        <trkpt lat="28.8143571" lon="105.9569825"><ele>654.33</ele><time>2026-03-09T21:57:36.000Z</time></trkpt>
        <trkpt lat="28.8142845" lon="105.9570665"><ele>654.7</ele><time>2026-03-09T21:57:44.000Z</time></trkpt>
        <trkpt lat="28.8142128" lon="105.957155"><ele>654.72</ele><time>2026-03-09T21:57:52.000Z</time></trkpt>
        <trkpt lat="28.8141357" lon="105.9572339"><ele>655.2</ele><time>2026-03-09T21:58:00.000Z</time></trkpt>
        <trkpt lat="28.8140482" lon="105.9572923"><ele>655.56</ele><time>2026-03-09T21:58:08.000Z</time></trkpt>
        <trkpt lat="28.8139335" lon="105.9573065"><ele>655.93</ele><time>2026-03-09T21:58:16.000Z</time></trkpt>
        <trkpt lat="28.8138189" lon="105.9572925"><ele>656.6</ele><time>2026-03-09T21:58:24.000Z</time></trkpt>
        <trkpt lat="28.8137043" lon="105.9572999"><ele>657.32</ele><time>2026-03-09T21:58:32.000Z</time></trkpt>
        <trkpt lat="28.8136017" lon="105.9573354"><ele>658.23</ele><time>2026-03-09T21:58:40.000Z</time></trkpt>
        <trkpt lat="28.8135061" lon="105.9573981"><ele>658.92</ele><time>2026-03-09T21:58:48.000Z</time></trkpt>
        <trkpt lat="28.8133974" lon="105.957436"><ele>659.62</ele><time>2026-03-09T21:58:56.000Z</time></trkpt>
        <trkpt lat="28.8132994" lon="105.9574445"><ele>659.65</ele><time>2026-03-09T21:59:02.000Z</time></trkpt>
        <trkpt lat="28.813194" lon="105.9574304"><ele>660.45</ele><time>2026-03-09T21:59:10.000Z</time></trkpt>
        <trkpt lat="28.8130809" lon="105.9574154"><ele>661.14</ele><time>2026-03-09T21:59:18.000Z</time></trkpt>
        <trkpt lat="28.8129855" lon="105.9574254"><ele>662.13</ele><time>2026-03-09T21:59:26.000Z</time></trkpt>
        <trkpt lat="28.8129927" lon="105.9575102"><ele>663.54</ele><time>2026-03-09T21:59:34.000Z</time></trkpt>
        <trkpt lat="28.8130372" lon="105.9576234"><ele>666.9</ele><time>2026-03-09T21:59:44.000Z</time></trkpt>
        <trkpt lat="28.8131225" lon="105.9577193"><ele>667.39</ele><time>2026-03-09T22:00:00.000Z</time></trkpt>
        <trkpt lat="28.8131796" lon="105.9578205"><ele>667.77</ele><time>2026-03-09T22:00:10.000Z</time></trkpt>
        <trkpt lat="28.8132493" lon="105.9579028"><ele>667.49</ele><time>2026-03-09T22:00:22.000Z</time></trkpt>
        <trkpt lat="28.8132512" lon="105.9580002"><ele>667.33</ele><time>2026-03-09T22:00:34.000Z</time></trkpt>
        <trkpt lat="28.8132149" lon="105.9581018"><ele>670.29</ele><time>2026-03-09T22:00:50.000Z</time></trkpt>
        <trkpt lat="28.8132227" lon="105.9582012"><ele>673.95</ele><time>2026-03-09T22:01:06.000Z</time></trkpt>
        <trkpt lat="28.8132982" lon="105.9582347"><ele>677.4</ele><time>2026-03-09T22:01:22.000Z</time></trkpt>
        <trkpt lat="28.8133934" lon="105.9582272"><ele>679.92</ele><time>2026-03-09T22:01:44.000Z</time></trkpt>
        <trkpt lat="28.8134861" lon="105.9581807"><ele>684.34</ele><time>2026-03-09T22:02:00.000Z</time></trkpt>
        <trkpt lat="28.8135764" lon="105.9581864"><ele>687.67</ele><time>2026-03-09T22:02:18.000Z</time></trkpt>
        <trkpt lat="28.8136552" lon="105.9582355"><ele>693.49</ele><time>2026-03-09T22:03:04.000Z</time></trkpt>
        <trkpt lat="28.8137432" lon="105.958259"><ele>697.86</ele><time>2026-03-09T22:03:42.000Z</time></trkpt>
        <trkpt lat="28.8138368" lon="105.9582729"><ele>703.34</ele><time>2026-03-09T22:03:58.000Z</time></trkpt>
        <trkpt lat="28.8139334" lon="105.9582736"><ele>708.32</ele><time>2026-03-09T22:04:16.000Z</time></trkpt>
        <trkpt lat="28.8140261" lon="105.9582696"><ele>711.89</ele><time>2026-03-09T22:04:28.000Z</time></trkpt>
        <trkpt lat="28.8141166" lon="105.9582531"><ele>714.26</ele><time>2026-03-09T22:04:38.000Z</time></trkpt>
        <trkpt lat="28.8142139" lon="105.9582452"><ele>715.9</ele><time>2026-03-09T22:04:52.000Z</time></trkpt>
        <trkpt lat="28.8143104" lon="105.9582384"><ele>719.33</ele><time>2026-03-09T22:05:06.000Z</time></trkpt>
        <trkpt lat="28.8144158" lon="105.9582247"><ele>721.43</ele><time>2026-03-09T22:05:20.000Z</time></trkpt>
        <trkpt lat="28.8145119" lon="105.9582471"><ele>723.84</ele><time>2026-03-09T22:05:32.000Z</time></trkpt>
        <trkpt lat="28.8146138" lon="105.9582625"><ele>723.45</ele><time>2026-03-09T22:05:44.000Z</time></trkpt>
        <trkpt lat="28.8146883" lon="105.9581974"><ele>723.45</ele><time>2026-03-09T22:05:52.000Z</time></trkpt>
        <trkpt lat="28.8147465" lon="105.9581094"><ele>722.92</ele><time>2026-03-09T22:06:00.000Z</time></trkpt>
        <trkpt lat="28.8147759" lon="105.9579989"><ele>723.98</ele><time>2026-03-09T22:06:12.000Z</time></trkpt>
        <trkpt lat="28.8148453" lon="105.9579519"><ele>723.59</ele><time>2026-03-09T22:06:42.000Z</time></trkpt>
        <trkpt lat="28.8149458" lon="105.957944"><ele>727.94</ele><time>2026-03-09T22:08:13.000Z</time></trkpt>
        <trkpt lat="28.8149458" lon="105.957944"><ele>727.94</ele><time>2026-03-09T22:09:03.000Z</time></trkpt>
        <trkpt lat="28.8150471" lon="105.9579472"><ele>735.53</ele><time>2026-03-09T22:09:31.000Z</time></trkpt>
        <trkpt lat="28.8150471" lon="105.9579472"><ele>735.53</ele><time>2026-03-09T22:09:59.000Z</time></trkpt>
        <trkpt lat="28.8150612" lon="105.9580583"><ele>743.24</ele><time>2026-03-09T22:10:13.000Z</time></trkpt>
        <trkpt lat="28.8149764" lon="105.9580808"><ele>749.28</ele><time>2026-03-09T22:10:29.000Z</time></trkpt>
        <trkpt lat="28.8149945" lon="105.9581487"><ele>753.98</ele><time>2026-03-09T22:10:55.000Z</time></trkpt>
        <trkpt lat="28.8150853" lon="105.958159"><ele>757.47</ele><time>2026-03-09T22:11:11.000Z</time></trkpt>
        <trkpt lat="28.8151918" lon="105.9581527"><ele>763.15</ele><time>2026-03-09T22:11:37.000Z</time></trkpt>
        <trkpt lat="28.8152914" lon="105.9581864"><ele>765.89</ele><time>2026-03-09T22:11:49.000Z</time></trkpt>
        <trkpt lat="28.815393" lon="105.9582086"><ele>765.72</ele><time>2026-03-09T22:11:59.000Z</time></trkpt>
        <trkpt lat="28.8154915" lon="105.9582574"><ele>764.95</ele><time>2026-03-09T22:12:09.000Z</time></trkpt>
        <trkpt lat="28.8155844" lon="105.9582822"><ele>765.59</ele><time>2026-03-09T22:12:17.000Z</time></trkpt>
        <trkpt lat="28.81567" lon="105.9582082"><ele>766.96</ele><time>2026-03-09T22:12:25.000Z</time></trkpt>
        <trkpt lat="28.8157314" lon="105.9581066"><ele>768.87</ele><time>2026-03-09T22:12:31.000Z</time></trkpt>
        <trkpt lat="28.8158218" lon="105.9580856"><ele>770.03</ele><time>2026-03-09T22:12:43.000Z</time></trkpt>
        <trkpt lat="28.8159182" lon="105.9581131"><ele>769.71</ele><time>2026-03-09T22:12:53.000Z</time></trkpt>
        <trkpt lat="28.8160192" lon="105.9581106"><ele>769.89</ele><time>2026-03-09T22:13:01.000Z</time></trkpt>
        <trkpt lat="28.8161127" lon="105.9580934"><ele>769.28</ele><time>2026-03-09T22:13:09.000Z</time></trkpt>
        <trkpt lat="28.8162151" lon="105.9580671"><ele>767.46</ele><time>2026-03-09T22:13:19.000Z</time></trkpt>
        <trkpt lat="28.8163189" lon="105.958049"><ele>767.31</ele><time>2026-03-09T22:13:27.000Z</time></trkpt>
        <trkpt lat="28.8164117" lon="105.9580155"><ele>769.19</ele><time>2026-03-09T22:13:37.000Z</time></trkpt>
        <trkpt lat="28.8165132" lon="105.9579777"><ele>770.95</ele><time>2026-03-09T22:13:47.000Z</time></trkpt>
        <trkpt lat="28.8166068" lon="105.9579596"><ele>772.4</ele><time>2026-03-09T22:13:55.000Z</time></trkpt>
        <trkpt lat="28.8167019" lon="105.9579687"><ele>773.29</ele><time>2026-03-09T22:14:03.000Z</time></trkpt>
        <trkpt lat="28.8167918" lon="105.9579975"><ele>774.11</ele><time>2026-03-09T22:14:19.000Z</time></trkpt>
        <trkpt lat="28.8168923" lon="105.9579663"><ele>775.98</ele><time>2026-03-09T22:14:31.000Z</time></trkpt>
        <trkpt lat="28.8169869" lon="105.9579518"><ele>776.09</ele><time>2026-03-09T22:14:39.000Z</time></trkpt>
        <trkpt lat="28.8170807" lon="105.9579221"><ele>776.39</ele><time>2026-03-09T22:14:47.000Z</time></trkpt>
        <trkpt lat="28.8171695" lon="105.9578934"><ele>775.1</ele><time>2026-03-09T22:14:57.000Z</time></trkpt>
        <trkpt lat="28.8172595" lon="105.9578799"><ele>772.88</ele><time>2026-03-09T22:15:05.000Z</time></trkpt>
        <trkpt lat="28.8173208" lon="105.9578722"><ele>771.03</ele><time>2026-03-09T22:15:11.000Z</time></trkpt>
        <trkpt lat="28.8174153" lon="105.9578544"><ele>772.2</ele><time>2026-03-09T22:15:27.000Z</time></trkpt>
        <trkpt lat="28.8175036" lon="105.9578089"><ele>772.38</ele><time>2026-03-09T22:15:39.000Z</time></trkpt>
        <trkpt lat="28.8175929" lon="105.9577643"><ele>772.36</ele><time>2026-03-09T22:15:53.000Z</time></trkpt>
        <trkpt lat="28.8176889" lon="105.9577204"><ele>771.96</ele><time>2026-03-09T22:16:09.000Z</time></trkpt>
        <trkpt lat="28.8177861" lon="105.957691"><ele>770.56</ele><time>2026-03-09T22:16:23.000Z</time></trkpt>
        <trkpt lat="28.8178809" lon="105.9577123"><ele>772.35</ele><time>2026-03-09T22:16:33.000Z</time></trkpt>
        <trkpt lat="28.8179827" lon="105.9577356"><ele>772.72</ele><time>2026-03-09T22:16:43.000Z</time></trkpt>
        <trkpt lat="28.8180857" lon="105.9577714"><ele>772.99</ele><time>2026-03-09T22:16:55.000Z</time></trkpt>
        <trkpt lat="28.8181811" lon="105.9577816"><ele>774.53</ele><time>2026-03-09T22:17:05.000Z</time></trkpt>
        <trkpt lat="28.8182885" lon="105.9577323"><ele>777</ele><time>2026-03-09T22:17:15.000Z</time></trkpt>
        <trkpt lat="28.8183857" lon="105.9576965"><ele>778.56</ele><time>2026-03-09T22:17:21.000Z</time></trkpt>
        <trkpt lat="28.8184828" lon="105.9576755"><ele>778.44</ele><time>2026-03-09T22:17:29.000Z</time></trkpt>
        <trkpt lat="28.8185786" lon="105.9576748"><ele>778.36</ele><time>2026-03-09T22:17:39.000Z</time></trkpt>
        <trkpt lat="28.8186577" lon="105.9576204"><ele>779.07</ele><time>2026-03-09T22:17:47.000Z</time></trkpt>
        <trkpt lat="28.8187499" lon="105.9576004"><ele>779.97</ele><time>2026-03-09T22:17:59.000Z</time></trkpt>
        <trkpt lat="28.8188344" lon="105.9575554"><ele>779.27</ele><time>2026-03-09T22:18:07.000Z</time></trkpt>
        <trkpt lat="28.8189122" lon="105.9574983"><ele>779.99</ele><time>2026-03-09T22:18:17.000Z</time></trkpt>
        <trkpt lat="28.8189996" lon="105.9574553"><ele>779</ele><time>2026-03-09T22:18:29.000Z</time></trkpt>
        <trkpt lat="28.819091" lon="105.9574192"><ele>778.45</ele><time>2026-03-09T22:18:43.000Z</time></trkpt>
        <trkpt lat="28.8191771" lon="105.9574554"><ele>777.2</ele><time>2026-03-09T22:18:57.000Z</time></trkpt>
        <trkpt lat="28.819254" lon="105.9575252"><ele>773.41</ele><time>2026-03-09T22:19:09.000Z</time></trkpt>
        <trkpt lat="28.8193502" lon="105.9575523"><ele>770.79</ele><time>2026-03-09T22:19:19.000Z</time></trkpt>
        <trkpt lat="28.8194474" lon="105.9575148"><ele>770.94</ele><time>2026-03-09T22:19:27.000Z</time></trkpt>
        <trkpt lat="28.8195368" lon="105.9574455"><ele>772.06</ele><time>2026-03-09T22:19:37.000Z</time></trkpt>
        <trkpt lat="28.8196213" lon="105.9573668"><ele>773.17</ele><time>2026-03-09T22:19:47.000Z</time></trkpt>
        <trkpt lat="28.8197013" lon="105.9573035"><ele>773.73</ele><time>2026-03-09T22:19:57.000Z</time></trkpt>
        <trkpt lat="28.8197793" lon="105.9572306"><ele>774.59</ele><time>2026-03-09T22:20:09.000Z</time></trkpt>
        <trkpt lat="28.819866" lon="105.957201"><ele>776.32</ele><time>2026-03-09T22:20:23.000Z</time></trkpt>
        <trkpt lat="28.8199532" lon="105.9571427"><ele>778.7</ele><time>2026-03-09T22:20:35.000Z</time></trkpt>
        <trkpt lat="28.8200294" lon="105.9570805"><ele>781.24</ele><time>2026-03-09T22:20:43.000Z</time></trkpt>
        <trkpt lat="28.8201129" lon="105.9570234"><ele>782.59</ele><time>2026-03-09T22:20:53.000Z</time></trkpt>
        <trkpt lat="28.8201459" lon="105.9569256"><ele>783.02</ele><time>2026-03-09T22:21:01.000Z</time></trkpt>
        <trkpt lat="28.8201647" lon="105.9569098"><ele>783.2</ele><time>2026-03-09T22:21:09.000Z</time></trkpt>
        <trkpt lat="28.820188" lon="105.9568246"><ele>781.09</ele><time>2026-03-09T22:21:31.000Z</time></trkpt>
        <trkpt lat="28.8202569" lon="105.9567483"><ele>779.32</ele><time>2026-03-09T22:21:41.000Z</time></trkpt>
        <trkpt lat="28.8203412" lon="105.9566814"><ele>778.23</ele><time>2026-03-09T22:21:49.000Z</time></trkpt>
        <trkpt lat="28.8204137" lon="105.9566929"><ele>779.86</ele><time>2026-03-09T22:21:57.000Z</time></trkpt>
        <trkpt lat="28.8204933" lon="105.9566717"><ele>778.5</ele><time>2026-03-09T22:22:07.000Z</time></trkpt>
        <trkpt lat="28.820555" lon="105.9566718"><ele>778.67</ele><time>2026-03-09T22:22:19.000Z</time></trkpt>
        <trkpt lat="28.8206393" lon="105.95667"><ele>778.29</ele><time>2026-03-09T22:22:43.000Z</time></trkpt>
        <trkpt lat="28.8207381" lon="105.9566586"><ele>779.8</ele><time>2026-03-09T22:23:13.000Z</time></trkpt>
        <trkpt lat="28.8208394" lon="105.9566302"><ele>779.33</ele><time>2026-03-09T22:23:25.000Z</time></trkpt>
        <trkpt lat="28.8209072" lon="105.9565448"><ele>777.31</ele><time>2026-03-09T22:23:43.000Z</time></trkpt>
        <trkpt lat="28.8209446" lon="105.9565092"><ele>774.03</ele><time>2026-03-09T22:23:51.000Z</time></trkpt>
        <trkpt lat="28.8209474" lon="105.9565948"><ele>772.67</ele><time>2026-03-09T22:24:15.000Z</time></trkpt>
        <trkpt lat="28.8209282" lon="105.9566252"><ele>771.28</ele><time>2026-03-09T22:24:19.000Z</time></trkpt>
        <trkpt lat="28.8208502" lon="105.956653"><ele>770.66</ele><time>2026-03-09T22:24:47.000Z</time></trkpt>
        <trkpt lat="28.8207968" lon="105.9567327"><ele>772.04</ele><time>2026-03-09T22:25:05.000Z</time></trkpt>
        <trkpt lat="28.8208548" lon="105.9567476"><ele>774.76</ele><time>2026-03-09T22:25:27.000Z</time></trkpt>
        <trkpt lat="28.8209497" lon="105.9567707"><ele>777.84</ele><time>2026-03-09T22:25:47.000Z</time></trkpt>
        <trkpt lat="28.8210525" lon="105.9567804"><ele>778.5</ele><time>2026-03-09T22:26:11.000Z</time></trkpt>
        <trkpt lat="28.8210457" lon="105.9568495"><ele>780.14</ele><time>2026-03-09T22:26:53.000Z</time></trkpt>
        <trkpt lat="28.8209851" lon="105.9569273"><ele>785.35</ele><time>2026-03-09T22:27:11.000Z</time></trkpt>
        <trkpt lat="28.8209055" lon="105.9570041"><ele>789.56</ele><time>2026-03-09T22:27:29.000Z</time></trkpt>
        <trkpt lat="28.8209287" lon="105.9570813"><ele>794.96</ele><time>2026-03-09T22:28:07.000Z</time></trkpt>
        <trkpt lat="28.82101" lon="105.9571209"><ele>804.13</ele><time>2026-03-09T22:28:29.000Z</time></trkpt>
        <trkpt lat="28.8211024" lon="105.9570841"><ele>811.01</ele><time>2026-03-09T22:28:41.000Z</time></trkpt>
        <trkpt lat="28.8211998" lon="105.9570537"><ele>814.4</ele><time>2026-03-09T22:28:49.000Z</time></trkpt>
        <trkpt lat="28.821292" lon="105.9570092"><ele>814.77</ele><time>2026-03-09T22:28:57.000Z</time></trkpt>
        <trkpt lat="28.8213873" lon="105.9569893"><ele>813.96</ele><time>2026-03-09T22:29:05.000Z</time></trkpt>
        <trkpt lat="28.821448" lon="105.9569184"><ele>814.21</ele><time>2026-03-09T22:29:13.000Z</time></trkpt>
        <trkpt lat="28.821448" lon="105.9569184"><ele>814.21</ele><time>2026-03-09T22:29:55.000Z</time></trkpt>
        <trkpt lat="28.821491" lon="105.9570006"><ele>816.27</ele><time>2026-03-09T22:30:05.000Z</time></trkpt>
        <trkpt lat="28.821491" lon="105.9570006"><ele>816.27</ele><time>2026-03-09T22:30:33.000Z</time></trkpt>
        <trkpt lat="28.8215511" lon="105.9570731"><ele>817.59</ele><time>2026-03-09T22:30:43.000Z</time></trkpt>
        <trkpt lat="28.8216367" lon="105.9571334"><ele>820.43</ele><time>2026-03-09T22:31:01.000Z</time></trkpt>
        <trkpt lat="28.8216941" lon="105.9571406"><ele>824.62</ele><time>2026-03-09T22:31:05.000Z</time></trkpt>
        <trkpt lat="28.8217229" lon="105.9572248"><ele>825.87</ele><time>2026-03-09T22:31:17.000Z</time></trkpt>
        <trkpt lat="28.8217783" lon="105.9573344"><ele>827.46</ele><time>2026-03-09T22:31:25.000Z</time></trkpt>
        <trkpt lat="28.8218632" lon="105.9574281"><ele>830.39</ele><time>2026-03-09T22:31:33.000Z</time></trkpt>
        <trkpt lat="28.8219419" lon="105.9575036"><ele>832.05</ele><time>2026-03-09T22:31:41.000Z</time></trkpt>
        <trkpt lat="28.8220243" lon="105.9575881"><ele>831.2</ele><time>2026-03-09T22:31:49.000Z</time></trkpt>
        <trkpt lat="28.8221011" lon="105.9576677"><ele>830.78</ele><time>2026-03-09T22:31:57.000Z</time></trkpt>
        <trkpt lat="28.8221677" lon="105.9577448"><ele>829.58</ele><time>2026-03-09T22:32:03.000Z</time></trkpt>
        <trkpt lat="28.8222264" lon="105.9578265"><ele>829.27</ele><time>2026-03-09T22:32:09.000Z</time></trkpt>
        <trkpt lat="28.8222681" lon="105.9579415"><ele>827.88</ele><time>2026-03-09T22:32:17.000Z</time></trkpt>
        <trkpt lat="28.8222492" lon="105.9580538"><ele>825.74</ele><time>2026-03-09T22:32:27.000Z</time></trkpt>
        <trkpt lat="28.8222411" lon="105.9581835"><ele>822.01</ele><time>2026-03-09T22:32:33.000Z</time></trkpt>
        <trkpt lat="28.8222367" lon="105.9583032"><ele>819.97</ele><time>2026-03-09T22:32:39.000Z</time></trkpt>
        <trkpt lat="28.8222408" lon="105.9584182"><ele>818.49</ele><time>2026-03-09T22:32:47.000Z</time></trkpt>
        <trkpt lat="28.8222821" lon="105.9585147"><ele>817.53</ele><time>2026-03-09T22:32:57.000Z</time></trkpt>
        <trkpt lat="28.8223354" lon="105.9584806"><ele>817.39</ele><time>2026-03-09T22:33:14.000Z</time></trkpt>
        <trkpt lat="28.8223354" lon="105.9584806"><ele>817.39</ele><time>2026-03-09T22:33:51.000Z</time></trkpt>
        <trkpt lat="28.8222956" lon="105.9585018"><ele>814.12</ele><time>2026-03-09T22:33:53.000Z</time></trkpt>
        <trkpt lat="28.8222956" lon="105.9585018"><ele>814.12</ele><time>2026-03-09T22:33:59.000Z</time></trkpt>
        <trkpt lat="28.8223395" lon="105.9585704"><ele>814.8</ele><time>2026-03-09T22:34:09.000Z</time></trkpt>
        <trkpt lat="28.8223849" lon="105.9586696"><ele>813.96</ele><time>2026-03-09T22:34:15.000Z</time></trkpt>
        <trkpt lat="28.8224221" lon="105.9587811"><ele>812.98</ele><time>2026-03-09T22:34:21.000Z</time></trkpt>
        <trkpt lat="28.8225081" lon="105.9588715"><ele>813.94</ele><time>2026-03-09T22:34:29.000Z</time></trkpt>
        <trkpt lat="28.8225953" lon="105.9589497"><ele>815.64</ele><time>2026-03-09T22:34:39.000Z</time></trkpt>
        <trkpt lat="28.8226766" lon="105.9590274"><ele>818.19</ele><time>2026-03-09T22:34:51.000Z</time></trkpt>
        <trkpt lat="28.822748" lon="105.9590992"><ele>820.82</ele><time>2026-03-09T22:35:05.000Z</time></trkpt>
        <trkpt lat="28.8227873" lon="105.9591978"><ele>823.7</ele><time>2026-03-09T22:35:19.000Z</time></trkpt>
        <trkpt lat="28.8228665" lon="105.9592687"><ele>826.57</ele><time>2026-03-09T22:36:07.000Z</time></trkpt>
        <trkpt lat="28.8229322" lon="105.9593558"><ele>826.87</ele><time>2026-03-09T22:36:13.000Z</time></trkpt>
        <trkpt lat="28.8230009" lon="105.9594529"><ele>827.03</ele><time>2026-03-09T22:36:19.000Z</time></trkpt>
        <trkpt lat="28.823075" lon="105.9595457"><ele>827.38</ele><time>2026-03-09T22:36:25.000Z</time></trkpt>
        <trkpt lat="28.8231613" lon="105.9596249"><ele>828.47</ele><time>2026-03-09T22:36:31.000Z</time></trkpt>
        <trkpt lat="28.8232574" lon="105.9596967"><ele>828.55</ele><time>2026-03-09T22:36:39.000Z</time></trkpt>
        <trkpt lat="28.8233541" lon="105.9596766"><ele>828.86</ele><time>2026-03-09T22:36:45.000Z</time></trkpt>
        <trkpt lat="28.8233542" lon="105.9596728"><ele>828.45</ele><time>2026-03-09T22:36:57.000Z</time></trkpt>
        <trkpt lat="28.8232787" lon="105.9597012"><ele>829.05</ele><time>2026-03-09T22:37:11.000Z</time></trkpt>
        <trkpt lat="28.8231709" lon="105.9597437"><ele>832.38</ele><time>2026-03-09T22:37:21.000Z</time></trkpt>
        <trkpt lat="28.8231042" lon="105.9598278"><ele>834.26</ele><time>2026-03-09T22:37:47.000Z</time></trkpt>
        <trkpt lat="28.8230711" lon="105.9599331"><ele>838.01</ele><time>2026-03-09T22:38:05.000Z</time></trkpt>
        <trkpt lat="28.8231327" lon="105.9599898"><ele>842.8</ele><time>2026-03-09T22:38:33.000Z</time></trkpt>
        <trkpt lat="28.8232214" lon="105.960038"><ele>847.5</ele><time>2026-03-09T22:39:03.000Z</time></trkpt>
        <trkpt lat="28.8232926" lon="105.9601149"><ele>850.95</ele><time>2026-03-09T22:39:23.000Z</time></trkpt>
        <trkpt lat="28.8233672" lon="105.9601955"><ele>854.69</ele><time>2026-03-09T22:39:49.000Z</time></trkpt>
        <trkpt lat="28.8234379" lon="105.9602704"><ele>857.3</ele><time>2026-03-09T22:40:07.000Z</time></trkpt>
        <trkpt lat="28.823495" lon="105.9603537"><ele>859.51</ele><time>2026-03-09T22:40:25.000Z</time></trkpt>
        <trkpt lat="28.8235763" lon="105.9603778"><ele>861.42</ele><time>2026-03-09T22:40:41.000Z</time></trkpt>
        <trkpt lat="28.8236535" lon="105.960423"><ele>863.55</ele><time>2026-03-09T22:41:05.000Z</time></trkpt>
        <trkpt lat="28.8237251" lon="105.9604921"><ele>867.34</ele><time>2026-03-09T22:41:39.000Z</time></trkpt>
        <trkpt lat="28.8237251" lon="105.9604921"><ele>867.34</ele><time>2026-03-09T22:42:51.000Z</time></trkpt>
        <trkpt lat="28.8236915" lon="105.9606006"><ele>870.14</ele><time>2026-03-09T22:43:13.000Z</time></trkpt>
        <trkpt lat="28.8236915" lon="105.9606006"><ele>870.14</ele><time>2026-03-09T22:43:34.000Z</time></trkpt>
        <trkpt lat="28.8236489" lon="105.9607163"><ele>869.81</ele><time>2026-03-09T22:43:46.000Z</time></trkpt>
        <trkpt lat="28.8235667" lon="105.9607828"><ele>869.29</ele><time>2026-03-09T22:43:56.000Z</time></trkpt>
        <trkpt lat="28.8235149" lon="105.9608726"><ele>870.07</ele><time>2026-03-09T22:44:12.000Z</time></trkpt>
        <trkpt lat="28.8234408" lon="105.9609458"><ele>870.15</ele><time>2026-03-09T22:44:28.000Z</time></trkpt>
        <trkpt lat="28.8233506" lon="105.9609621"><ele>872.18</ele><time>2026-03-09T22:44:46.000Z</time></trkpt>
        <trkpt lat="28.8232592" lon="105.9609958"><ele>873.39</ele><time>2026-03-09T22:45:04.000Z</time></trkpt>
        <trkpt lat="28.8231672" lon="105.961044"><ele>876.07</ele><time>2026-03-09T22:45:24.000Z</time></trkpt>
        <trkpt lat="28.8230691" lon="105.9610633"><ele>876.84</ele><time>2026-03-09T22:45:40.000Z</time></trkpt>
        <trkpt lat="28.823064" lon="105.9611405"><ele>877.28</ele><time>2026-03-09T22:46:34.000Z</time></trkpt>
        <trkpt lat="28.8230965" lon="105.9612593"><ele>874.21</ele><time>2026-03-09T22:47:54.000Z</time></trkpt>
        <trkpt lat="28.8231598" lon="105.9613465"><ele>868.58</ele><time>2026-03-09T22:48:22.000Z</time></trkpt>
        <trkpt lat="28.8232244" lon="105.9614355"><ele>864.58</ele><time>2026-03-09T22:48:34.000Z</time></trkpt>
        <trkpt lat="28.8232301" lon="105.9615458"><ele>861.86</ele><time>2026-03-09T22:49:02.000Z</time></trkpt>
        <trkpt lat="28.8231773" lon="105.9616368"><ele>860.01</ele><time>2026-03-09T22:49:18.000Z</time></trkpt>
        <trkpt lat="28.8230902" lon="105.9616934"><ele>861.4</ele><time>2026-03-09T22:49:38.000Z</time></trkpt>
        <trkpt lat="28.8229907" lon="105.9617254"><ele>865.26</ele><time>2026-03-09T22:49:52.000Z</time></trkpt>
        <trkpt lat="28.822894" lon="105.9617081"><ele>866.79</ele><time>2026-03-09T22:50:02.000Z</time></trkpt>
        <trkpt lat="28.8227995" lon="105.961707"><ele>866.77</ele><time>2026-03-09T22:50:14.000Z</time></trkpt>
        <trkpt lat="28.8227724" lon="105.9617169"><ele>864.73</ele><time>2026-03-09T22:50:18.000Z</time></trkpt>
        <trkpt lat="28.8227096" lon="105.9617584"><ele>863.22</ele><time>2026-03-09T22:50:32.000Z</time></trkpt>
        <trkpt lat="28.8226962" lon="105.9617792"><ele>859.01</ele><time>2026-03-09T22:50:34.000Z</time></trkpt>
        <trkpt lat="28.8226393" lon="105.9618223"><ele>856.67</ele><time>2026-03-09T22:50:42.000Z</time></trkpt>
        <trkpt lat="28.8225614" lon="105.9618698"><ele>854.52</ele><time>2026-03-09T22:50:50.000Z</time></trkpt>
        <trkpt lat="28.8224973" lon="105.961917"><ele>852.95</ele><time>2026-03-09T22:51:00.000Z</time></trkpt>
        <trkpt lat="28.8224209" lon="105.9619748"><ele>850.53</ele><time>2026-03-09T22:51:10.000Z</time></trkpt>
        <trkpt lat="28.8223318" lon="105.9620196"><ele>849.71</ele><time>2026-03-09T22:51:18.000Z</time></trkpt>
        <trkpt lat="28.8222354" lon="105.9620729"><ele>849.33</ele><time>2026-03-09T22:51:28.000Z</time></trkpt>
        <trkpt lat="28.8221537" lon="105.9621355"><ele>850.42</ele><time>2026-03-09T22:51:34.000Z</time></trkpt>
        <trkpt lat="28.822046" lon="105.9621838"><ele>850.29</ele><time>2026-03-09T22:51:42.000Z</time></trkpt>
        <trkpt lat="28.8219565" lon="105.9622278"><ele>849.82</ele><time>2026-03-09T22:51:50.000Z</time></trkpt>
        <trkpt lat="28.8218836" lon="105.9623053"><ele>848.7</ele><time>2026-03-09T22:52:00.000Z</time></trkpt>
        <trkpt lat="28.8217996" lon="105.9623687"><ele>848.22</ele><time>2026-03-09T22:52:12.000Z</time></trkpt>
        <trkpt lat="28.8217713" lon="105.9623849"><ele>847.09</ele><time>2026-03-09T22:52:34.000Z</time></trkpt>
        <trkpt lat="28.8217713" lon="105.9623849"><ele>847.09</ele><time>2026-03-09T22:53:15.000Z</time></trkpt>
        <trkpt lat="28.8217329" lon="105.9624522"><ele>842.65</ele><time>2026-03-09T22:53:17.000Z</time></trkpt>
        <trkpt lat="28.8217329" lon="105.9624522"><ele>842.65</ele><time>2026-03-09T22:53:36.000Z</time></trkpt>
        <trkpt lat="28.8216368" lon="105.962499"><ele>836.97</ele><time>2026-03-09T22:53:52.000Z</time></trkpt>
        <trkpt lat="28.8215565" lon="105.962572"><ele>833.62</ele><time>2026-03-09T22:54:08.000Z</time></trkpt>
        <trkpt lat="28.8216104" lon="105.9625906"><ele>827.52</ele><time>2026-03-09T22:54:22.000Z</time></trkpt>
        <trkpt lat="28.821603" lon="105.9626756"><ele>818.32</ele><time>2026-03-09T22:54:34.000Z</time></trkpt>
        <trkpt lat="28.8215456" lon="105.9627496"><ele>814.07</ele><time>2026-03-09T22:54:42.000Z</time></trkpt>
        <trkpt lat="28.821479" lon="105.9628273"><ele>811.77</ele><time>2026-03-09T22:54:48.000Z</time></trkpt>
        <trkpt lat="28.8214088" lon="105.9629043"><ele>808.97</ele><time>2026-03-09T22:54:56.000Z</time></trkpt>
        <trkpt lat="28.8213245" lon="105.9629612"><ele>806.94</ele><time>2026-03-09T22:55:06.000Z</time></trkpt>
        <trkpt lat="28.8212351" lon="105.9630065"><ele>804.08</ele><time>2026-03-09T22:55:20.000Z</time></trkpt>
        <trkpt lat="28.8212351" lon="105.9630065"><ele>804.08</ele><time>2026-03-09T22:56:03.000Z</time></trkpt>
        <trkpt lat="28.8211374" lon="105.9630834"><ele>802.27</ele><time>2026-03-09T22:56:15.000Z</time></trkpt>
        <trkpt lat="28.8211374" lon="105.9630834"><ele>802.27</ele><time>2026-03-09T22:56:28.000Z</time></trkpt>
        <trkpt lat="28.821052" lon="105.963167"><ele>799.41</ele><time>2026-03-09T22:56:36.000Z</time></trkpt>
        <trkpt lat="28.8209637" lon="105.9632222"><ele>796.03</ele><time>2026-03-09T22:56:46.000Z</time></trkpt>
        <trkpt lat="28.8209057" lon="105.963315"><ele>790.12</ele><time>2026-03-09T22:56:58.000Z</time></trkpt>
        <trkpt lat="28.8208584" lon="105.9634187"><ele>782.59</ele><time>2026-03-09T22:57:10.000Z</time></trkpt>
        <trkpt lat="28.8208094" lon="105.9635249"><ele>776.03</ele><time>2026-03-09T22:57:22.000Z</time></trkpt>
        <trkpt lat="28.8207578" lon="105.9636242"><ele>770.14</ele><time>2026-03-09T22:57:34.000Z</time></trkpt>
        <trkpt lat="28.8207147" lon="105.9637065"><ele>764.57</ele><time>2026-03-09T22:57:48.000Z</time></trkpt>
        <trkpt lat="28.8206252" lon="105.9636477"><ele>760.09</ele><time>2026-03-09T22:58:48.000Z</time></trkpt>
        <trkpt lat="28.8205294" lon="105.9636829"><ele>752.44</ele><time>2026-03-09T22:58:56.000Z</time></trkpt>
        <trkpt lat="28.8204397" lon="105.963729"><ele>748.59</ele><time>2026-03-09T22:59:06.000Z</time></trkpt>
        <trkpt lat="28.8203521" lon="105.9637855"><ele>746.86</ele><time>2026-03-09T22:59:22.000Z</time></trkpt>
        <trkpt lat="28.8203418" lon="105.9638609"><ele>744.21</ele><time>2026-03-09T22:59:38.000Z</time></trkpt>
        <trkpt lat="28.8203418" lon="105.9638609"><ele>744.21</ele><time>2026-03-09T23:00:11.000Z</time></trkpt>
        <trkpt lat="28.8204524" lon="105.9639241"><ele>739.47</ele><time>2026-03-09T23:01:19.000Z</time></trkpt>
        <trkpt lat="28.8204524" lon="105.9639241"><ele>739.47</ele><time>2026-03-09T23:01:40.000Z</time></trkpt>
        <trkpt lat="28.8204696" lon="105.9640253"><ele>731.07</ele><time>2026-03-09T23:01:58.000Z</time></trkpt>
        <trkpt lat="28.8204004" lon="105.9639941"><ele>724.91</ele><time>2026-03-09T23:02:12.000Z</time></trkpt>
        <trkpt lat="28.8203098" lon="105.9639531"><ele>720.14</ele><time>2026-03-09T23:02:20.000Z</time></trkpt>
        <trkpt lat="28.8202146" lon="105.9639102"><ele>715.25</ele><time>2026-03-09T23:02:28.000Z</time></trkpt>
        <trkpt lat="28.8201267" lon="105.9638571"><ele>712.52</ele><time>2026-03-09T23:02:36.000Z</time></trkpt>
        <trkpt lat="28.8200219" lon="105.9638544"><ele>709.37</ele><time>2026-03-09T23:02:44.000Z</time></trkpt>
        <trkpt lat="28.8199401" lon="105.9639108"><ele>708.27</ele><time>2026-03-09T23:02:50.000Z</time></trkpt>
        <trkpt lat="28.8198603" lon="105.9639949"><ele>707.77</ele><time>2026-03-09T23:02:58.000Z</time></trkpt>
        <trkpt lat="28.819809" lon="105.9640971"><ele>707.33</ele><time>2026-03-09T23:03:08.000Z</time></trkpt>
        <trkpt lat="28.8197776" lon="105.964212"><ele>704.28</ele><time>2026-03-09T23:03:16.000Z</time></trkpt>
        <trkpt lat="28.8197309" lon="105.964315"><ele>700.88</ele><time>2026-03-09T23:03:26.000Z</time></trkpt>
        <trkpt lat="28.8197103" lon="105.9643338"><ele>696.9</ele><time>2026-03-09T23:03:28.000Z</time></trkpt>
        <trkpt lat="28.8197103" lon="105.9643338"><ele>696.9</ele><time>2026-03-09T23:03:55.000Z</time></trkpt>
        <trkpt lat="28.819778" lon="105.96429"><ele>694.57</ele><time>2026-03-09T23:04:03.000Z</time></trkpt>
        <trkpt lat="28.819778" lon="105.96429"><ele>694.57</ele><time>2026-03-09T23:04:22.000Z</time></trkpt>
        <trkpt lat="28.8197934" lon="105.9643572"><ele>688.6</ele><time>2026-03-09T23:04:30.000Z</time></trkpt>
        <trkpt lat="28.8198922" lon="105.9644054"><ele>686.06</ele><time>2026-03-09T23:04:40.000Z</time></trkpt>
        <trkpt lat="28.8199003" lon="105.9644948"><ele>680.71</ele><time>2026-03-09T23:04:48.000Z</time></trkpt>
        <trkpt lat="28.8198234" lon="105.9645622"><ele>675.88</ele><time>2026-03-09T23:04:52.000Z</time></trkpt>
        <trkpt lat="28.8197568" lon="105.9646823"><ele>671.41</ele><time>2026-03-09T23:04:58.000Z</time></trkpt>
        <trkpt lat="28.8196907" lon="105.9648016"><ele>669.28</ele><time>2026-03-09T23:05:04.000Z</time></trkpt>
        <trkpt lat="28.8196056" lon="105.96489"><ele>667.22</ele><time>2026-03-09T23:05:08.000Z</time></trkpt>
        <trkpt lat="28.8195862" lon="105.9649891"><ele>664.35</ele><time>2026-03-09T23:05:20.000Z</time></trkpt>
        <trkpt lat="28.8196463" lon="105.9650527"><ele>661.81</ele><time>2026-03-09T23:05:28.000Z</time></trkpt>
        <trkpt lat="28.8197032" lon="105.9652041"><ele>658.19</ele><time>2026-03-09T23:05:40.000Z</time></trkpt>
        <trkpt lat="28.8197354" lon="105.9653421"><ele>654.66</ele><time>2026-03-09T23:05:48.000Z</time></trkpt>
        <trkpt lat="28.8197101" lon="105.9654663"><ele>654.66</ele><time>2026-03-09T23:05:58.000Z</time></trkpt>
        <trkpt lat="28.8196982" lon="105.9655179"><ele>655.83</ele><time>2026-03-09T23:06:06.000Z</time></trkpt>
        <trkpt lat="28.8196182" lon="105.9655165"><ele>654.57</ele><time>2026-03-09T23:06:18.000Z</time></trkpt>
        <trkpt lat="28.8195009" lon="105.9654082"><ele>652.36</ele><time>2026-03-09T23:06:22.000Z</time></trkpt>
        <trkpt lat="28.8193956" lon="105.9653457"><ele>648.58</ele><time>2026-03-09T23:06:30.000Z</time></trkpt>
        <trkpt lat="28.8193362" lon="105.9652552"><ele>646.47</ele><time>2026-03-09T23:06:38.000Z</time></trkpt>
        <trkpt lat="28.8192683" lon="105.9651719"><ele>645.46</ele><time>2026-03-09T23:06:46.000Z</time></trkpt>
        <trkpt lat="28.8191758" lon="105.9651247"><ele>646.61</ele><time>2026-03-09T23:06:56.000Z</time></trkpt>
        <trkpt lat="28.8190794" lon="105.9651071"><ele>646.83</ele><time>2026-03-09T23:07:04.000Z</time></trkpt>
        <trkpt lat="28.8189785" lon="105.9650976"><ele>646.79</ele><time>2026-03-09T23:07:12.000Z</time></trkpt>
        <trkpt lat="28.8188688" lon="105.9651107"><ele>647.19</ele><time>2026-03-09T23:07:20.000Z</time></trkpt>
        <trkpt lat="28.8187651" lon="105.9651206"><ele>647.6</ele><time>2026-03-09T23:07:28.000Z</time></trkpt>
        <trkpt lat="28.8186753" lon="105.9650874"><ele>646.55</ele><time>2026-03-09T23:07:36.000Z</time></trkpt>
        <trkpt lat="28.8185792" lon="105.9650459"><ele>646.2</ele><time>2026-03-09T23:07:46.000Z</time></trkpt>
        <trkpt lat="28.8184804" lon="105.9650212"><ele>649.46</ele><time>2026-03-09T23:07:54.000Z</time></trkpt>
        <trkpt lat="28.8183918" lon="105.9650511"><ele>652.76</ele><time>2026-03-09T23:08:02.000Z</time></trkpt>
        <trkpt lat="28.8182891" lon="105.9650918"><ele>653.7</ele><time>2026-03-09T23:08:12.000Z</time></trkpt>
        <trkpt lat="28.8181948" lon="105.9651074"><ele>653.29</ele><time>2026-03-09T23:08:18.000Z</time></trkpt>
        <trkpt lat="28.8180964" lon="105.965093"><ele>653.2</ele><time>2026-03-09T23:08:26.000Z</time></trkpt>
        <trkpt lat="28.8180001" lon="105.9650629"><ele>652.87</ele><time>2026-03-09T23:08:36.000Z</time></trkpt>
        <trkpt lat="28.8179374" lon="105.9649883"><ele>653.15</ele><time>2026-03-09T23:08:46.000Z</time></trkpt>
        <trkpt lat="28.8178461" lon="105.9649899"><ele>652.95</ele><time>2026-03-09T23:08:56.000Z</time></trkpt>
        <trkpt lat="28.8177675" lon="105.9649376"><ele>652.89</ele><time>2026-03-09T23:09:02.000Z</time></trkpt>
        <trkpt lat="28.8176722" lon="105.9648918"><ele>652.93</ele><time>2026-03-09T23:09:20.000Z</time></trkpt>
        <trkpt lat="28.8175694" lon="105.9648637"><ele>651.58</ele><time>2026-03-09T23:09:28.000Z</time></trkpt>
        <trkpt lat="28.8174726" lon="105.9648352"><ele>650.2</ele><time>2026-03-09T23:09:36.000Z</time></trkpt>
        <trkpt lat="28.8173683" lon="105.9648357"><ele>649.11</ele><time>2026-03-09T23:09:44.000Z</time></trkpt>
        <trkpt lat="28.8172739" lon="105.9648358"><ele>647.51</ele><time>2026-03-09T23:09:50.000Z</time></trkpt>
        <trkpt lat="28.8172686" lon="105.9647861"><ele>646.66</ele><time>2026-03-09T23:09:58.000Z</time></trkpt>
        <trkpt lat="28.8172584" lon="105.9646937"><ele>645.25</ele><time>2026-03-09T23:10:06.000Z</time></trkpt>
        <trkpt lat="28.8172006" lon="105.9646046"><ele>644.3</ele><time>2026-03-09T23:10:16.000Z</time></trkpt>
        <trkpt lat="28.8171268" lon="105.9645263"><ele>643.67</ele><time>2026-03-09T23:10:24.000Z</time></trkpt>
        <trkpt lat="28.8170394" lon="105.9644608"><ele>643.17</ele><time>2026-03-09T23:10:32.000Z</time></trkpt>
        <trkpt lat="28.8169526" lon="105.9644023"><ele>643.52</ele><time>2026-03-09T23:10:38.000Z</time></trkpt>
        <trkpt lat="28.8168668" lon="105.9643557"><ele>644.9</ele><time>2026-03-09T23:10:46.000Z</time></trkpt>
        <trkpt lat="28.8167868" lon="105.964395"><ele>645.34</ele><time>2026-03-09T23:10:56.000Z</time></trkpt>
        <trkpt lat="28.8166953" lon="105.9644337"><ele>645.63</ele><time>2026-03-09T23:11:04.000Z</time></trkpt>
        <trkpt lat="28.8166007" lon="105.964448"><ele>646.38</ele><time>2026-03-09T23:11:14.000Z</time></trkpt>
        <trkpt lat="28.8165093" lon="105.9644101"><ele>646.43</ele><time>2026-03-09T23:11:26.000Z</time></trkpt>
        <trkpt lat="28.816423" lon="105.964423"><ele>647.87</ele><time>2026-03-09T23:11:36.000Z</time></trkpt>
        <trkpt lat="28.8163309" lon="105.9644414"><ele>649.25</ele><time>2026-03-09T23:11:48.000Z</time></trkpt>
        <trkpt lat="28.8162273" lon="105.9644494"><ele>649.15</ele><time>2026-03-09T23:11:58.000Z</time></trkpt>
        <trkpt lat="28.8161307" lon="105.9644076"><ele>648.06</ele><time>2026-03-09T23:12:06.000Z</time></trkpt>
        <trkpt lat="28.816054" lon="105.9643262"><ele>647.9</ele><time>2026-03-09T23:12:16.000Z</time></trkpt>
        <trkpt lat="28.8159772" lon="105.9642566"><ele>647.46</ele><time>2026-03-09T23:12:24.000Z</time></trkpt>
        <trkpt lat="28.8159391" lon="105.9641555"><ele>646.27</ele><time>2026-03-09T23:12:32.000Z</time></trkpt>
        <trkpt lat="28.8158909" lon="105.9640832"><ele>644.96</ele><time>2026-03-09T23:12:40.000Z</time></trkpt>
        <trkpt lat="28.8159442" lon="105.9640339"><ele>645</ele><time>2026-03-09T23:12:52.000Z</time></trkpt>
        <trkpt lat="28.8160308" lon="105.9640824"><ele>639.59</ele><time>2026-03-09T23:13:00.000Z</time></trkpt>
        <trkpt lat="28.8160914" lon="105.964186"><ele>633.32</ele><time>2026-03-09T23:13:04.000Z</time></trkpt>
        <trkpt lat="28.8160575" lon="105.9642812"><ele>628.39</ele><time>2026-03-09T23:13:08.000Z</time></trkpt>
        <trkpt lat="28.8159733" lon="105.9643458"><ele>625.18</ele><time>2026-03-09T23:13:14.000Z</time></trkpt>
        <trkpt lat="28.8158696" lon="105.9643484"><ele>623.92</ele><time>2026-03-09T23:13:20.000Z</time></trkpt>
        <trkpt lat="28.8157664" lon="105.9642941"><ele>624.87</ele><time>2026-03-09T23:13:26.000Z</time></trkpt>
        <trkpt lat="28.8156746" lon="105.9642388"><ele>627.06</ele><time>2026-03-09T23:13:34.000Z</time></trkpt>
        <trkpt lat="28.815643" lon="105.9641317"><ele>632</ele><time>2026-03-09T23:13:46.000Z</time></trkpt>
        <trkpt lat="28.8156557" lon="105.9640155"><ele>636.59</ele><time>2026-03-09T23:14:12.000Z</time></trkpt>
        <trkpt lat="28.8157304" lon="105.9639496"><ele>639.47</ele><time>2026-03-09T23:14:36.000Z</time></trkpt>
        <trkpt lat="28.8157688" lon="105.9638538"><ele>643.96</ele><time>2026-03-09T23:14:58.000Z</time></trkpt>
        <trkpt lat="28.815847" lon="105.9637977"><ele>647.46</ele><time>2026-03-09T23:15:20.000Z</time></trkpt>
        <trkpt lat="28.815923" lon="105.9637237"><ele>652.44</ele><time>2026-03-09T23:15:42.000Z</time></trkpt>
        <trkpt lat="28.8159888" lon="105.9636393"><ele>654.94</ele><time>2026-03-09T23:15:58.000Z</time></trkpt>
        <trkpt lat="28.8160787" lon="105.9635793"><ele>658.59</ele><time>2026-03-09T23:16:12.000Z</time></trkpt>
        <trkpt lat="28.8161535" lon="105.9635124"><ele>661.82</ele><time>2026-03-09T23:16:22.000Z</time></trkpt>
        <trkpt lat="28.8162167" lon="105.9634227"><ele>665.65</ele><time>2026-03-09T23:16:34.000Z</time></trkpt>
        <trkpt lat="28.8162028" lon="105.9633265"><ele>669.88</ele><time>2026-03-09T23:16:48.000Z</time></trkpt>
        <trkpt lat="28.8162555" lon="105.9632629"><ele>673.55</ele><time>2026-03-09T23:17:20.000Z</time></trkpt>
        <trkpt lat="28.8163306" lon="105.9632094"><ele>675.47</ele><time>2026-03-09T23:17:40.000Z</time></trkpt>
        <trkpt lat="28.8163316" lon="105.9631227"><ele>679.67</ele><time>2026-03-09T23:18:02.000Z</time></trkpt>
        <trkpt lat="28.8163925" lon="105.9631226"><ele>684.22</ele><time>2026-03-09T23:18:20.000Z</time></trkpt>
        <trkpt lat="28.8164794" lon="105.963132"><ele>689.21</ele><time>2026-03-09T23:18:46.000Z</time></trkpt>
        <trkpt lat="28.8165561" lon="105.9630793"><ele>693.12</ele><time>2026-03-09T23:19:17.000Z</time></trkpt>
        <trkpt lat="28.8165396" lon="105.9629837"><ele>698.43</ele><time>2026-03-09T23:19:41.000Z</time></trkpt>
        <trkpt lat="28.8164735" lon="105.9628936"><ele>704.54</ele><time>2026-03-09T23:19:55.000Z</time></trkpt>
        <trkpt lat="28.816413" lon="105.9627948"><ele>709.42</ele><time>2026-03-09T23:20:37.000Z</time></trkpt>
        <trkpt lat="28.8163249" lon="105.96273"><ele>714.45</ele><time>2026-03-09T23:20:53.000Z</time></trkpt>
        <trkpt lat="28.8162114" lon="105.9627002"><ele>718.88</ele><time>2026-03-09T23:21:03.000Z</time></trkpt>
        <trkpt lat="28.8161069" lon="105.9626604"><ele>722.43</ele><time>2026-03-09T23:21:15.000Z</time></trkpt>
        <trkpt lat="28.816145" lon="105.962634"><ele>722.98</ele><time>2026-03-09T23:21:47.000Z</time></trkpt>
        <trkpt lat="28.8161522" lon="105.9625475"><ele>727.18</ele><time>2026-03-09T23:22:09.000Z</time></trkpt>
        <trkpt lat="28.8162587" lon="105.9625336"><ele>730.09</ele><time>2026-03-09T23:23:39.000Z</time></trkpt>
        <trkpt lat="28.8163506" lon="105.9624972"><ele>741.57</ele><time>2026-03-09T23:24:07.000Z</time></trkpt>
        <trkpt lat="28.8163506" lon="105.9624972"><ele>741.57</ele><time>2026-03-09T23:24:33.000Z</time></trkpt>
        <trkpt lat="28.8163506" lon="105.9624972"><ele>741.57</ele><time>2026-03-09T23:24:49.000Z</time></trkpt>
        <trkpt lat="28.8163506" lon="105.9624972"><ele>741.57</ele><time>2026-03-09T23:25:15.000Z</time></trkpt>
        <trkpt lat="28.8163506" lon="105.9624972"><ele>741.57</ele><time>2026-03-09T23:25:51.000Z</time></trkpt>
        <trkpt lat="28.8163506" lon="105.9624972"><ele>741.57</ele><time>2026-03-09T23:26:17.000Z</time></trkpt>
        <trkpt lat="28.8164442" lon="105.9624901"><ele>749.54</ele><time>2026-03-09T23:26:29.000Z</time></trkpt>
        <trkpt lat="28.8164442" lon="105.9624901"><ele>749.54</ele><time>2026-03-09T23:26:37.000Z</time></trkpt>
        <trkpt lat="28.8165303" lon="105.9624441"><ele>755.24</ele><time>2026-03-09T23:26:53.000Z</time></trkpt>
        <trkpt lat="28.816629" lon="105.9624463"><ele>759.18</ele><time>2026-03-09T23:27:05.000Z</time></trkpt>
        <trkpt lat="28.8167261" lon="105.9624526"><ele>762.16</ele><time>2026-03-09T23:27:31.000Z</time></trkpt>
        <trkpt lat="28.8167636" lon="105.9624555"><ele>766.99</ele><time>2026-03-09T23:27:35.000Z</time></trkpt>
        <trkpt lat="28.8168406" lon="105.9624342"><ele>770.01</ele><time>2026-03-09T23:28:13.000Z</time></trkpt>
        <trkpt lat="28.8168361" lon="105.9623537"><ele>773.13</ele><time>2026-03-09T23:28:47.000Z</time></trkpt>
        <trkpt lat="28.8168051" lon="105.9622505"><ele>779.8</ele><time>2026-03-09T23:29:23.000Z</time></trkpt>
        <trkpt lat="28.816736" lon="105.9621678"><ele>789.07</ele><time>2026-03-09T23:29:35.000Z</time></trkpt>
        <trkpt lat="28.8166413" lon="105.9621387"><ele>794.61</ele><time>2026-03-09T23:29:47.000Z</time></trkpt>
        <trkpt lat="28.8165323" lon="105.9621313"><ele>800.12</ele><time>2026-03-09T23:29:59.000Z</time></trkpt>
        <trkpt lat="28.8165323" lon="105.9621313"><ele>800.12</ele><time>2026-03-09T23:30:39.000Z</time></trkpt>
        <trkpt lat="28.8164253" lon="105.9621268"><ele>803.19</ele><time>2026-03-09T23:30:45.000Z</time></trkpt>
        <trkpt lat="28.8164253" lon="105.9621268"><ele>803.19</ele><time>2026-03-09T23:31:15.000Z</time></trkpt>
        <trkpt lat="28.8163208" lon="105.9621217"><ele>804.78</ele><time>2026-03-09T23:31:25.000Z</time></trkpt>
        <trkpt lat="28.8162178" lon="105.9620738"><ele>808.83</ele><time>2026-03-09T23:31:37.000Z</time></trkpt>
        <trkpt lat="28.8161264" lon="105.9620212"><ele>810.61</ele><time>2026-03-09T23:31:45.000Z</time></trkpt>
        <trkpt lat="28.8160344" lon="105.9619694"><ele>812.17</ele><time>2026-03-09T23:31:55.000Z</time></trkpt>
        <trkpt lat="28.8159441" lon="105.9619586"><ele>814.74</ele><time>2026-03-09T23:32:03.000Z</time></trkpt>
        <trkpt lat="28.8158498" lon="105.9619517"><ele>817.15</ele><time>2026-03-09T23:32:11.000Z</time></trkpt>
        <trkpt lat="28.8157586" lon="105.9619429"><ele>819.7</ele><time>2026-03-09T23:32:19.000Z</time></trkpt>
        <trkpt lat="28.8156665" lon="105.9619596"><ele>821.29</ele><time>2026-03-09T23:32:27.000Z</time></trkpt>
        <trkpt lat="28.8155745" lon="105.9619213"><ele>821.94</ele><time>2026-03-09T23:32:35.000Z</time></trkpt>
        <trkpt lat="28.8155817" lon="105.9618319"><ele>821.77</ele><time>2026-03-09T23:32:53.000Z</time></trkpt>
        <trkpt lat="28.8156763" lon="105.9617824"><ele>820.82</ele><time>2026-03-09T23:33:03.000Z</time></trkpt>
        <trkpt lat="28.8157868" lon="105.96175"><ele>819.09</ele><time>2026-03-09T23:33:13.000Z</time></trkpt>
        <trkpt lat="28.8158961" lon="105.9617187"><ele>818.32</ele><time>2026-03-09T23:33:23.000Z</time></trkpt>
        <trkpt lat="28.8160012" lon="105.9616642"><ele>820.36</ele><time>2026-03-09T23:33:37.000Z</time></trkpt>
        <trkpt lat="28.8161031" lon="105.961623"><ele>823.16</ele><time>2026-03-09T23:33:49.000Z</time></trkpt>
        <trkpt lat="28.8161861" lon="105.9615569"><ele>823.44</ele><time>2026-03-09T23:34:05.000Z</time></trkpt>
        <trkpt lat="28.8161945" lon="105.9614607"><ele>825.21</ele><time>2026-03-09T23:34:19.000Z</time></trkpt>
        <trkpt lat="28.8161128" lon="105.9613846"><ele>828.31</ele><time>2026-03-09T23:34:29.000Z</time></trkpt>
        <trkpt lat="28.8160388" lon="105.9612954"><ele>831.57</ele><time>2026-03-09T23:34:39.000Z</time></trkpt>
        <trkpt lat="28.8159805" lon="105.9611849"><ele>833.4</ele><time>2026-03-09T23:35:27.000Z</time></trkpt>
        <trkpt lat="28.8159886" lon="105.9610661"><ele>835.11</ele><time>2026-03-09T23:35:41.000Z</time></trkpt>
        <trkpt lat="28.8159832" lon="105.9609433"><ele>836.99</ele><time>2026-03-09T23:35:57.000Z</time></trkpt>
        <trkpt lat="28.8159864" lon="105.9608273"><ele>837.97</ele><time>2026-03-09T23:36:07.000Z</time></trkpt>
        <trkpt lat="28.8160291" lon="105.9607193"><ele>838.29</ele><time>2026-03-09T23:36:19.000Z</time></trkpt>
        <trkpt lat="28.8160821" lon="105.9606211"><ele>839.07</ele><time>2026-03-09T23:36:33.000Z</time></trkpt>
        <trkpt lat="28.8161591" lon="105.9605426"><ele>841.78</ele><time>2026-03-09T23:36:47.000Z</time></trkpt>
        <trkpt lat="28.8161457" lon="105.9604548"><ele>847.95</ele><time>2026-03-09T23:37:03.000Z</time></trkpt>
        <trkpt lat="28.8160636" lon="105.9604097"><ele>853</ele><time>2026-03-09T23:37:13.000Z</time></trkpt>
        <trkpt lat="28.8159666" lon="105.9603567"><ele>857.61</ele><time>2026-03-09T23:37:25.000Z</time></trkpt>
        <trkpt lat="28.8158597" lon="105.9603502"><ele>862.57</ele><time>2026-03-09T23:38:11.000Z</time></trkpt>
        <trkpt lat="28.8158" lon="105.9603344"><ele>867.33</ele><time>2026-03-09T23:38:17.000Z</time></trkpt>
        <trkpt lat="28.8157195" lon="105.9603768"><ele>868.46</ele><time>2026-03-09T23:38:53.000Z</time></trkpt>
        <trkpt lat="28.8156215" lon="105.9604086"><ele>868.23</ele><time>2026-03-09T23:39:03.000Z</time></trkpt>
        <trkpt lat="28.8155393" lon="105.9603752"><ele>865.99</ele><time>2026-03-09T23:39:13.000Z</time></trkpt>
        <trkpt lat="28.8154949" lon="105.9602816"><ele>864.11</ele><time>2026-03-09T23:39:23.000Z</time></trkpt>
        <trkpt lat="28.8154554" lon="105.9601713"><ele>862.16</ele><time>2026-03-09T23:39:37.000Z</time></trkpt>
        <trkpt lat="28.8153696" lon="105.9601239"><ele>863</ele><time>2026-03-09T23:39:45.000Z</time></trkpt>
        <trkpt lat="28.8152643" lon="105.9600997"><ele>863.37</ele><time>2026-03-09T23:39:55.000Z</time></trkpt>
        <trkpt lat="28.81516" lon="105.9601079"><ele>864.42</ele><time>2026-03-09T23:40:05.000Z</time></trkpt>
        <trkpt lat="28.8150688" lon="105.9600858"><ele>864.8</ele><time>2026-03-09T23:40:13.000Z</time></trkpt>
        <trkpt lat="28.81499" lon="105.9600295"><ele>865.71</ele><time>2026-03-09T23:40:21.000Z</time></trkpt>
        <trkpt lat="28.8148994" lon="105.9599985"><ele>866.33</ele><time>2026-03-09T23:40:33.000Z</time></trkpt>
        <trkpt lat="28.8148587" lon="105.9599088"><ele>863.94</ele><time>2026-03-09T23:40:43.000Z</time></trkpt>
        <trkpt lat="28.814903" lon="105.9598052"><ele>861.51</ele><time>2026-03-09T23:40:53.000Z</time></trkpt>
        <trkpt lat="28.8149959" lon="105.9597821"><ele>858.82</ele><time>2026-03-09T23:41:01.000Z</time></trkpt>
        <trkpt lat="28.8151159" lon="105.9597805"><ele>856.91</ele><time>2026-03-09T23:41:09.000Z</time></trkpt>
        <trkpt lat="28.8152274" lon="105.9597575"><ele>857.1</ele><time>2026-03-09T23:41:17.000Z</time></trkpt>
        <trkpt lat="28.8153264" lon="105.9597235"><ele>858.19</ele><time>2026-03-09T23:41:23.000Z</time></trkpt>
        <trkpt lat="28.8154172" lon="105.9596894"><ele>858.41</ele><time>2026-03-09T23:41:31.000Z</time></trkpt>
        <trkpt lat="28.8154355" lon="105.9595986"><ele>856.9</ele><time>2026-03-09T23:41:43.000Z</time></trkpt>
        <trkpt lat="28.8154908" lon="105.9595059"><ele>854.1</ele><time>2026-03-09T23:41:55.000Z</time></trkpt>
        <trkpt lat="28.8155676" lon="105.9594245"><ele>850.21</ele><time>2026-03-09T23:42:05.000Z</time></trkpt>
        <trkpt lat="28.8156256" lon="105.9593359"><ele>847.76</ele><time>2026-03-09T23:42:13.000Z</time></trkpt>
        <trkpt lat="28.8156341" lon="105.9592351"><ele>846.32</ele><time>2026-03-09T23:42:19.000Z</time></trkpt>
        <trkpt lat="28.8156423" lon="105.9591246"><ele>844.15</ele><time>2026-03-09T23:42:27.000Z</time></trkpt>
        <trkpt lat="28.8155799" lon="105.9590613"><ele>841.77</ele><time>2026-03-09T23:42:47.000Z</time></trkpt>
        <trkpt lat="28.8155799" lon="105.9590613"><ele>841.77</ele><time>2026-03-09T23:44:11.000Z</time></trkpt>
        <trkpt lat="28.8155799" lon="105.9590613"><ele>841.77</ele><time>2026-03-09T23:44:19.000Z</time></trkpt>
        <trkpt lat="28.8155799" lon="105.9590613"><ele>841.77</ele><time>2026-03-09T23:44:43.000Z</time></trkpt>
        <trkpt lat="28.8156169" lon="105.9591525"><ele>837.19</ele><time>2026-03-09T23:44:45.000Z</time></trkpt>
        <trkpt lat="28.8156169" lon="105.9591525"><ele>837.19</ele><time>2026-03-09T23:45:02.000Z</time></trkpt>
        <trkpt lat="28.8156169" lon="105.9591525"><ele>837.19</ele><time>2026-03-09T23:45:33.000Z</time></trkpt>
        <trkpt lat="28.8156321" lon="105.9592551"><ele>839.42</ele><time>2026-03-09T23:45:35.000Z</time></trkpt>
        <trkpt lat="28.8156321" lon="105.9592551"><ele>839.42</ele><time>2026-03-09T23:45:40.000Z</time></trkpt>
        <trkpt lat="28.8156361" lon="105.9593649"><ele>841.07</ele><time>2026-03-09T23:45:58.000Z</time></trkpt>
        <trkpt lat="28.8155778" lon="105.959442"><ele>843.93</ele><time>2026-03-09T23:46:10.000Z</time></trkpt>
        <trkpt lat="28.8155305" lon="105.9595383"><ele>844.99</ele><time>2026-03-09T23:46:20.000Z</time></trkpt>
        <trkpt lat="28.8154936" lon="105.9596477"><ele>842.37</ele><time>2026-03-09T23:46:30.000Z</time></trkpt>
        <trkpt lat="28.8154459" lon="105.9597433"><ele>840.25</ele><time>2026-03-09T23:46:40.000Z</time></trkpt>
        <trkpt lat="28.8153675" lon="105.9598143"><ele>839.21</ele><time>2026-03-09T23:46:48.000Z</time></trkpt>
        <trkpt lat="28.8152724" lon="105.9598638"><ele>840.27</ele><time>2026-03-09T23:46:56.000Z</time></trkpt>
        <trkpt lat="28.8151762" lon="105.9598612"><ele>842.18</ele><time>2026-03-09T23:47:08.000Z</time></trkpt>
        <trkpt lat="28.8150681" lon="105.9598246"><ele>845.89</ele><time>2026-03-09T23:47:16.000Z</time></trkpt>
        <trkpt lat="28.8149702" lon="105.9598149"><ele>849.85</ele><time>2026-03-09T23:47:24.000Z</time></trkpt>
        <trkpt lat="28.8149009" lon="105.9598827"><ele>851.14</ele><time>2026-03-09T23:47:34.000Z</time></trkpt>
        <trkpt lat="28.8148343" lon="105.9599614"><ele>851.15</ele><time>2026-03-09T23:47:44.000Z</time></trkpt>
        <trkpt lat="28.8148125" lon="105.9598867"><ele>851.77</ele><time>2026-03-09T23:47:52.000Z</time></trkpt>
        <trkpt lat="28.8147922" lon="105.9597627"><ele>849.74</ele><time>2026-03-09T23:48:00.000Z</time></trkpt>
        <trkpt lat="28.8147815" lon="105.9597121"><ele>847.94</ele><time>2026-03-09T23:48:02.000Z</time></trkpt>
        <trkpt lat="28.8147378" lon="105.9596421"><ele>845.92</ele><time>2026-03-09T23:48:08.000Z</time></trkpt>
        <trkpt lat="28.8146605" lon="105.9595816"><ele>843.52</ele><time>2026-03-09T23:48:14.000Z</time></trkpt>
        <trkpt lat="28.8145526" lon="105.9595238"><ele>841.67</ele><time>2026-03-09T23:48:22.000Z</time></trkpt>
        <trkpt lat="28.8144347" lon="105.9594922"><ele>839.08</ele><time>2026-03-09T23:48:30.000Z</time></trkpt>
        <trkpt lat="28.8143181" lon="105.959507"><ele>836.38</ele><time>2026-03-09T23:48:36.000Z</time></trkpt>
        <trkpt lat="28.8142203" lon="105.959534"><ele>834.19</ele><time>2026-03-09T23:48:40.000Z</time></trkpt>
        <trkpt lat="28.8141177" lon="105.9595736"><ele>833.19</ele><time>2026-03-09T23:48:48.000Z</time></trkpt>
        <trkpt lat="28.8140252" lon="105.9596084"><ele>831.64</ele><time>2026-03-09T23:48:54.000Z</time></trkpt>
        <trkpt lat="28.813938" lon="105.9596787"><ele>831.91</ele><time>2026-03-09T23:49:02.000Z</time></trkpt>
        <trkpt lat="28.8138447" lon="105.9597361"><ele>831.31</ele><time>2026-03-09T23:49:10.000Z</time></trkpt>
        <trkpt lat="28.8137365" lon="105.9597416"><ele>830.51</ele><time>2026-03-09T23:49:18.000Z</time></trkpt>
        <trkpt lat="28.8136475" lon="105.9596986"><ele>828.99</ele><time>2026-03-09T23:49:22.000Z</time></trkpt>
        <trkpt lat="28.813556" lon="105.9596827"><ele>828.4</ele><time>2026-03-09T23:49:28.000Z</time></trkpt>
        <trkpt lat="28.8134693" lon="105.9597024"><ele>826.83</ele><time>2026-03-09T23:49:34.000Z</time></trkpt>
        <trkpt lat="28.813362" lon="105.9596926"><ele>824.65</ele><time>2026-03-09T23:49:44.000Z</time></trkpt>
        <trkpt lat="28.8132472" lon="105.9596827"><ele>821.74</ele><time>2026-03-09T23:49:52.000Z</time></trkpt>
        <trkpt lat="28.8131448" lon="105.9596939"><ele>818.61</ele><time>2026-03-09T23:49:58.000Z</time></trkpt>
        <trkpt lat="28.8130143" lon="105.9596986"><ele>815.92</ele><time>2026-03-09T23:50:04.000Z</time></trkpt>
        <trkpt lat="28.8129076" lon="105.9596996"><ele>815.25</ele><time>2026-03-09T23:50:08.000Z</time></trkpt>
        <trkpt lat="28.8127938" lon="105.9596737"><ele>815.52</ele><time>2026-03-09T23:50:12.000Z</time></trkpt>
        <trkpt lat="28.8126905" lon="105.9596287"><ele>816.8</ele><time>2026-03-09T23:50:18.000Z</time></trkpt>
        <trkpt lat="28.8125864" lon="105.9595906"><ele>817.06</ele><time>2026-03-09T23:50:26.000Z</time></trkpt>
        <trkpt lat="28.8124864" lon="105.9595834"><ele>816.45</ele><time>2026-03-09T23:50:34.000Z</time></trkpt>
        <trkpt lat="28.8124052" lon="105.9595307"><ele>815.79</ele><time>2026-03-09T23:50:42.000Z</time></trkpt>
        <trkpt lat="28.8123422" lon="105.9594532"><ele>814.99</ele><time>2026-03-09T23:50:48.000Z</time></trkpt>
        <trkpt lat="28.8122698" lon="105.959386"><ele>814.2</ele><time>2026-03-09T23:50:56.000Z</time></trkpt>
        <trkpt lat="28.8121589" lon="105.9593594"><ele>813.54</ele><time>2026-03-09T23:51:04.000Z</time></trkpt>
        <trkpt lat="28.8120419" lon="105.9593444"><ele>812.43</ele><time>2026-03-09T23:51:10.000Z</time></trkpt>
        <trkpt lat="28.8119261" lon="105.9593259"><ele>811.29</ele><time>2026-03-09T23:51:16.000Z</time></trkpt>
        <trkpt lat="28.8118316" lon="105.9592901"><ele>809.53</ele><time>2026-03-09T23:51:20.000Z</time></trkpt>
        <trkpt lat="28.8117261" lon="105.9592819"><ele>808.75</ele><time>2026-03-09T23:51:26.000Z</time></trkpt>
        <trkpt lat="28.8116071" lon="105.9592862"><ele>808.01</ele><time>2026-03-09T23:51:32.000Z</time></trkpt>
        <trkpt lat="28.811479" lon="105.9592627"><ele>805.21</ele><time>2026-03-09T23:51:38.000Z</time></trkpt>
        <trkpt lat="28.811373" lon="105.9592372"><ele>804.48</ele><time>2026-03-09T23:51:44.000Z</time></trkpt>
        <trkpt lat="28.8112738" lon="105.9592311"><ele>802.74</ele><time>2026-03-09T23:51:52.000Z</time></trkpt>
        <trkpt lat="28.8111942" lon="105.9591744"><ele>800.23</ele><time>2026-03-09T23:51:58.000Z</time></trkpt>
        <trkpt lat="28.8111304" lon="105.9590925"><ele>797.53</ele><time>2026-03-09T23:52:04.000Z</time></trkpt>
        <trkpt lat="28.8110669" lon="105.9590034"><ele>795.21</ele><time>2026-03-09T23:52:08.000Z</time></trkpt>
        <trkpt lat="28.8109568" lon="105.9589368"><ele>793.93</ele><time>2026-03-09T23:52:14.000Z</time></trkpt>
        <trkpt lat="28.8108425" lon="105.9589544"><ele>793.3</ele><time>2026-03-09T23:52:22.000Z</time></trkpt>
        <trkpt lat="28.8107319" lon="105.9590057"><ele>792.77</ele><time>2026-03-09T23:52:30.000Z</time></trkpt>
        <trkpt lat="28.8107319" lon="105.9590057"><ele>792.77</ele><time>2026-03-09T23:53:29.000Z</time></trkpt>
        <trkpt lat="28.8105489" lon="105.9589998"><ele>793.03</ele><time>2026-03-09T23:53:49.000Z</time></trkpt>
        <trkpt lat="28.8105489" lon="105.9589998"><ele>793.03</ele><time>2026-03-09T23:53:56.000Z</time></trkpt>
        <trkpt lat="28.8104624" lon="105.9589593"><ele>792.27</ele><time>2026-03-09T23:54:02.000Z</time></trkpt>
        <trkpt lat="28.8103455" lon="105.9589016"><ele>792.15</ele><time>2026-03-09T23:54:06.000Z</time></trkpt>
        <trkpt lat="28.8102318" lon="105.9588841"><ele>793.25</ele><time>2026-03-09T23:54:10.000Z</time></trkpt>
        <trkpt lat="28.8101326" lon="105.9589423"><ele>795.83</ele><time>2026-03-09T23:54:16.000Z</time></trkpt>
        <trkpt lat="28.8100629" lon="105.9590291"><ele>795.91</ele><time>2026-03-09T23:54:22.000Z</time></trkpt>
        <trkpt lat="28.8100088" lon="105.9591385"><ele>795.48</ele><time>2026-03-09T23:54:28.000Z</time></trkpt>
        <trkpt lat="28.8099619" lon="105.9592436"><ele>794.12</ele><time>2026-03-09T23:54:34.000Z</time></trkpt>
        <trkpt lat="28.8098941" lon="105.9593506"><ele>791.78</ele><time>2026-03-09T23:54:40.000Z</time></trkpt>
        <trkpt lat="28.8098249" lon="105.9594653"><ele>788.71</ele><time>2026-03-09T23:54:46.000Z</time></trkpt>
        <trkpt lat="28.8097288" lon="105.9594858"><ele>786.29</ele><time>2026-03-09T23:54:56.000Z</time></trkpt>
        <trkpt lat="28.8096964" lon="105.9593754"><ele>781.1</ele><time>2026-03-09T23:55:06.000Z</time></trkpt>
        <trkpt lat="28.8096936" lon="105.9592233"><ele>775.31</ele><time>2026-03-09T23:55:12.000Z</time></trkpt>
        <trkpt lat="28.8096588" lon="105.9590786"><ele>771.33</ele><time>2026-03-09T23:55:18.000Z</time></trkpt>
        <trkpt lat="28.8095733" lon="105.9589894"><ele>769.1</ele><time>2026-03-09T23:55:24.000Z</time></trkpt>
        <trkpt lat="28.8094674" lon="105.9589638"><ele>766.25</ele><time>2026-03-09T23:55:28.000Z</time></trkpt>
        <trkpt lat="28.8093328" lon="105.9589652"><ele>765.63</ele><time>2026-03-09T23:55:34.000Z</time></trkpt>
        <trkpt lat="28.8091815" lon="105.9589793"><ele>765.43</ele><time>2026-03-09T23:55:40.000Z</time></trkpt>
        <trkpt lat="28.8090457" lon="105.9589477"><ele>765.51</ele><time>2026-03-09T23:55:42.000Z</time></trkpt>
        <trkpt lat="28.8089677" lon="105.9588703"><ele>768.08</ele><time>2026-03-09T23:55:50.000Z</time></trkpt>
        <trkpt lat="28.8089201" lon="105.958753"><ele>768.52</ele><time>2026-03-09T23:55:58.000Z</time></trkpt>
        <trkpt lat="28.8088533" lon="105.9586722"><ele>771.15</ele><time>2026-03-09T23:56:08.000Z</time></trkpt>
        <trkpt lat="28.8087681" lon="105.9587012"><ele>775.2</ele><time>2026-03-09T23:56:20.000Z</time></trkpt>
        <trkpt lat="28.8086999" lon="105.9587909"><ele>774.93</ele><time>2026-03-09T23:56:28.000Z</time></trkpt>
        <trkpt lat="28.8086394" lon="105.9588884"><ele>774.08</ele><time>2026-03-09T23:56:36.000Z</time></trkpt>
        <trkpt lat="28.8085704" lon="105.9589797"><ele>773.71</ele><time>2026-03-09T23:56:50.000Z</time></trkpt>
        <trkpt lat="28.8084801" lon="105.9590341"><ele>773.57</ele><time>2026-03-09T23:57:02.000Z</time></trkpt>
        <trkpt lat="28.8083823" lon="105.9590866"><ele>774.05</ele><time>2026-03-09T23:57:12.000Z</time></trkpt>
        <trkpt lat="28.8082784" lon="105.9591221"><ele>773.62</ele><time>2026-03-09T23:57:20.000Z</time></trkpt>
        <trkpt lat="28.8081813" lon="105.9591158"><ele>771.02</ele><time>2026-03-09T23:57:28.000Z</time></trkpt>
        <trkpt lat="28.8080855" lon="105.9590543"><ele>769.2</ele><time>2026-03-09T23:57:36.000Z</time></trkpt>
        <trkpt lat="28.8079939" lon="105.9589536"><ele>767.22</ele><time>2026-03-09T23:57:44.000Z</time></trkpt>
        <trkpt lat="28.8078835" lon="105.9588753"><ele>766.74</ele><time>2026-03-09T23:57:52.000Z</time></trkpt>
        <trkpt lat="28.8077822" lon="105.9589074"><ele>767.56</ele><time>2026-03-09T23:57:58.000Z</time></trkpt>
        <trkpt lat="28.8076926" lon="105.958892"><ele>767.39</ele><time>2026-03-09T23:58:06.000Z</time></trkpt>
        <trkpt lat="28.8075906" lon="105.9588821"><ele>764.16</ele><time>2026-03-09T23:58:12.000Z</time></trkpt>
        <trkpt lat="28.8074904" lon="105.958895"><ele>762.56</ele><time>2026-03-09T23:58:18.000Z</time></trkpt>
        <trkpt lat="28.8073935" lon="105.9589065"><ele>761.61</ele><time>2026-03-09T23:58:24.000Z</time></trkpt>
        <trkpt lat="28.8073111" lon="105.9588466"><ele>760.12</ele><time>2026-03-09T23:58:34.000Z</time></trkpt>
        <trkpt lat="28.8072535" lon="105.9587419"><ele>756.31</ele><time>2026-03-09T23:58:38.000Z</time></trkpt>
        <trkpt lat="28.8071957" lon="105.95865"><ele>753.79</ele><time>2026-03-09T23:58:42.000Z</time></trkpt>
        <trkpt lat="28.8071905" lon="105.9585259"><ele>751.83</ele><time>2026-03-09T23:58:50.000Z</time></trkpt>
        <trkpt lat="28.807216" lon="105.958401"><ele>746.96</ele><time>2026-03-09T23:58:54.000Z</time></trkpt>
        <trkpt lat="28.8072862" lon="105.9582862"><ele>745.05</ele><time>2026-03-09T23:59:00.000Z</time></trkpt>
        <trkpt lat="28.8073536" lon="105.9581738"><ele>743.51</ele><time>2026-03-09T23:59:06.000Z</time></trkpt>
        <trkpt lat="28.8073668" lon="105.9580573"><ele>742.54</ele><time>2026-03-09T23:59:12.000Z</time></trkpt>
        <trkpt lat="28.807305" lon="105.9579906"><ele>741.59</ele><time>2026-03-09T23:59:16.000Z</time></trkpt>
        <trkpt lat="28.8072136" lon="105.9579402"><ele>742.33</ele><time>2026-03-09T23:59:22.000Z</time></trkpt>
        <trkpt lat="28.8070963" lon="105.9579347"><ele>743.06</ele><time>2026-03-09T23:59:28.000Z</time></trkpt>
        <trkpt lat="28.8069797" lon="105.9579362"><ele>744.14</ele><time>2026-03-09T23:59:34.000Z</time></trkpt>
        <trkpt lat="28.8068718" lon="105.9579557"><ele>745.69</ele><time>2026-03-09T23:59:44.000Z</time></trkpt>
        <trkpt lat="28.80676" lon="105.9579912"><ele>745.53</ele><time>2026-03-09T23:59:52.000Z</time></trkpt>
        <trkpt lat="28.8066609" lon="105.9580197"><ele>746.84</ele><time>2026-03-10T00:00:00.000Z</time></trkpt>
        <trkpt lat="28.8065592" lon="105.958023"><ele>747.24</ele><time>2026-03-10T00:00:10.000Z</time></trkpt>
        <trkpt lat="28.8064802" lon="105.9579733"><ele>746.52</ele><time>2026-03-10T00:00:20.000Z</time></trkpt>
        <trkpt lat="28.8064211" lon="105.957883"><ele>745.37</ele><time>2026-03-10T00:00:28.000Z</time></trkpt>
        <trkpt lat="28.8063525" lon="105.9577944"><ele>743.74</ele><time>2026-03-10T00:00:36.000Z</time></trkpt>
        <trkpt lat="28.8062461" lon="105.9577445"><ele>742.69</ele><time>2026-03-10T00:00:44.000Z</time></trkpt>
        <trkpt lat="28.806151" lon="105.9577722"><ele>742.99</ele><time>2026-03-10T00:00:48.000Z</time></trkpt>
        <trkpt lat="28.8060648" lon="105.9578448"><ele>744.53</ele><time>2026-03-10T00:00:56.000Z</time></trkpt>
        <trkpt lat="28.8059955" lon="105.9579436"><ele>746.93</ele><time>2026-03-10T00:01:06.000Z</time></trkpt>
        <trkpt lat="28.8059054" lon="105.9579761"><ele>747</ele><time>2026-03-10T00:01:14.000Z</time></trkpt>
        <trkpt lat="28.8058079" lon="105.9579785"><ele>746.7</ele><time>2026-03-10T00:01:22.000Z</time></trkpt>
        <trkpt lat="28.805715" lon="105.9579262"><ele>746.35</ele><time>2026-03-10T00:01:30.000Z</time></trkpt>
        <trkpt lat="28.8056581" lon="105.9578309"><ele>745.44</ele><time>2026-03-10T00:01:38.000Z</time></trkpt>
        <trkpt lat="28.8055985" lon="105.957738"><ele>743.57</ele><time>2026-03-10T00:01:46.000Z</time></trkpt>
        <trkpt lat="28.8055148" lon="105.9576979"><ele>741.19</ele><time>2026-03-10T00:01:54.000Z</time></trkpt>
        <trkpt lat="28.8054101" lon="105.9577056"><ele>739.85</ele><time>2026-03-10T00:02:00.000Z</time></trkpt>
        <trkpt lat="28.8053044" lon="105.9577253"><ele>740.44</ele><time>2026-03-10T00:02:06.000Z</time></trkpt>
        <trkpt lat="28.8052028" lon="105.9577808"><ele>741.94</ele><time>2026-03-10T00:02:14.000Z</time></trkpt>
        <trkpt lat="28.805118" lon="105.9578419"><ele>744.03</ele><time>2026-03-10T00:02:24.000Z</time></trkpt>
        <trkpt lat="28.8050275" lon="105.9578891"><ele>745.15</ele><time>2026-03-10T00:02:36.000Z</time></trkpt>
        <trkpt lat="28.804981" lon="105.9579181"><ele>746.31</ele><time>2026-03-10T00:02:42.000Z</time></trkpt>
        <trkpt lat="28.8049019" lon="105.9579227"><ele>747.31</ele><time>2026-03-10T00:02:56.000Z</time></trkpt>
        <trkpt lat="28.8048049" lon="105.9578947"><ele>747.01</ele><time>2026-03-10T00:03:04.000Z</time></trkpt>
        <trkpt lat="28.8047081" lon="105.9578607"><ele>746.91</ele><time>2026-03-10T00:03:10.000Z</time></trkpt>
        <trkpt lat="28.8046113" lon="105.9578247"><ele>747.21</ele><time>2026-03-10T00:03:16.000Z</time></trkpt>
        <trkpt lat="28.8045102" lon="105.9578008"><ele>747.36</ele><time>2026-03-10T00:03:24.000Z</time></trkpt>
        <trkpt lat="28.8044091" lon="105.9578144"><ele>747.06</ele><time>2026-03-10T00:03:32.000Z</time></trkpt>
        <trkpt lat="28.8043117" lon="105.9578775"><ele>748.16</ele><time>2026-03-10T00:03:38.000Z</time></trkpt>
        <trkpt lat="28.8042772" lon="105.9579794"><ele>749.8</ele><time>2026-03-10T00:03:48.000Z</time></trkpt>
        <trkpt lat="28.8042457" lon="105.9580871"><ele>751.29</ele><time>2026-03-10T00:04:02.000Z</time></trkpt>
        <trkpt lat="28.8041985" lon="105.9581936"><ele>753.37</ele><time>2026-03-10T00:04:18.000Z</time></trkpt>
        <trkpt lat="28.8041486" lon="105.9582952"><ele>756.07</ele><time>2026-03-10T00:04:30.000Z</time></trkpt>
        <trkpt lat="28.8040932" lon="105.9583863"><ele>757.8</ele><time>2026-03-10T00:04:40.000Z</time></trkpt>
        <trkpt lat="28.8040035" lon="105.9583978"><ele>759.86</ele><time>2026-03-10T00:04:51.000Z</time></trkpt>
        <trkpt lat="28.8038917" lon="105.9583579"><ele>760.9</ele><time>2026-03-10T00:04:59.000Z</time></trkpt>
        <trkpt lat="28.8037791" lon="105.9583134"><ele>762.13</ele><time>2026-03-10T00:05:08.000Z</time></trkpt>
        <trkpt lat="28.8036663" lon="105.9583457"><ele>762.38</ele><time>2026-03-10T00:05:17.000Z</time></trkpt>
        <trkpt lat="28.803607" lon="105.9584439"><ele>763.26</ele><time>2026-03-10T00:05:23.000Z</time></trkpt>
        <trkpt lat="28.8035366" lon="105.9585466"><ele>765.16</ele><time>2026-03-10T00:05:31.000Z</time></trkpt>
        <trkpt lat="28.8034622" lon="105.9586474"><ele>767.18</ele><time>2026-03-10T00:05:41.000Z</time></trkpt>
        <trkpt lat="28.8033762" lon="105.9587236"><ele>769.63</ele><time>2026-03-10T00:05:53.000Z</time></trkpt>
        <trkpt lat="28.803288" lon="105.9587189"><ele>773.25</ele><time>2026-03-10T00:06:01.000Z</time></trkpt>
        <trkpt lat="28.8031982" lon="105.9586618"><ele>776.11</ele><time>2026-03-10T00:06:11.000Z</time></trkpt>
        <trkpt lat="28.8030786" lon="105.9586034"><ele>776.11</ele><time>2026-03-10T00:06:17.000Z</time></trkpt>
        <trkpt lat="28.8029829" lon="105.9586125"><ele>775.62</ele><time>2026-03-10T00:06:21.000Z</time></trkpt>
        <trkpt lat="28.8028881" lon="105.9586534"><ele>774.9</ele><time>2026-03-10T00:06:29.000Z</time></trkpt>
        <trkpt lat="28.8028258" lon="105.9587518"><ele>776.59</ele><time>2026-03-10T00:06:39.000Z</time></trkpt>
        <trkpt lat="28.8027922" lon="105.9588768"><ele>778.53</ele><time>2026-03-10T00:06:49.000Z</time></trkpt>
        <trkpt lat="28.8027087" lon="105.9588894"><ele>780.08</ele><time>2026-03-10T00:06:59.000Z</time></trkpt>
        <trkpt lat="28.8026703" lon="105.9588864"><ele>781.52</ele><time>2026-03-10T00:07:03.000Z</time></trkpt>
        <trkpt lat="28.8025977" lon="105.9588522"><ele>782.73</ele><time>2026-03-10T00:07:23.000Z</time></trkpt>
        <trkpt lat="28.8025044" lon="105.9588179"><ele>785.57</ele><time>2026-03-10T00:07:33.000Z</time></trkpt>
        <trkpt lat="28.8023993" lon="105.9587927"><ele>784.93</ele><time>2026-03-10T00:07:39.000Z</time></trkpt>
        <trkpt lat="28.8022862" lon="105.9587638"><ele>781.89</ele><time>2026-03-10T00:07:45.000Z</time></trkpt>
        <trkpt lat="28.8021906" lon="105.9587293"><ele>779.29</ele><time>2026-03-10T00:07:49.000Z</time></trkpt>
        <trkpt lat="28.8020982" lon="105.9586987"><ele>776.78</ele><time>2026-03-10T00:07:53.000Z</time></trkpt>
        <trkpt lat="28.802007" lon="105.9586709"><ele>777.7</ele><time>2026-03-10T00:07:57.000Z</time></trkpt>
        <trkpt lat="28.801891" lon="105.9586409"><ele>781.05</ele><time>2026-03-10T00:08:05.000Z</time></trkpt>
        <trkpt lat="28.8017562" lon="105.9586238"><ele>784.29</ele><time>2026-03-10T00:08:11.000Z</time></trkpt>
        <trkpt lat="28.8016421" lon="105.958623"><ele>787.31</ele><time>2026-03-10T00:08:17.000Z</time></trkpt>
        <trkpt lat="28.8015621" lon="105.9585693"><ele>789.42</ele><time>2026-03-10T00:08:29.000Z</time></trkpt>
        <trkpt lat="28.8014759" lon="105.9585235"><ele>790.83</ele><time>2026-03-10T00:08:41.000Z</time></trkpt>
        <trkpt lat="28.801462" lon="105.9584967"><ele>792</ele><time>2026-03-10T00:08:45.000Z</time></trkpt>
        <trkpt lat="28.8013858" lon="105.958493"><ele>793.03</ele><time>2026-03-10T00:09:01.000Z</time></trkpt>
        <trkpt lat="28.8012924" lon="105.958476"><ele>793.67</ele><time>2026-03-10T00:09:15.000Z</time></trkpt>
        <trkpt lat="28.8011956" lon="105.958461"><ele>793.67</ele><time>2026-03-10T00:09:27.000Z</time></trkpt>
        <trkpt lat="28.801087" lon="105.9584489"><ele>794.04</ele><time>2026-03-10T00:09:37.000Z</time></trkpt>
        <trkpt lat="28.8009795" lon="105.9584555"><ele>793.72</ele><time>2026-03-10T00:09:47.000Z</time></trkpt>
        <trkpt lat="28.8008823" lon="105.9584358"><ele>792.69</ele><time>2026-03-10T00:09:55.000Z</time></trkpt>
        <trkpt lat="28.8007876" lon="105.9584525"><ele>792.04</ele><time>2026-03-10T00:10:07.000Z</time></trkpt>
        <trkpt lat="28.8006901" lon="105.9584725"><ele>792.2</ele><time>2026-03-10T00:10:19.000Z</time></trkpt>
        <trkpt lat="28.8006277" lon="105.9584118"><ele>794.37</ele><time>2026-03-10T00:10:37.000Z</time></trkpt>
        <trkpt lat="28.8005462" lon="105.9583904"><ele>798.62</ele><time>2026-03-10T00:10:49.000Z</time></trkpt>
        <trkpt lat="28.8004581" lon="105.9584035"><ele>803.58</ele><time>2026-03-10T00:10:59.000Z</time></trkpt>
        <trkpt lat="28.800435" lon="105.9583837"><ele>808.35</ele><time>2026-03-10T00:11:09.000Z</time></trkpt>
        <trkpt lat="28.8003762" lon="105.9584184"><ele>810.94</ele><time>2026-03-10T00:11:23.000Z</time></trkpt>
        <trkpt lat="28.8002902" lon="105.9584712"><ele>811.11</ele><time>2026-03-10T00:11:35.000Z</time></trkpt>
        <trkpt lat="28.800185" lon="105.9585045"><ele>808.47</ele><time>2026-03-10T00:11:47.000Z</time></trkpt>
        <trkpt lat="28.8000869" lon="105.9585562"><ele>806.45</ele><time>2026-03-10T00:11:59.000Z</time></trkpt>
        <trkpt lat="28.8000035" lon="105.9586211"><ele>807.9</ele><time>2026-03-10T00:12:15.000Z</time></trkpt>
        <trkpt lat="28.799914" lon="105.9586318"><ele>811.81</ele><time>2026-03-10T00:12:31.000Z</time></trkpt>
        <trkpt lat="28.7998288" lon="105.9586763"><ele>816.62</ele><time>2026-03-10T00:12:57.000Z</time></trkpt>
        <trkpt lat="28.7997405" lon="105.9587177"><ele>821.99</ele><time>2026-03-10T00:13:19.000Z</time></trkpt>
        <trkpt lat="28.7996779" lon="105.9588012"><ele>828.09</ele><time>2026-03-10T00:13:33.000Z</time></trkpt>
        <trkpt lat="28.7996175" lon="105.9588882"><ele>832.52</ele><time>2026-03-10T00:13:51.000Z</time></trkpt>
        <trkpt lat="28.7995829" lon="105.9589894"><ele>837.05</ele><time>2026-03-10T00:14:11.000Z</time></trkpt>
        <trkpt lat="28.7995441" lon="105.9590879"><ele>842.78</ele><time>2026-03-10T00:14:29.000Z</time></trkpt>
        <trkpt lat="28.799495" lon="105.9591899"><ele>848.25</ele><time>2026-03-10T00:14:47.000Z</time></trkpt>
        <trkpt lat="28.7994048" lon="105.9592396"><ele>851.21</ele><time>2026-03-10T00:14:57.000Z</time></trkpt>
        <trkpt lat="28.7993032" lon="105.9592729"><ele>853.47</ele><time>2026-03-10T00:15:05.000Z</time></trkpt>
        <trkpt lat="28.79921" lon="105.9593103"><ele>855.06</ele><time>2026-03-10T00:15:15.000Z</time></trkpt>
        <trkpt lat="28.7991053" lon="105.9593154"><ele>856.92</ele><time>2026-03-10T00:15:25.000Z</time></trkpt>
        <trkpt lat="28.79905" lon="105.9593851"><ele>858.47</ele><time>2026-03-10T00:15:45.000Z</time></trkpt>
        <trkpt lat="28.7990711" lon="105.9594837"><ele>859.13</ele><time>2026-03-10T00:15:57.000Z</time></trkpt>
        <trkpt lat="28.7991029" lon="105.959602"><ele>858.36</ele><time>2026-03-10T00:16:09.000Z</time></trkpt>
        <trkpt lat="28.7991434" lon="105.959715"><ele>857.25</ele><time>2026-03-10T00:16:19.000Z</time></trkpt>
        <trkpt lat="28.7991783" lon="105.9598219"><ele>857.08</ele><time>2026-03-10T00:16:29.000Z</time></trkpt>
        <trkpt lat="28.7992321" lon="105.9599277"><ele>856.87</ele><time>2026-03-10T00:16:41.000Z</time></trkpt>
        <trkpt lat="28.7992646" lon="105.9600344"><ele>857.57</ele><time>2026-03-10T00:16:51.000Z</time></trkpt>
        <trkpt lat="28.7992279" lon="105.9601215"><ele>857.54</ele><time>2026-03-10T00:17:01.000Z</time></trkpt>
        <trkpt lat="28.7991566" lon="105.9602175"><ele>857.47</ele><time>2026-03-10T00:17:11.000Z</time></trkpt>
        <trkpt lat="28.799077" lon="105.9603164"><ele>859.2</ele><time>2026-03-10T00:17:21.000Z</time></trkpt>
        <trkpt lat="28.7989812" lon="105.9603736"><ele>859.6</ele><time>2026-03-10T00:17:27.000Z</time></trkpt>
        <trkpt lat="28.7988781" lon="105.9603877"><ele>859.82</ele><time>2026-03-10T00:17:33.000Z</time></trkpt>
        <trkpt lat="28.7987732" lon="105.9603892"><ele>860.42</ele><time>2026-03-10T00:17:39.000Z</time></trkpt>
        <trkpt lat="28.7987204" lon="105.9604636"><ele>859.75</ele><time>2026-03-10T00:17:45.000Z</time></trkpt>
        <trkpt lat="28.7986927" lon="105.9605718"><ele>858.07</ele><time>2026-03-10T00:17:51.000Z</time></trkpt>
        <trkpt lat="28.7986661" lon="105.9606952"><ele>857.31</ele><time>2026-03-10T00:17:57.000Z</time></trkpt>
        <trkpt lat="28.7986229" lon="105.9608139"><ele>858.22</ele><time>2026-03-10T00:18:07.000Z</time></trkpt>
        <trkpt lat="28.7985615" lon="105.9609155"><ele>857.84</ele><time>2026-03-10T00:18:15.000Z</time></trkpt>
        <trkpt lat="28.798472" lon="105.9609597"><ele>857.81</ele><time>2026-03-10T00:18:23.000Z</time></trkpt>
        <trkpt lat="28.7983545" lon="105.96096"><ele>857.75</ele><time>2026-03-10T00:18:33.000Z</time></trkpt>
        <trkpt lat="28.7982347" lon="105.9609586"><ele>857.32</ele><time>2026-03-10T00:18:41.000Z</time></trkpt>
        <trkpt lat="28.7981324" lon="105.9609609"><ele>856.6</ele><time>2026-03-10T00:18:49.000Z</time></trkpt>
        <trkpt lat="28.7980393" lon="105.9609598"><ele>856.14</ele><time>2026-03-10T00:18:57.000Z</time></trkpt>
        <trkpt lat="28.7979327" lon="105.9609739"><ele>854.94</ele><time>2026-03-10T00:19:07.000Z</time></trkpt>
        <trkpt lat="28.7978329" lon="105.9609357"><ele>854.7</ele><time>2026-03-10T00:19:15.000Z</time></trkpt>
        <trkpt lat="28.7977472" lon="105.9608809"><ele>853.17</ele><time>2026-03-10T00:19:23.000Z</time></trkpt>
        <trkpt lat="28.7976615" lon="105.9608221"><ele>850.78</ele><time>2026-03-10T00:19:31.000Z</time></trkpt>
        <trkpt lat="28.7975739" lon="105.9607731"><ele>848.13</ele><time>2026-03-10T00:19:39.000Z</time></trkpt>
        <trkpt lat="28.7974785" lon="105.960716"><ele>844.73</ele><time>2026-03-10T00:19:45.000Z</time></trkpt>
        <trkpt lat="28.7973957" lon="105.9606582"><ele>843.53</ele><time>2026-03-10T00:19:51.000Z</time></trkpt>
        <trkpt lat="28.7972876" lon="105.9606394"><ele>843.62</ele><time>2026-03-10T00:19:59.000Z</time></trkpt>
        <trkpt lat="28.7971841" lon="105.9606117"><ele>843.26</ele><time>2026-03-10T00:20:05.000Z</time></trkpt>
        <trkpt lat="28.7970882" lon="105.9605548"><ele>842.29</ele><time>2026-03-10T00:20:11.000Z</time></trkpt>
        <trkpt lat="28.796989" lon="105.9605043"><ele>843.15</ele><time>2026-03-10T00:20:19.000Z</time></trkpt>
        <trkpt lat="28.796926" lon="105.9604098"><ele>844.6</ele><time>2026-03-10T00:20:29.000Z</time></trkpt>
        <trkpt lat="28.7968874" lon="105.9603024"><ele>845.78</ele><time>2026-03-10T00:20:35.000Z</time></trkpt>
        <trkpt lat="28.7968553" lon="105.9601941"><ele>845.96</ele><time>2026-03-10T00:20:41.000Z</time></trkpt>
        <trkpt lat="28.7967935" lon="105.9601066"><ele>846.34</ele><time>2026-03-10T00:20:49.000Z</time></trkpt>
        <trkpt lat="28.7966968" lon="105.9600317"><ele>846.42</ele><time>2026-03-10T00:20:55.000Z</time></trkpt>
        <trkpt lat="28.796595" lon="105.9599881"><ele>845.89</ele><time>2026-03-10T00:21:03.000Z</time></trkpt>
        <trkpt lat="28.796486" lon="105.9600062"><ele>847.17</ele><time>2026-03-10T00:21:13.000Z</time></trkpt>
        <trkpt lat="28.7963976" lon="105.9599746"><ele>846.75</ele><time>2026-03-10T00:21:19.000Z</time></trkpt>
        <trkpt lat="28.79634" lon="105.959897"><ele>847.58</ele><time>2026-03-10T00:21:27.000Z</time></trkpt>
        <trkpt lat="28.7963045" lon="105.9597865"><ele>847.36</ele><time>2026-03-10T00:21:41.000Z</time></trkpt>
        <trkpt lat="28.7962276" lon="105.9597214"><ele>847.11</ele><time>2026-03-10T00:21:47.000Z</time></trkpt>
        <trkpt lat="28.7961599" lon="105.9596313"><ele>847.35</ele><time>2026-03-10T00:21:55.000Z</time></trkpt>
        <trkpt lat="28.7961337" lon="105.9595899"><ele>846.82</ele><time>2026-03-10T00:21:59.000Z</time></trkpt>
        <trkpt lat="28.7960767" lon="105.9595338"><ele>846.1</ele><time>2026-03-10T00:22:31.000Z</time></trkpt>
        <trkpt lat="28.7959805" lon="105.9595215"><ele>838.06</ele><time>2026-03-10T00:22:41.000Z</time></trkpt>
        <trkpt lat="28.7958868" lon="105.9594767"><ele>833.54</ele><time>2026-03-10T00:22:45.000Z</time></trkpt>
        <trkpt lat="28.7957835" lon="105.9594667"><ele>832.04</ele><time>2026-03-10T00:22:53.000Z</time></trkpt>
        <trkpt lat="28.7956769" lon="105.9594835"><ele>832.03</ele><time>2026-03-10T00:23:01.000Z</time></trkpt>
        <trkpt lat="28.7955811" lon="105.9595543"><ele>832.36</ele><time>2026-03-10T00:23:07.000Z</time></trkpt>
        <trkpt lat="28.7955266" lon="105.959707"><ele>834.25</ele><time>2026-03-10T00:23:15.000Z</time></trkpt>
        <trkpt lat="28.7954875" lon="105.9598292"><ele>834.29</ele><time>2026-03-10T00:23:19.000Z</time></trkpt>
        <trkpt lat="28.7954121" lon="105.9598986"><ele>835.98</ele><time>2026-03-10T00:23:25.000Z</time></trkpt>
        <trkpt lat="28.795363" lon="105.9598227"><ele>836.07</ele><time>2026-03-10T00:23:35.000Z</time></trkpt>
        <trkpt lat="28.7953004" lon="105.9597597"><ele>838.09</ele><time>2026-03-10T00:23:41.000Z</time></trkpt>
        <trkpt lat="28.7952167" lon="105.959768"><ele>838.1</ele><time>2026-03-10T00:23:47.000Z</time></trkpt>
        <trkpt lat="28.7950976" lon="105.9597924"><ele>835.85</ele><time>2026-03-10T00:23:57.000Z</time></trkpt>
        <trkpt lat="28.7950443" lon="105.9598191"><ele>834.96</ele><time>2026-03-10T00:24:03.000Z</time></trkpt>
        <trkpt lat="28.7949495" lon="105.9598184"><ele>831.34</ele><time>2026-03-10T00:24:11.000Z</time></trkpt>
        <trkpt lat="28.7948189" lon="105.9598326"><ele>829.05</ele><time>2026-03-10T00:24:23.000Z</time></trkpt>
        <trkpt lat="28.7947882" lon="105.9598385"><ele>825.79</ele><time>2026-03-10T00:24:27.000Z</time></trkpt>
        <trkpt lat="28.7947097" lon="105.9598226"><ele>823.48</ele><time>2026-03-10T00:24:49.000Z</time></trkpt>
        <trkpt lat="28.7946348" lon="105.9599047"><ele>820.16</ele><time>2026-03-10T00:24:55.000Z</time></trkpt>
        <trkpt lat="28.7945512" lon="105.9599595"><ele>818.8</ele><time>2026-03-10T00:25:01.000Z</time></trkpt>
        <trkpt lat="28.7944396" lon="105.9599846"><ele>816.81</ele><time>2026-03-10T00:25:09.000Z</time></trkpt>
        <trkpt lat="28.7943315" lon="105.9600167"><ele>810.87</ele><time>2026-03-10T00:25:15.000Z</time></trkpt>
        <trkpt lat="28.7942579" lon="105.9600817"><ele>804.55</ele><time>2026-03-10T00:25:19.000Z</time></trkpt>
        <trkpt lat="28.7941937" lon="105.9601939"><ele>799.36</ele><time>2026-03-10T00:25:27.000Z</time></trkpt>
        <trkpt lat="28.7940987" lon="105.9602432"><ele>796.23</ele><time>2026-03-10T00:25:33.000Z</time></trkpt>
        <trkpt lat="28.794012" lon="105.9602125"><ele>794.46</ele><time>2026-03-10T00:25:39.000Z</time></trkpt>
        <trkpt lat="28.7939118" lon="105.9602148"><ele>792.18</ele><time>2026-03-10T00:25:47.000Z</time></trkpt>
        <trkpt lat="28.7938137" lon="105.9602443"><ele>789.53</ele><time>2026-03-10T00:25:53.000Z</time></trkpt>
        <trkpt lat="28.7937046" lon="105.9603095"><ele>787.65</ele><time>2026-03-10T00:26:03.000Z</time></trkpt>
        <trkpt lat="28.7936033" lon="105.9603541"><ele>784.84</ele><time>2026-03-10T00:26:11.000Z</time></trkpt>
        <trkpt lat="28.7935748" lon="105.9602733"><ele>786.01</ele><time>2026-03-10T00:26:21.000Z</time></trkpt>
        <trkpt lat="28.79358" lon="105.9601387"><ele>786.05</ele><time>2026-03-10T00:26:29.000Z</time></trkpt>
        <trkpt lat="28.7935605" lon="105.9600092"><ele>783.57</ele><time>2026-03-10T00:26:37.000Z</time></trkpt>
        <trkpt lat="28.7935499" lon="105.9598912"><ele>778.18</ele><time>2026-03-10T00:26:45.000Z</time></trkpt>
        <trkpt lat="28.7934621" lon="105.9598372"><ele>773.22</ele><time>2026-03-10T00:26:55.000Z</time></trkpt>
        <trkpt lat="28.7933511" lon="105.9598387"><ele>767.82</ele><time>2026-03-10T00:27:01.000Z</time></trkpt>
        <trkpt lat="28.793246" lon="105.9598165"><ele>764.71</ele><time>2026-03-10T00:27:07.000Z</time></trkpt>
        <trkpt lat="28.7931443" lon="105.9597641"><ele>762.05</ele><time>2026-03-10T00:27:15.000Z</time></trkpt>
        <trkpt lat="28.7930389" lon="105.9597705"><ele>759.02</ele><time>2026-03-10T00:27:23.000Z</time></trkpt>
        <trkpt lat="28.7929316" lon="105.9597775"><ele>757.61</ele><time>2026-03-10T00:27:29.000Z</time></trkpt>
        <trkpt lat="28.7928344" lon="105.959795"><ele>756.41</ele><time>2026-03-10T00:27:37.000Z</time></trkpt>
        <trkpt lat="28.792733" lon="105.9598013"><ele>754.43</ele><time>2026-03-10T00:27:47.000Z</time></trkpt>
        <trkpt lat="28.792735" lon="105.959716"><ele>749.24</ele><time>2026-03-10T00:28:07.000Z</time></trkpt>
        <trkpt lat="28.7926917" lon="105.9596129"><ele>741.64</ele><time>2026-03-10T00:28:15.000Z</time></trkpt>
        <trkpt lat="28.7927124" lon="105.9595071"><ele>735.8</ele><time>2026-03-10T00:28:25.000Z</time></trkpt>
        <trkpt lat="28.7926863" lon="105.9594018"><ele>731.68</ele><time>2026-03-10T00:28:37.000Z</time></trkpt>
        <trkpt lat="28.7926038" lon="105.9593203"><ele>726.6</ele><time>2026-03-10T00:28:47.000Z</time></trkpt>
        <trkpt lat="28.792481" lon="105.9592724"><ele>722.53</ele><time>2026-03-10T00:28:53.000Z</time></trkpt>
        <trkpt lat="28.7923742" lon="105.9592814"><ele>718.49</ele><time>2026-03-10T00:28:57.000Z</time></trkpt>
        <trkpt lat="28.7922995" lon="105.9592181"><ele>715.8</ele><time>2026-03-10T00:29:01.000Z</time></trkpt>
        <trkpt lat="28.7922314" lon="105.9591086"><ele>714.56</ele><time>2026-03-10T00:29:07.000Z</time></trkpt>
        <trkpt lat="28.7921918" lon="105.9590017"><ele>713.99</ele><time>2026-03-10T00:29:11.000Z</time></trkpt>
        <trkpt lat="28.7921493" lon="105.9588983"><ele>714.26</ele><time>2026-03-10T00:29:17.000Z</time></trkpt>
        <trkpt lat="28.7920756" lon="105.9588221"><ele>714.34</ele><time>2026-03-10T00:29:23.000Z</time></trkpt>
        <trkpt lat="28.7920132" lon="105.9587374"><ele>714</ele><time>2026-03-10T00:29:29.000Z</time></trkpt>
        <trkpt lat="28.7919875" lon="105.9586355"><ele>713.72</ele><time>2026-03-10T00:29:35.000Z</time></trkpt>
        <trkpt lat="28.7919668" lon="105.9585234"><ele>713.25</ele><time>2026-03-10T00:29:43.000Z</time></trkpt>
        <trkpt lat="28.792004" lon="105.9584252"><ele>712.94</ele><time>2026-03-10T00:29:59.000Z</time></trkpt>
        <trkpt lat="28.7919526" lon="105.9583456"><ele>710.17</ele><time>2026-03-10T00:30:11.000Z</time></trkpt>
        <trkpt lat="28.791911" lon="105.9583587"><ele>706.2</ele><time>2026-03-10T00:30:15.000Z</time></trkpt>
        <trkpt lat="28.7918408" lon="105.9583012"><ele>702.53</ele><time>2026-03-10T00:30:41.000Z</time></trkpt>
        <trkpt lat="28.79181" lon="105.9581749"><ele>694.42</ele><time>2026-03-10T00:30:45.000Z</time></trkpt>
        <trkpt lat="28.7917835" lon="105.9580247"><ele>690</ele><time>2026-03-10T00:30:49.000Z</time></trkpt>
        <trkpt lat="28.7917695" lon="105.957868"><ele>688.98</ele><time>2026-03-10T00:30:53.000Z</time></trkpt>
        <trkpt lat="28.7917711" lon="105.9577337"><ele>690.16</ele><time>2026-03-10T00:30:57.000Z</time></trkpt>
        <trkpt lat="28.7917309" lon="105.9576308"><ele>691.89</ele><time>2026-03-10T00:31:03.000Z</time></trkpt>
        <trkpt lat="28.7917257" lon="105.9574987"><ele>691.12</ele><time>2026-03-10T00:31:09.000Z</time></trkpt>
        <trkpt lat="28.7917058" lon="105.9573912"><ele>689.92</ele><time>2026-03-10T00:31:13.000Z</time></trkpt>
        <trkpt lat="28.7916713" lon="105.9572705"><ele>690.29</ele><time>2026-03-10T00:31:21.000Z</time></trkpt>
        <trkpt lat="28.7915956" lon="105.9572062"><ele>691.17</ele><time>2026-03-10T00:31:27.000Z</time></trkpt>
        <trkpt lat="28.7915077" lon="105.9571602"><ele>692.03</ele><time>2026-03-10T00:31:35.000Z</time></trkpt>
        <trkpt lat="28.7914868" lon="105.9571249"><ele>692.26</ele><time>2026-03-10T00:31:39.000Z</time></trkpt>
        <trkpt lat="28.7915108" lon="105.9570414"><ele>692.31</ele><time>2026-03-10T00:31:53.000Z</time></trkpt>
        <trkpt lat="28.7915814" lon="105.9569591"><ele>690.94</ele><time>2026-03-10T00:31:57.000Z</time></trkpt>
        <trkpt lat="28.7916535" lon="105.956855"><ele>689.96</ele><time>2026-03-10T00:32:03.000Z</time></trkpt>
        <trkpt lat="28.7916719" lon="105.956727"><ele>689.22</ele><time>2026-03-10T00:32:09.000Z</time></trkpt>
        <trkpt lat="28.7916973" lon="105.9565933"><ele>687.84</ele><time>2026-03-10T00:32:17.000Z</time></trkpt>
        <trkpt lat="28.7916976" lon="105.9564787"><ele>686.53</ele><time>2026-03-10T00:32:23.000Z</time></trkpt>
        <trkpt lat="28.7916777" lon="105.9563708"><ele>683.59</ele><time>2026-03-10T00:32:31.000Z</time></trkpt>
        <trkpt lat="28.7916383" lon="105.9562567"><ele>680.46</ele><time>2026-03-10T00:32:41.000Z</time></trkpt>
        <trkpt lat="28.7916776" lon="105.9561489"><ele>677.33</ele><time>2026-03-10T00:32:49.000Z</time></trkpt>
        <trkpt lat="28.7916984" lon="105.9560343"><ele>674.29</ele><time>2026-03-10T00:32:57.000Z</time></trkpt>
        <trkpt lat="28.7916607" lon="105.9559381"><ele>673.27</ele><time>2026-03-10T00:33:07.000Z</time></trkpt>
        <trkpt lat="28.7915864" lon="105.9558699"><ele>674.34</ele><time>2026-03-10T00:33:19.000Z</time></trkpt>
        <trkpt lat="28.7915864" lon="105.9558699"><ele>674.34</ele><time>2026-03-10T00:33:57.000Z</time></trkpt>
        <trkpt lat="28.7915315" lon="105.9557743"><ele>675.08</ele><time>2026-03-10T00:34:05.000Z</time></trkpt>
        <trkpt lat="28.7915315" lon="105.9557743"><ele>675.08</ele><time>2026-03-10T00:34:11.000Z</time></trkpt>
        <trkpt lat="28.7914576" lon="105.9556896"><ele>674.7</ele><time>2026-03-10T00:34:21.000Z</time></trkpt>
        <trkpt lat="28.7913704" lon="105.9556128"><ele>674.21</ele><time>2026-03-10T00:34:29.000Z</time></trkpt>
        <trkpt lat="28.7912666" lon="105.9555351"><ele>672.42</ele><time>2026-03-10T00:34:35.000Z</time></trkpt>
        <trkpt lat="28.7911871" lon="105.9554502"><ele>671.47</ele><time>2026-03-10T00:34:41.000Z</time></trkpt>
        <trkpt lat="28.7911463" lon="105.9553322"><ele>670.86</ele><time>2026-03-10T00:34:47.000Z</time></trkpt>
        <trkpt lat="28.7911019" lon="105.955226"><ele>671.64</ele><time>2026-03-10T00:34:53.000Z</time></trkpt>
        <trkpt lat="28.7910208" lon="105.9551432"><ele>673.38</ele><time>2026-03-10T00:35:01.000Z</time></trkpt>
        <trkpt lat="28.7909441" lon="105.9550672"><ele>676</ele><time>2026-03-10T00:35:07.000Z</time></trkpt>
        <trkpt lat="28.7908518" lon="105.9550282"><ele>679.95</ele><time>2026-03-10T00:35:15.000Z</time></trkpt>
        <trkpt lat="28.7907491" lon="105.9550147"><ele>681.21</ele><time>2026-03-10T00:35:23.000Z</time></trkpt>
        <trkpt lat="28.790684" lon="105.9549402"><ele>679.35</ele><time>2026-03-10T00:35:29.000Z</time></trkpt>
        <trkpt lat="28.7906826" lon="105.9548301"><ele>676.75</ele><time>2026-03-10T00:35:35.000Z</time></trkpt>
        <trkpt lat="28.790707" lon="105.9546909"><ele>673.66</ele><time>2026-03-10T00:35:41.000Z</time></trkpt>
        <trkpt lat="28.7907457" lon="105.9545737"><ele>671.1</ele><time>2026-03-10T00:35:47.000Z</time></trkpt>
        <trkpt lat="28.790772" lon="105.9544577"><ele>670.36</ele><time>2026-03-10T00:35:55.000Z</time></trkpt>
        <trkpt lat="28.7907738" lon="105.9543445"><ele>669.47</ele><time>2026-03-10T00:36:05.000Z</time></trkpt>
        <trkpt lat="28.7907135" lon="105.9542681"><ele>667.56</ele><time>2026-03-10T00:36:41.000Z</time></trkpt>
        <trkpt lat="28.790622" lon="105.9542563"><ele>666.64</ele><time>2026-03-10T00:36:47.000Z</time></trkpt>
        <trkpt lat="28.7905093" lon="105.9542406"><ele>666.43</ele><time>2026-03-10T00:36:53.000Z</time></trkpt>
        <trkpt lat="28.7904009" lon="105.9542133"><ele>666.73</ele><time>2026-03-10T00:37:01.000Z</time></trkpt>
        <trkpt lat="28.7903078" lon="105.9541548"><ele>666.02</ele><time>2026-03-10T00:37:09.000Z</time></trkpt>
        <trkpt lat="28.7902151" lon="105.9541224"><ele>664.69</ele><time>2026-03-10T00:37:15.000Z</time></trkpt>
        <trkpt lat="28.7901328" lon="105.9540574"><ele>663.11</ele><time>2026-03-10T00:37:23.000Z</time></trkpt>
        <trkpt lat="28.7900589" lon="105.9539838"><ele>660.89</ele><time>2026-03-10T00:37:27.000Z</time></trkpt>
        <trkpt lat="28.7899982" lon="105.9538956"><ele>659.07</ele><time>2026-03-10T00:37:31.000Z</time></trkpt>
        <trkpt lat="28.7899283" lon="105.9538034"><ele>657.36</ele><time>2026-03-10T00:37:35.000Z</time></trkpt>
        <trkpt lat="28.7898894" lon="105.953694"><ele>656.78</ele><time>2026-03-10T00:37:41.000Z</time></trkpt>
        <trkpt lat="28.7898646" lon="105.9535839"><ele>656.49</ele><time>2026-03-10T00:37:47.000Z</time></trkpt>
        <trkpt lat="28.7897945" lon="105.9534894"><ele>656.62</ele><time>2026-03-10T00:37:55.000Z</time></trkpt>
        <trkpt lat="28.7897055" lon="105.9534221"><ele>657.06</ele><time>2026-03-10T00:38:03.000Z</time></trkpt>
        <trkpt lat="28.7896074" lon="105.9534004"><ele>657.61</ele><time>2026-03-10T00:38:11.000Z</time></trkpt>
        <trkpt lat="28.7895224" lon="105.9533352"><ele>657.83</ele><time>2026-03-10T00:38:19.000Z</time></trkpt>
        <trkpt lat="28.789428" lon="105.9532925"><ele>657.82</ele><time>2026-03-10T00:38:25.000Z</time></trkpt>
        <trkpt lat="28.7893339" lon="105.9532552"><ele>656.41</ele><time>2026-03-10T00:38:29.000Z</time></trkpt>
        <trkpt lat="28.7892463" lon="105.953184"><ele>656.29</ele><time>2026-03-10T00:38:37.000Z</time></trkpt>
        <trkpt lat="28.7892159" lon="105.953061"><ele>656.45</ele><time>2026-03-10T00:38:43.000Z</time></trkpt>
        <trkpt lat="28.7892221" lon="105.952931"><ele>657.67</ele><time>2026-03-10T00:38:51.000Z</time></trkpt>
        <trkpt lat="28.7892285" lon="105.9527927"><ele>657.7</ele><time>2026-03-10T00:38:59.000Z</time></trkpt>
        <trkpt lat="28.789189" lon="105.952674"><ele>657.65</ele><time>2026-03-10T00:39:07.000Z</time></trkpt>
        <trkpt lat="28.7891277" lon="105.9525897"><ele>656.78</ele><time>2026-03-10T00:39:11.000Z</time></trkpt>
        <trkpt lat="28.7890566" lon="105.9525136"><ele>655.52</ele><time>2026-03-10T00:39:15.000Z</time></trkpt>
        <trkpt lat="28.7889716" lon="105.9524512"><ele>654.14</ele><time>2026-03-10T00:39:19.000Z</time></trkpt>
        <trkpt lat="28.7888706" lon="105.9524266"><ele>652.76</ele><time>2026-03-10T00:39:23.000Z</time></trkpt>
        <trkpt lat="28.7887595" lon="105.9524631"><ele>651.98</ele><time>2026-03-10T00:39:27.000Z</time></trkpt>
        <trkpt lat="28.7886759" lon="105.9524329"><ele>651.95</ele><time>2026-03-10T00:39:31.000Z</time></trkpt>
        <trkpt lat="28.7886897" lon="105.9523135"><ele>652.02</ele><time>2026-03-10T00:39:35.000Z</time></trkpt>
        <trkpt lat="28.7887547" lon="105.9522069"><ele>652.35</ele><time>2026-03-10T00:39:39.000Z</time></trkpt>
        <trkpt lat="28.788833" lon="105.9521154"><ele>652.9</ele><time>2026-03-10T00:39:43.000Z</time></trkpt>
        <trkpt lat="28.7888843" lon="105.9519783"><ele>651.81</ele><time>2026-03-10T00:39:49.000Z</time></trkpt>
        <trkpt lat="28.7889232" lon="105.9518645"><ele>649.67</ele><time>2026-03-10T00:39:53.000Z</time></trkpt>
        <trkpt lat="28.788992" lon="105.9517644"><ele>647.35</ele><time>2026-03-10T00:39:57.000Z</time></trkpt>
        <trkpt lat="28.7890137" lon="105.951646"><ele>647.91</ele><time>2026-03-10T00:40:03.000Z</time></trkpt>
        <trkpt lat="28.7890181" lon="105.9514969"><ele>649.61</ele><time>2026-03-10T00:40:09.000Z</time></trkpt>
        <trkpt lat="28.7890574" lon="105.9513832"><ele>648.09</ele><time>2026-03-10T00:40:13.000Z</time></trkpt>
        <trkpt lat="28.7891318" lon="105.9512879"><ele>645.34</ele><time>2026-03-10T00:40:19.000Z</time></trkpt>
        <trkpt lat="28.7891696" lon="105.9511908"><ele>643.41</ele><time>2026-03-10T00:40:25.000Z</time></trkpt>
        <trkpt lat="28.7891525" lon="105.9510951"><ele>641.65</ele><time>2026-03-10T00:40:31.000Z</time></trkpt>
        <trkpt lat="28.7890868" lon="105.950967"><ele>639.81</ele><time>2026-03-10T00:40:37.000Z</time></trkpt>
        <trkpt lat="28.789073" lon="105.9508475"><ele>637.81</ele><time>2026-03-10T00:40:41.000Z</time></trkpt>
        <trkpt lat="28.7891483" lon="105.9508164"><ele>635.83</ele><time>2026-03-10T00:40:49.000Z</time></trkpt>
        <trkpt lat="28.7892552" lon="105.9508172"><ele>633.61</ele><time>2026-03-10T00:40:57.000Z</time></trkpt>
        <trkpt lat="28.7893729" lon="105.9507792"><ele>632.85</ele><time>2026-03-10T00:41:05.000Z</time></trkpt>
        <trkpt lat="28.7894586" lon="105.9507012"><ele>631.75</ele><time>2026-03-10T00:41:11.000Z</time></trkpt>
        <trkpt lat="28.7895391" lon="105.95062"><ele>629.87</ele><time>2026-03-10T00:41:17.000Z</time></trkpt>
        <trkpt lat="28.7896338" lon="105.9505533"><ele>628.01</ele><time>2026-03-10T00:41:23.000Z</time></trkpt>
        <trkpt lat="28.789759" lon="105.9505129"><ele>626.32</ele><time>2026-03-10T00:41:29.000Z</time></trkpt>
        <trkpt lat="28.7898641" lon="105.9504799"><ele>624.7</ele><time>2026-03-10T00:41:33.000Z</time></trkpt>
        <trkpt lat="28.7899717" lon="105.9504691"><ele>624.41</ele><time>2026-03-10T00:41:37.000Z</time></trkpt>
        <trkpt lat="28.7901048" lon="105.9504874"><ele>624.62</ele><time>2026-03-10T00:41:45.000Z</time></trkpt>
        <trkpt lat="28.7902308" lon="105.9505191"><ele>622.95</ele><time>2026-03-10T00:41:49.000Z</time></trkpt>
        <trkpt lat="28.7903308" lon="105.9505474"><ele>621.42</ele><time>2026-03-10T00:41:53.000Z</time></trkpt>
        <trkpt lat="28.7904208" lon="105.9505817"><ele>619.18</ele><time>2026-03-10T00:41:57.000Z</time></trkpt>
        <trkpt lat="28.7905234" lon="105.9505676"><ele>617.43</ele><time>2026-03-10T00:42:03.000Z</time></trkpt>
        <trkpt lat="28.790627" lon="105.9505292"><ele>615.9</ele><time>2026-03-10T00:42:11.000Z</time></trkpt>
        <trkpt lat="28.7907302" lon="105.9505066"><ele>613.79</ele><time>2026-03-10T00:42:19.000Z</time></trkpt>
        <trkpt lat="28.7908406" lon="105.9504899"><ele>611.27</ele><time>2026-03-10T00:42:27.000Z</time></trkpt>
        <trkpt lat="28.7909517" lon="105.9504184"><ele>608.07</ele><time>2026-03-10T00:42:33.000Z</time></trkpt>
        <trkpt lat="28.7910136" lon="105.9503015"><ele>603.35</ele><time>2026-03-10T00:42:37.000Z</time></trkpt>
        <trkpt lat="28.791074" lon="105.9501743"><ele>598.88</ele><time>2026-03-10T00:42:41.000Z</time></trkpt>
        <trkpt lat="28.7911123" lon="105.9500577"><ele>595.09</ele><time>2026-03-10T00:42:45.000Z</time></trkpt>
        <trkpt lat="28.7911422" lon="105.949915"><ele>591.89</ele><time>2026-03-10T00:42:51.000Z</time></trkpt>
        <trkpt lat="28.7911574" lon="105.949793"><ele>588.3</ele><time>2026-03-10T00:42:55.000Z</time></trkpt>
        <trkpt lat="28.791165" lon="105.9496646"><ele>585.7</ele><time>2026-03-10T00:43:01.000Z</time></trkpt>
        <trkpt lat="28.7911788" lon="105.9495253"><ele>583.24</ele><time>2026-03-10T00:43:07.000Z</time></trkpt>
        <trkpt lat="28.7912332" lon="105.9494099"><ele>581.45</ele><time>2026-03-10T00:43:13.000Z</time></trkpt>
        <trkpt lat="28.7912769" lon="105.9493092"><ele>578.94</ele><time>2026-03-10T00:43:17.000Z</time></trkpt>
        <trkpt lat="28.7913225" lon="105.9492153"><ele>577.17</ele><time>2026-03-10T00:43:21.000Z</time></trkpt>
        <trkpt lat="28.7913655" lon="105.9491167"><ele>576.42</ele><time>2026-03-10T00:43:27.000Z</time></trkpt>
        <trkpt lat="28.7913971" lon="105.949004"><ele>576.51</ele><time>2026-03-10T00:43:35.000Z</time></trkpt>
        <trkpt lat="28.7914469" lon="105.9488857"><ele>576.81</ele><time>2026-03-10T00:43:43.000Z</time></trkpt>
        <trkpt lat="28.7915192" lon="105.9487842"><ele>577.55</ele><time>2026-03-10T00:43:51.000Z</time></trkpt>
        <trkpt lat="28.7915908" lon="105.9486959"><ele>577.76</ele><time>2026-03-10T00:43:57.000Z</time></trkpt>
        <trkpt lat="28.7916681" lon="105.9486093"><ele>579.27</ele><time>2026-03-10T00:44:05.000Z</time></trkpt>
        <trkpt lat="28.7917533" lon="105.9485322"><ele>581.59</ele><time>2026-03-10T00:44:13.000Z</time></trkpt>
        <trkpt lat="28.7918512" lon="105.9484541"><ele>582.08</ele><time>2026-03-10T00:44:21.000Z</time></trkpt>
        <trkpt lat="28.7919397" lon="105.9483908"><ele>581.59</ele><time>2026-03-10T00:44:25.000Z</time></trkpt>
        <trkpt lat="28.7920361" lon="105.9483257"><ele>580.61</ele><time>2026-03-10T00:44:31.000Z</time></trkpt>
        <trkpt lat="28.7921246" lon="105.9482703"><ele>579.59</ele><time>2026-03-10T00:44:39.000Z</time></trkpt>
        <trkpt lat="28.7922283" lon="105.9482465"><ele>579.06</ele><time>2026-03-10T00:44:47.000Z</time></trkpt>
        <trkpt lat="28.792326" lon="105.9482894"><ele>578.99</ele><time>2026-03-10T00:44:55.000Z</time></trkpt>
        <trkpt lat="28.7924209" lon="105.9483656"><ele>578.95</ele><time>2026-03-10T00:45:03.000Z</time></trkpt>
        <trkpt lat="28.7925255" lon="105.9484075"><ele>578.97</ele><time>2026-03-10T00:45:11.000Z</time></trkpt>
        <trkpt lat="28.7926296" lon="105.948409"><ele>578.57</ele><time>2026-03-10T00:45:19.000Z</time></trkpt>
        <trkpt lat="28.7927224" lon="105.9483454"><ele>578</ele><time>2026-03-10T00:45:27.000Z</time></trkpt>
        <trkpt lat="28.7927945" lon="105.9482456"><ele>577.26</ele><time>2026-03-10T00:45:35.000Z</time></trkpt>
        <trkpt lat="28.7928546" lon="105.9481279"><ele>575.94</ele><time>2026-03-10T00:45:43.000Z</time></trkpt>
        <trkpt lat="28.7929074" lon="105.9479997"><ele>574.26</ele><time>2026-03-10T00:45:51.000Z</time></trkpt>
        <trkpt lat="28.792953" lon="105.9478934"><ele>573.06</ele><time>2026-03-10T00:45:57.000Z</time></trkpt>
        <trkpt lat="28.7930005" lon="105.9477998"><ele>572.11</ele><time>2026-03-10T00:46:03.000Z</time></trkpt>
        <trkpt lat="28.7930721" lon="105.9477159"><ele>571.74</ele><time>2026-03-10T00:46:11.000Z</time></trkpt>
        <trkpt lat="28.7931091" lon="105.947737"><ele>572.12</ele><time>2026-03-10T00:46:21.000Z</time></trkpt>
        <trkpt lat="28.7931499" lon="105.9476813"><ele>572.38</ele><time>2026-03-10T00:47:15.000Z</time></trkpt>
        <trkpt lat="28.7932015" lon="105.9475805"><ele>574.47</ele><time>2026-03-10T00:47:25.000Z</time></trkpt>
        <trkpt lat="28.7932401" lon="105.9474765"><ele>574.11</ele><time>2026-03-10T00:47:31.000Z</time></trkpt>
        <trkpt lat="28.7932717" lon="105.9473659"><ele>574.23</ele><time>2026-03-10T00:47:37.000Z</time></trkpt>
        <trkpt lat="28.7933064" lon="105.9472627"><ele>574.5</ele><time>2026-03-10T00:47:43.000Z</time></trkpt>
        <trkpt lat="28.793357" lon="105.9471521"><ele>575.04</ele><time>2026-03-10T00:47:51.000Z</time></trkpt>
        <trkpt lat="28.7934146" lon="105.9470595"><ele>575.05</ele><time>2026-03-10T00:47:59.000Z</time></trkpt>
        <trkpt lat="28.793494" lon="105.9469776"><ele>575.16</ele><time>2026-03-10T00:48:07.000Z</time></trkpt>
        <trkpt lat="28.7935711" lon="105.9468925"><ele>575.14</ele><time>2026-03-10T00:48:15.000Z</time></trkpt>
        <trkpt lat="28.793659" lon="105.946823"><ele>575.19</ele><time>2026-03-10T00:48:23.000Z</time></trkpt>
        <trkpt lat="28.7937461" lon="105.9467422"><ele>575.15</ele><time>2026-03-10T00:48:31.000Z</time></trkpt>
        <trkpt lat="28.7937701" lon="105.9466218"><ele>574.55</ele><time>2026-03-10T00:48:39.000Z</time></trkpt>
        <trkpt lat="28.7938313" lon="105.9465164"><ele>573.79</ele><time>2026-03-10T00:48:47.000Z</time></trkpt>
        <trkpt lat="28.7939055" lon="105.9464369"><ele>573.26</ele><time>2026-03-10T00:49:01.000Z</time></trkpt>
        <trkpt lat="28.7939831" lon="105.9463777"><ele>569.83</ele><time>2026-03-10T00:49:07.000Z</time></trkpt>
        <trkpt lat="28.7940629" lon="105.9463125"><ele>567.86</ele><time>2026-03-10T00:49:13.000Z</time></trkpt>
        <trkpt lat="28.7941489" lon="105.9462523"><ele>567.05</ele><time>2026-03-10T00:49:25.000Z</time></trkpt>
        <trkpt lat="28.7942337" lon="105.9462069"><ele>563.7</ele><time>2026-03-10T00:49:35.000Z</time></trkpt>
        <trkpt lat="28.7943269" lon="105.9461876"><ele>559.87</ele><time>2026-03-10T00:49:45.000Z</time></trkpt>
        <trkpt lat="28.7944257" lon="105.9461365"><ele>554.89</ele><time>2026-03-10T00:49:57.000Z</time></trkpt>
        <trkpt lat="28.7945199" lon="105.9461"><ele>548.89</ele><time>2026-03-10T00:50:03.000Z</time></trkpt>
        <trkpt lat="28.7946003" lon="105.9460474"><ele>543.99</ele><time>2026-03-10T00:50:11.000Z</time></trkpt>
        <trkpt lat="28.7946737" lon="105.9459723"><ele>539.21</ele><time>2026-03-10T00:50:17.000Z</time></trkpt>
        <trkpt lat="28.7947503" lon="105.9458861"><ele>536.38</ele><time>2026-03-10T00:50:25.000Z</time></trkpt>
        <trkpt lat="28.7948075" lon="105.9457866"><ele>534.17</ele><time>2026-03-10T00:50:33.000Z</time></trkpt>
        <trkpt lat="28.7948555" lon="105.945687"><ele>530.92</ele><time>2026-03-10T00:50:41.000Z</time></trkpt>
        <trkpt lat="28.7949073" lon="105.9455896"><ele>528.04</ele><time>2026-03-10T00:50:53.000Z</time></trkpt>
        <trkpt lat="28.794952" lon="105.9454879"><ele>523.65</ele><time>2026-03-10T00:51:03.000Z</time></trkpt>
        <trkpt lat="28.7950014" lon="105.9453865"><ele>519.74</ele><time>2026-03-10T00:51:11.000Z</time></trkpt>
        <trkpt lat="28.795045" lon="105.945286"><ele>516.44</ele><time>2026-03-10T00:51:19.000Z</time></trkpt>
        <trkpt lat="28.7950971" lon="105.9451945"><ele>512.72</ele><time>2026-03-10T00:51:27.000Z</time></trkpt>
        <trkpt lat="28.7951493" lon="105.945104"><ele>510.21</ele><time>2026-03-10T00:51:37.000Z</time></trkpt>
        <trkpt lat="28.7952129" lon="105.9450202"><ele>507.36</ele><time>2026-03-10T00:51:49.000Z</time></trkpt>
        <trkpt lat="28.7952704" lon="105.9449364"><ele>503.77</ele><time>2026-03-10T00:51:59.000Z</time></trkpt>
        <trkpt lat="28.7953158" lon="105.944841"><ele>500.15</ele><time>2026-03-10T00:52:07.000Z</time></trkpt>
        <trkpt lat="28.7953731" lon="105.9447294"><ele>496.73</ele><time>2026-03-10T00:52:17.000Z</time></trkpt>
        <trkpt lat="28.7954467" lon="105.9446401"><ele>492.78</ele><time>2026-03-10T00:52:29.000Z</time></trkpt>
        <trkpt lat="28.7955168" lon="105.9445414"><ele>489.48</ele><time>2026-03-10T00:52:43.000Z</time></trkpt>
        <trkpt lat="28.7955803" lon="105.9444422"><ele>485.05</ele><time>2026-03-10T00:52:51.000Z</time></trkpt>
        <trkpt lat="28.7956409" lon="105.9443354"><ele>481.35</ele><time>2026-03-10T00:52:59.000Z</time></trkpt>
        <trkpt lat="28.7956973" lon="105.9442469"><ele>477.16</ele><time>2026-03-10T00:53:05.000Z</time></trkpt>
        <trkpt lat="28.7957481" lon="105.944145"><ele>474.36</ele><time>2026-03-10T00:53:13.000Z</time></trkpt>
        <trkpt lat="28.7957642" lon="105.9440268"><ele>473.03</ele><time>2026-03-10T00:53:25.000Z</time></trkpt>
        <trkpt lat="28.7957798" lon="105.9439137"><ele>472.14</ele><time>2026-03-10T00:53:35.000Z</time></trkpt>
        <trkpt lat="28.7958568" lon="105.943888"><ele>470.27</ele><time>2026-03-10T00:53:45.000Z</time></trkpt>
        <trkpt lat="28.7959505" lon="105.9438862"><ele>468.18</ele><time>2026-03-10T00:53:53.000Z</time></trkpt>
        <trkpt lat="28.7959717" lon="105.9438615"><ele>467.16</ele><time>2026-03-10T00:53:59.000Z</time></trkpt>
        <trkpt lat="28.7960391" lon="105.9438327"><ele>466.32</ele><time>2026-03-10T00:54:19.000Z</time></trkpt>
        <trkpt lat="28.7961257" lon="105.9437652"><ele>466.58</ele><time>2026-03-10T00:54:27.000Z</time></trkpt>
        <trkpt lat="28.7962072" lon="105.9436737"><ele>466.17</ele><time>2026-03-10T00:54:35.000Z</time></trkpt>
        <trkpt lat="28.7962788" lon="105.9435639"><ele>465.29</ele><time>2026-03-10T00:54:43.000Z</time></trkpt>
        <trkpt lat="28.7963276" lon="105.9434472"><ele>464.32</ele><time>2026-03-10T00:54:51.000Z</time></trkpt>
        <trkpt lat="28.7964017" lon="105.9433711"><ele>463.94</ele><time>2026-03-10T00:55:01.000Z</time></trkpt>
        <trkpt lat="28.7964677" lon="105.9432785"><ele>461.99</ele><time>2026-03-10T00:55:07.000Z</time></trkpt>
        <trkpt lat="28.7965758" lon="105.9432399"><ele>461.36</ele><time>2026-03-10T00:55:15.000Z</time></trkpt>
        <trkpt lat="28.7966756" lon="105.9431761"><ele>461.57</ele><time>2026-03-10T00:55:25.000Z</time></trkpt>
        <trkpt lat="28.7967872" lon="105.9431252"><ele>459.3</ele><time>2026-03-10T00:55:37.000Z</time></trkpt>
        <trkpt lat="28.7969" lon="105.9431212"><ele>454.31</ele><time>2026-03-10T00:55:43.000Z</time></trkpt>
        <trkpt lat="28.7970048" lon="105.9430999"><ele>451.4</ele><time>2026-03-10T00:55:49.000Z</time></trkpt>
        <trkpt lat="28.7970591" lon="105.9430051"><ele>448.73</ele><time>2026-03-10T00:55:55.000Z</time></trkpt>
        <trkpt lat="28.7970778" lon="105.9428931"><ele>446.87</ele><time>2026-03-10T00:56:01.000Z</time></trkpt>
        <trkpt lat="28.797086" lon="105.9427782"><ele>445.02</ele><time>2026-03-10T00:56:07.000Z</time></trkpt>
        <trkpt lat="28.7970937" lon="105.9426698"><ele>444.19</ele><time>2026-03-10T00:56:13.000Z</time></trkpt>
        <trkpt lat="28.7970771" lon="105.9425311"><ele>444.37</ele><time>2026-03-10T00:56:21.000Z</time></trkpt>
        <trkpt lat="28.7970345" lon="105.9423775"><ele>443.79</ele><time>2026-03-10T00:56:27.000Z</time></trkpt>
        <trkpt lat="28.7970401" lon="105.9422419"><ele>442.27</ele><time>2026-03-10T00:56:31.000Z</time></trkpt>
        <trkpt lat="28.7971119" lon="105.9421606"><ele>441.54</ele><time>2026-03-10T00:56:39.000Z</time></trkpt>
        <trkpt lat="28.797215" lon="105.9420966"><ele>440.06</ele><time>2026-03-10T00:56:45.000Z</time></trkpt>
        <trkpt lat="28.7973254" lon="105.9420277"><ele>439.23</ele><time>2026-03-10T00:56:53.000Z</time></trkpt>
        <trkpt lat="28.7974134" lon="105.9419679"><ele>439.01</ele><time>2026-03-10T00:56:59.000Z</time></trkpt>
        <trkpt lat="28.797496" lon="105.9418883"><ele>439.21</ele><time>2026-03-10T00:57:07.000Z</time></trkpt>
        <trkpt lat="28.7975671" lon="105.9417796"><ele>439.41</ele><time>2026-03-10T00:57:15.000Z</time></trkpt>
        <trkpt lat="28.7976337" lon="105.9416647"><ele>439.84</ele><time>2026-03-10T00:57:21.000Z</time></trkpt>
        <trkpt lat="28.7976843" lon="105.9415632"><ele>440.64</ele><time>2026-03-10T00:57:27.000Z</time></trkpt>
        <trkpt lat="28.7977357" lon="105.9414554"><ele>440.12</ele><time>2026-03-10T00:57:33.000Z</time></trkpt>
        <trkpt lat="28.797781" lon="105.9413539"><ele>439.77</ele><time>2026-03-10T00:57:39.000Z</time></trkpt>
        <trkpt lat="28.7978323" lon="105.9412633"><ele>439.06</ele><time>2026-03-10T00:57:45.000Z</time></trkpt>
        <trkpt lat="28.7978722" lon="105.9411635"><ele>438.99</ele><time>2026-03-10T00:57:51.000Z</time></trkpt>
        <trkpt lat="28.7979236" lon="105.9410582"><ele>439.47</ele><time>2026-03-10T00:57:59.000Z</time></trkpt>
        <trkpt lat="28.7979894" lon="105.9409717"><ele>440.36</ele><time>2026-03-10T00:58:05.000Z</time></trkpt>
        <trkpt lat="28.7980711" lon="105.9409234"><ele>439.8</ele><time>2026-03-10T00:58:11.000Z</time></trkpt>
        <trkpt lat="28.7981396" lon="105.9408179"><ele>437.05</ele><time>2026-03-10T00:58:17.000Z</time></trkpt>
        <trkpt lat="28.7981913" lon="105.940684"><ele>433.54</ele><time>2026-03-10T00:58:23.000Z</time></trkpt>
        <trkpt lat="28.7982489" lon="105.9405743"><ele>429.66</ele><time>2026-03-10T00:58:29.000Z</time></trkpt>
        <trkpt lat="28.7983263" lon="105.9404822"><ele>425.76</ele><time>2026-03-10T00:58:35.000Z</time></trkpt>
        <trkpt lat="28.7984384" lon="105.9404445"><ele>422.94</ele><time>2026-03-10T00:58:41.000Z</time></trkpt>
        <trkpt lat="28.7985688" lon="105.9404689"><ele>420.03</ele><time>2026-03-10T00:58:47.000Z</time></trkpt>
        <trkpt lat="28.7987004" lon="105.9404904"><ele>418.44</ele><time>2026-03-10T00:58:53.000Z</time></trkpt>
        <trkpt lat="28.7988046" lon="105.9404686"><ele>416.61</ele><time>2026-03-10T00:58:57.000Z</time></trkpt>
        <trkpt lat="28.7988923" lon="105.9404304"><ele>414.54</ele><time>2026-03-10T00:59:03.000Z</time></trkpt>
        <trkpt lat="28.7989917" lon="105.9403919"><ele>412.97</ele><time>2026-03-10T00:59:11.000Z</time></trkpt>
        <trkpt lat="28.799097" lon="105.9403527"><ele>412.07</ele><time>2026-03-10T00:59:19.000Z</time></trkpt>
        <trkpt lat="28.7992093" lon="105.9403168"><ele>411.31</ele><time>2026-03-10T00:59:27.000Z</time></trkpt>
        <trkpt lat="28.7993223" lon="105.9402755"><ele>411.32</ele><time>2026-03-10T00:59:35.000Z</time></trkpt>
        <trkpt lat="28.7994289" lon="105.9402241"><ele>411</ele><time>2026-03-10T00:59:43.000Z</time></trkpt>
        <trkpt lat="28.799516" lon="105.940135"><ele>410.83</ele><time>2026-03-10T00:59:51.000Z</time></trkpt>
        <trkpt lat="28.7995848" lon="105.9400512"><ele>408.76</ele><time>2026-03-10T00:59:57.000Z</time></trkpt>
        <trkpt lat="28.7996607" lon="105.9399875"><ele>406.66</ele><time>2026-03-10T01:00:01.000Z</time></trkpt>
        <trkpt lat="28.799742" lon="105.9399348"><ele>405.27</ele><time>2026-03-10T01:00:07.000Z</time></trkpt>
        <trkpt lat="28.7998042" lon="105.9398628"><ele>404.25</ele><time>2026-03-10T01:00:15.000Z</time></trkpt>
        <trkpt lat="28.7998709" lon="105.9397861"><ele>404.26</ele><time>2026-03-10T01:00:29.000Z</time></trkpt>
        <trkpt lat="28.7999673" lon="105.939762"><ele>405.8</ele><time>2026-03-10T01:00:43.000Z</time></trkpt>
        <trkpt lat="28.8000475" lon="105.9397088"><ele>403.37</ele><time>2026-03-10T01:00:49.000Z</time></trkpt>
        <trkpt lat="28.8001153" lon="105.9396397"><ele>401.6</ele><time>2026-03-10T01:00:55.000Z</time></trkpt>
        <trkpt lat="28.8001735" lon="105.9395589"><ele>400.56</ele><time>2026-03-10T01:01:01.000Z</time></trkpt>
        <trkpt lat="28.8002183" lon="105.9394668"><ele>400.06</ele><time>2026-03-10T01:01:07.000Z</time></trkpt>
        <trkpt lat="28.8002541" lon="105.93937"><ele>399.82</ele><time>2026-03-10T01:01:13.000Z</time></trkpt>
        <trkpt lat="28.8003254" lon="105.9392755"><ele>399.6</ele><time>2026-03-10T01:01:21.000Z</time></trkpt>
        <trkpt lat="28.8004125" lon="105.9392206"><ele>399.67</ele><time>2026-03-10T01:01:27.000Z</time></trkpt>
        <trkpt lat="28.8005258" lon="105.9391832"><ele>400.07</ele><time>2026-03-10T01:01:35.000Z</time></trkpt>
        <trkpt lat="28.800643" lon="105.9391495"><ele>400.92</ele><time>2026-03-10T01:01:43.000Z</time></trkpt>
        <trkpt lat="28.8007587" lon="105.9391229"><ele>401.27</ele><time>2026-03-10T01:01:51.000Z</time></trkpt>
        <trkpt lat="28.8008687" lon="105.9390755"><ele>402.03</ele><time>2026-03-10T01:01:59.000Z</time></trkpt>
        <trkpt lat="28.8009587" lon="105.9390228"><ele>402.45</ele><time>2026-03-10T01:02:05.000Z</time></trkpt>
        <trkpt lat="28.801034" lon="105.9389637"><ele>403.18</ele><time>2026-03-10T01:02:11.000Z</time></trkpt>
        <trkpt lat="28.8010895" lon="105.9388842"><ele>403.19</ele><time>2026-03-10T01:02:17.000Z</time></trkpt>
        <trkpt lat="28.8011253" lon="105.9387812"><ele>402.9</ele><time>2026-03-10T01:02:23.000Z</time></trkpt>
        <trkpt lat="28.8011365" lon="105.9386659"><ele>403.53</ele><time>2026-03-10T01:02:29.000Z</time></trkpt>
        <trkpt lat="28.8011223" lon="105.9385556"><ele>404.06</ele><time>2026-03-10T01:02:35.000Z</time></trkpt>
        <trkpt lat="28.8010982" lon="105.9384465"><ele>404.69</ele><time>2026-03-10T01:02:41.000Z</time></trkpt>
        <trkpt lat="28.8010734" lon="105.938336"><ele>405.22</ele><time>2026-03-10T01:02:47.000Z</time></trkpt>
        <trkpt lat="28.8010461" lon="105.9382087"><ele>405.79</ele><time>2026-03-10T01:02:55.000Z</time></trkpt>
        <trkpt lat="28.8010301" lon="105.9380974"><ele>408.05</ele><time>2026-03-10T01:03:01.000Z</time></trkpt>
        <trkpt lat="28.8010452" lon="105.9379938"><ele>409.55</ele><time>2026-03-10T01:03:07.000Z</time></trkpt>
        <trkpt lat="28.8010962" lon="105.9378833"><ele>410.05</ele><time>2026-03-10T01:03:15.000Z</time></trkpt>
        <trkpt lat="28.8011507" lon="105.9377859"><ele>410.89</ele><time>2026-03-10T01:03:21.000Z</time></trkpt>
        <trkpt lat="28.8012072" lon="105.9376757"><ele>411.27</ele><time>2026-03-10T01:03:29.000Z</time></trkpt>
        <trkpt lat="28.8012435" lon="105.9375494"><ele>410.79</ele><time>2026-03-10T01:03:37.000Z</time></trkpt>
        <trkpt lat="28.8012751" lon="105.9374244"><ele>411.2</ele><time>2026-03-10T01:03:45.000Z</time></trkpt>
        <trkpt lat="28.8013372" lon="105.9373294"><ele>412.29</ele><time>2026-03-10T01:03:53.000Z</time></trkpt>
        <trkpt lat="28.8014147" lon="105.9372699"><ele>410.99</ele><time>2026-03-10T01:03:59.000Z</time></trkpt>
        <trkpt lat="28.8015188" lon="105.9372433"><ele>409.9</ele><time>2026-03-10T01:04:07.000Z</time></trkpt>
        <trkpt lat="28.8016214" lon="105.9372671"><ele>409.4</ele><time>2026-03-10T01:04:15.000Z</time></trkpt>
        <trkpt lat="28.8017258" lon="105.9373259"><ele>409.12</ele><time>2026-03-10T01:04:23.000Z</time></trkpt>
        <trkpt lat="28.801836" lon="105.9373797"><ele>409.41</ele><time>2026-03-10T01:04:31.000Z</time></trkpt>
        <trkpt lat="28.8019488" lon="105.9373975"><ele>409.77</ele><time>2026-03-10T01:04:39.000Z</time></trkpt>
        <trkpt lat="28.8020468" lon="105.937405"><ele>409.96</ele><time>2026-03-10T01:04:45.000Z</time></trkpt>
        <trkpt lat="28.8021208" lon="105.937462"><ele>410.53</ele><time>2026-03-10T01:04:51.000Z</time></trkpt>
        <trkpt lat="28.8021625" lon="105.9375597"><ele>411.12</ele><time>2026-03-10T01:04:57.000Z</time></trkpt>
        <trkpt lat="28.8022005" lon="105.9376634"><ele>412.48</ele><time>2026-03-10T01:05:03.000Z</time></trkpt>
        <trkpt lat="28.8022703" lon="105.9377584"><ele>413.52</ele><time>2026-03-10T01:05:11.000Z</time></trkpt>
        <trkpt lat="28.8023687" lon="105.937764"><ele>414.62</ele><time>2026-03-10T01:05:21.000Z</time></trkpt>
        <trkpt lat="28.8024611" lon="105.9376868"><ele>415.64</ele><time>2026-03-10T01:05:29.000Z</time></trkpt>
        <trkpt lat="28.8025124" lon="105.9375819"><ele>415.25</ele><time>2026-03-10T01:05:35.000Z</time></trkpt>
        <trkpt lat="28.8025434" lon="105.9374472"><ele>414.33</ele><time>2026-03-10T01:05:43.000Z</time></trkpt>
        <trkpt lat="28.8025714" lon="105.9373074"><ele>412.75</ele><time>2026-03-10T01:05:51.000Z</time></trkpt>
        <trkpt lat="28.802605" lon="105.9371721"><ele>411.68</ele><time>2026-03-10T01:05:59.000Z</time></trkpt>
        <trkpt lat="28.8026389" lon="105.9370396"><ele>410.87</ele><time>2026-03-10T01:06:07.000Z</time></trkpt>
        <trkpt lat="28.8026665" lon="105.9369302"><ele>410.13</ele><time>2026-03-10T01:06:13.000Z</time></trkpt>
        <trkpt lat="28.8026822" lon="105.9368257"><ele>409.64</ele><time>2026-03-10T01:06:19.000Z</time></trkpt>
        <trkpt lat="28.8026878" lon="105.936719"><ele>409.01</ele><time>2026-03-10T01:06:25.000Z</time></trkpt>
        <trkpt lat="28.8026746" lon="105.9366154"><ele>408.85</ele><time>2026-03-10T01:06:31.000Z</time></trkpt>
        <trkpt lat="28.8026287" lon="105.9365088"><ele>408.91</ele><time>2026-03-10T01:06:39.000Z</time></trkpt>
        <trkpt lat="28.8025674" lon="105.9363937"><ele>410.06</ele><time>2026-03-10T01:06:47.000Z</time></trkpt>
        <trkpt lat="28.8025424" lon="105.9362796"><ele>411.42</ele><time>2026-03-10T01:06:53.000Z</time></trkpt>
        <trkpt lat="28.8025783" lon="105.9361617"><ele>412.69</ele><time>2026-03-10T01:07:01.000Z</time></trkpt>
        <trkpt lat="28.8026431" lon="105.9360577"><ele>413.88</ele><time>2026-03-10T01:07:09.000Z</time></trkpt>
        <trkpt lat="28.8026906" lon="105.935961"><ele>415.04</ele><time>2026-03-10T01:07:15.000Z</time></trkpt>
        <trkpt lat="28.8027209" lon="105.9358578"><ele>415.6</ele><time>2026-03-10T01:07:21.000Z</time></trkpt>
        <trkpt lat="28.8027458" lon="105.9357522"><ele>416.18</ele><time>2026-03-10T01:07:27.000Z</time></trkpt>
        <trkpt lat="28.8027992" lon="105.9356443"><ele>416.77</ele><time>2026-03-10T01:07:35.000Z</time></trkpt>
        <trkpt lat="28.8028723" lon="105.9355368"><ele>417.8</ele><time>2026-03-10T01:07:43.000Z</time></trkpt>
        <trkpt lat="28.8029265" lon="105.9354396"><ele>419.59</ele><time>2026-03-10T01:07:49.000Z</time></trkpt>
        <trkpt lat="28.8029575" lon="105.935337"><ele>421.84</ele><time>2026-03-10T01:07:57.000Z</time></trkpt>
        <trkpt lat="28.8029904" lon="105.9352361"><ele>425</ele><time>2026-03-10T01:08:05.000Z</time></trkpt>
        <trkpt lat="28.8030356" lon="105.9351206"><ele>427.47</ele><time>2026-03-10T01:08:15.000Z</time></trkpt>
        <trkpt lat="28.8030605" lon="105.9349988"><ele>429.71</ele><time>2026-03-10T01:08:23.000Z</time></trkpt>
        <trkpt lat="28.803058" lon="105.934874"><ele>431.3</ele><time>2026-03-10T01:08:31.000Z</time></trkpt>
        <trkpt lat="28.803031" lon="105.9347516"><ele>433.46</ele><time>2026-03-10T01:08:41.000Z</time></trkpt>
        <trkpt lat="28.8029638" lon="105.9346517"><ele>437.22</ele><time>2026-03-10T01:08:49.000Z</time></trkpt>
        <trkpt lat="28.8029012" lon="105.9345647"><ele>441.83</ele><time>2026-03-10T01:08:57.000Z</time></trkpt>
        <trkpt lat="28.8028497" lon="105.9344706"><ele>445.7</ele><time>2026-03-10T01:09:05.000Z</time></trkpt>
        <trkpt lat="28.8028184" lon="105.9343669"><ele>449.03</ele><time>2026-03-10T01:09:13.000Z</time></trkpt>
        <trkpt lat="28.8028483" lon="105.9342618"><ele>449.49</ele><time>2026-03-10T01:09:21.000Z</time></trkpt>
        <trkpt lat="28.8029398" lon="105.9342507"><ele>447.49</ele><time>2026-03-10T01:09:29.000Z</time></trkpt>
        <trkpt lat="28.8030522" lon="105.9342959"><ele>445.06</ele><time>2026-03-10T01:09:37.000Z</time></trkpt>
        <trkpt lat="28.803168" lon="105.9343574"><ele>442.9</ele><time>2026-03-10T01:09:45.000Z</time></trkpt>
        <trkpt lat="28.8032715" lon="105.9344027"><ele>440.7</ele><time>2026-03-10T01:09:51.000Z</time></trkpt>
        <trkpt lat="28.8033823" lon="105.9344428"><ele>438.27</ele><time>2026-03-10T01:09:57.000Z</time></trkpt>
        <trkpt lat="28.8034811" lon="105.9344496"><ele>436.96</ele><time>2026-03-10T01:10:03.000Z</time></trkpt>
        <trkpt lat="28.8035637" lon="105.9344092"><ele>435.69</ele><time>2026-03-10T01:10:09.000Z</time></trkpt>
        <trkpt lat="28.8036171" lon="105.934298"><ele>434.02</ele><time>2026-03-10T01:10:17.000Z</time></trkpt>
        <trkpt lat="28.8036593" lon="105.934165"><ele>433.49</ele><time>2026-03-10T01:10:25.000Z</time></trkpt>
        <trkpt lat="28.8037261" lon="105.934062"><ele>433.03</ele><time>2026-03-10T01:10:33.000Z</time></trkpt>
        <trkpt lat="28.8038325" lon="105.934024"><ele>432.8</ele><time>2026-03-10T01:10:41.000Z</time></trkpt>
        <trkpt lat="28.8039353" lon="105.934021"><ele>432.72</ele><time>2026-03-10T01:10:47.000Z</time></trkpt>
        <trkpt lat="28.8040302" lon="105.9340125"><ele>432.41</ele><time>2026-03-10T01:10:53.000Z</time></trkpt>
        <trkpt lat="28.8041195" lon="105.9340361"><ele>431.86</ele><time>2026-03-10T01:10:59.000Z</time></trkpt>
        <trkpt lat="28.8042087" lon="105.9340544"><ele>431.57</ele><time>2026-03-10T01:11:05.000Z</time></trkpt>
        <trkpt lat="28.8042978" lon="105.934079"><ele>431.22</ele><time>2026-03-10T01:11:11.000Z</time></trkpt>
        <trkpt lat="28.8044069" lon="105.9340867"><ele>431.23</ele><time>2026-03-10T01:11:19.000Z</time></trkpt>
        <trkpt lat="28.8045207" lon="105.9341125"><ele>431.91</ele><time>2026-03-10T01:11:27.000Z</time></trkpt>
        <trkpt lat="28.804641" lon="105.9341286"><ele>432.6</ele><time>2026-03-10T01:11:35.000Z</time></trkpt>
        <trkpt lat="28.8047449" lon="105.9340762"><ele>433.01</ele><time>2026-03-10T01:11:43.000Z</time></trkpt>
        <trkpt lat="28.8048253" lon="105.9339701"><ele>432.42</ele><time>2026-03-10T01:11:51.000Z</time></trkpt>
        <trkpt lat="28.8048972" lon="105.9338669"><ele>431.68</ele><time>2026-03-10T01:11:57.000Z</time></trkpt>
        <trkpt lat="28.8049566" lon="105.9337683"><ele>432.03</ele><time>2026-03-10T01:12:03.000Z</time></trkpt>
        <trkpt lat="28.8050306" lon="105.933697"><ele>432.75</ele><time>2026-03-10T01:12:09.000Z</time></trkpt>
        <trkpt lat="28.8051173" lon="105.9336629"><ele>433.8</ele><time>2026-03-10T01:12:15.000Z</time></trkpt>
        <trkpt lat="28.8052292" lon="105.9336439"><ele>434.97</ele><time>2026-03-10T01:12:23.000Z</time></trkpt>
        <trkpt lat="28.8053277" lon="105.933591"><ele>436.27</ele><time>2026-03-10T01:12:31.000Z</time></trkpt>
        <trkpt lat="28.8054177" lon="105.9335168"><ele>437.59</ele><time>2026-03-10T01:12:39.000Z</time></trkpt>
        <trkpt lat="28.8054886" lon="105.9334341"><ele>437.82</ele><time>2026-03-10T01:12:45.000Z</time></trkpt>
        <trkpt lat="28.8055729" lon="105.9333865"><ele>437.87</ele><time>2026-03-10T01:12:49.000Z</time></trkpt>
        <trkpt lat="28.8056836" lon="105.9333311"><ele>437.08</ele><time>2026-03-10T01:12:55.000Z</time></trkpt>
        <trkpt lat="28.8057582" lon="105.9332539"><ele>435.72</ele><time>2026-03-10T01:12:59.000Z</time></trkpt>
        <trkpt lat="28.8057681" lon="105.9331448"><ele>434.35</ele><time>2026-03-10T01:13:07.000Z</time></trkpt>
        <trkpt lat="28.8057411" lon="105.9330157"><ele>434.35</ele><time>2026-03-10T01:13:17.000Z</time></trkpt>
        <trkpt lat="28.8057177" lon="105.9329016"><ele>435.59</ele><time>2026-03-10T01:13:23.000Z</time></trkpt>
        <trkpt lat="28.8056973" lon="105.9327829"><ele>435.91</ele><time>2026-03-10T01:13:33.000Z</time></trkpt>
        <trkpt lat="28.8057412" lon="105.9326827"><ele>435.41</ele><time>2026-03-10T01:13:41.000Z</time></trkpt>
        <trkpt lat="28.8057868" lon="105.9325834"><ele>432.33</ele><time>2026-03-10T01:13:47.000Z</time></trkpt>
        <trkpt lat="28.8058241" lon="105.9324852"><ele>430.01</ele><time>2026-03-10T01:13:55.000Z</time></trkpt>
        <trkpt lat="28.8058437" lon="105.932382"><ele>425.79</ele><time>2026-03-10T01:14:03.000Z</time></trkpt>
        <trkpt lat="28.8059127" lon="105.9323026"><ele>422.34</ele><time>2026-03-10T01:14:15.000Z</time></trkpt>
        <trkpt lat="28.806007" lon="105.932271"><ele>418.58</ele><time>2026-03-10T01:14:27.000Z</time></trkpt>
        <trkpt lat="28.8061047" lon="105.9322398"><ele>415.31</ele><time>2026-03-10T01:14:39.000Z</time></trkpt>
        <trkpt lat="28.806198" lon="105.9322128"><ele>414.04</ele><time>2026-03-10T01:14:51.000Z</time></trkpt>
        <trkpt lat="28.806304" lon="105.9322044"><ele>410.59</ele><time>2026-03-10T01:15:03.000Z</time></trkpt>
        <trkpt lat="28.806412" lon="105.9321877"><ele>408.82</ele><time>2026-03-10T01:15:13.000Z</time></trkpt>
        <trkpt lat="28.8065061" lon="105.9321628"><ele>407.41</ele><time>2026-03-10T01:15:23.000Z</time></trkpt>
        <trkpt lat="28.8065982" lon="105.9321149"><ele>406.32</ele><time>2026-03-10T01:15:33.000Z</time></trkpt>
        <trkpt lat="28.8066992" lon="105.9321027"><ele>405.24</ele><time>2026-03-10T01:15:45.000Z</time></trkpt>
        <trkpt lat="28.8067981" lon="105.9321159"><ele>401.59</ele><time>2026-03-10T01:15:55.000Z</time></trkpt>
        <trkpt lat="28.8068869" lon="105.9321478"><ele>397.4</ele><time>2026-03-10T01:16:05.000Z</time></trkpt>
        <trkpt lat="28.8069914" lon="105.9321499"><ele>394.47</ele><time>2026-03-10T01:16:17.000Z</time></trkpt>
        <trkpt lat="28.8070795" lon="105.9321136"><ele>392.76</ele><time>2026-03-10T01:16:27.000Z</time></trkpt>
        <trkpt lat="28.8071791" lon="105.93208"><ele>389.67</ele><time>2026-03-10T01:16:39.000Z</time></trkpt>
        <trkpt lat="28.8072769" lon="105.9320663"><ele>388.38</ele><time>2026-03-10T01:16:47.000Z</time></trkpt>
        <trkpt lat="28.8073757" lon="105.9320694"><ele>387.55</ele><time>2026-03-10T01:16:57.000Z</time></trkpt>
        <trkpt lat="28.8074317" lon="105.9319935"><ele>387.35</ele><time>2026-03-10T01:17:07.000Z</time></trkpt>
        <trkpt lat="28.8074698" lon="105.9318867"><ele>386.61</ele><time>2026-03-10T01:17:21.000Z</time></trkpt>
        <trkpt lat="28.8074976" lon="105.9318214"><ele>383.68</ele><time>2026-03-10T01:17:33.000Z</time></trkpt>
        <trkpt lat="28.8075678" lon="105.9317561"><ele>381.21</ele><time>2026-03-10T01:17:53.000Z</time></trkpt>
        <trkpt lat="28.8076468" lon="105.9317009"><ele>379.53</ele><time>2026-03-10T01:18:01.000Z</time></trkpt>
        <trkpt lat="28.8077354" lon="105.9316454"><ele>377.32</ele><time>2026-03-10T01:18:09.000Z</time></trkpt>
        <trkpt lat="28.8078197" lon="105.931567"><ele>374.89</ele><time>2026-03-10T01:18:17.000Z</time></trkpt>
        <trkpt lat="28.8079092" lon="105.931511"><ele>372.25</ele><time>2026-03-10T01:18:25.000Z</time></trkpt>
        <trkpt lat="28.8079984" lon="105.9314735"><ele>369.82</ele><time>2026-03-10T01:18:33.000Z</time></trkpt>
        <trkpt lat="28.8080984" lon="105.9314711"><ele>367.81</ele><time>2026-03-10T01:18:41.000Z</time></trkpt>
        <trkpt lat="28.8081856" lon="105.9314341"><ele>366.84</ele><time>2026-03-10T01:18:49.000Z</time></trkpt>
        <trkpt lat="28.8082866" lon="105.9314349"><ele>365.33</ele><time>2026-03-10T01:18:59.000Z</time></trkpt>
        <trkpt lat="28.8083807" lon="105.9314334"><ele>363.52</ele><time>2026-03-10T01:19:05.000Z</time></trkpt>
        <trkpt lat="28.8084702" lon="105.9314006"><ele>362.57</ele><time>2026-03-10T01:19:13.000Z</time></trkpt>
        <trkpt lat="28.8085613" lon="105.9313469"><ele>360.46</ele><time>2026-03-10T01:19:21.000Z</time></trkpt>
        <trkpt lat="28.8086395" lon="105.9312581"><ele>358.7</ele><time>2026-03-10T01:19:31.000Z</time></trkpt>
        <trkpt lat="28.8086736" lon="105.931153"><ele>356.16</ele><time>2026-03-10T01:19:47.000Z</time></trkpt>
        <trkpt lat="28.8087154" lon="105.9310407"><ele>353.13</ele><time>2026-03-10T01:19:57.000Z</time></trkpt>
        <trkpt lat="28.8088173" lon="105.9310229"><ele>348.17</ele><time>2026-03-10T01:20:03.000Z</time></trkpt>
        <trkpt lat="28.8089166" lon="105.9310473"><ele>344.46</ele><time>2026-03-10T01:20:07.000Z</time></trkpt>
        <trkpt lat="28.8090167" lon="105.9311146"><ele>342.68</ele><time>2026-03-10T01:20:11.000Z</time></trkpt>
        <trkpt lat="28.8091202" lon="105.9311377"><ele>342.8</ele><time>2026-03-10T01:20:15.000Z</time></trkpt>
        <trkpt lat="28.8092102" lon="105.9311087"><ele>343.01</ele><time>2026-03-10T01:20:19.000Z</time></trkpt>
        <trkpt lat="28.8092854" lon="105.9310421"><ele>343.85</ele><time>2026-03-10T01:20:23.000Z</time></trkpt>
        <trkpt lat="28.8093657" lon="105.9309759"><ele>344.7</ele><time>2026-03-10T01:20:27.000Z</time></trkpt>
        <trkpt lat="28.809468" lon="105.9309058"><ele>344.92</ele><time>2026-03-10T01:20:33.000Z</time></trkpt>
        <trkpt lat="28.8095567" lon="105.9308491"><ele>344.03</ele><time>2026-03-10T01:20:37.000Z</time></trkpt>
        <trkpt lat="28.8096418" lon="105.9307868"><ele>343.52</ele><time>2026-03-10T01:20:41.000Z</time></trkpt>
        <trkpt lat="28.8097158" lon="105.9306763"><ele>343.18</ele><time>2026-03-10T01:20:47.000Z</time></trkpt>
        <trkpt lat="28.8097823" lon="105.9305602"><ele>342.19</ele><time>2026-03-10T01:20:55.000Z</time></trkpt>
        <trkpt lat="28.8098459" lon="105.9304442"><ele>340.96</ele><time>2026-03-10T01:21:03.000Z</time></trkpt>
        <trkpt lat="28.8098949" lon="105.9303456"><ele>339.52</ele><time>2026-03-10T01:21:09.000Z</time></trkpt>
        <trkpt lat="28.8099235" lon="105.9302252"><ele>338.01</ele><time>2026-03-10T01:21:17.000Z</time></trkpt>
        <trkpt lat="28.8099704" lon="105.9301311"><ele>335.85</ele><time>2026-03-10T01:21:25.000Z</time></trkpt>
        <trkpt lat="28.8100553" lon="105.9300384"><ele>332.12</ele><time>2026-03-10T01:21:31.000Z</time></trkpt>
        <trkpt lat="28.8101464" lon="105.9299601"><ele>330.17</ele><time>2026-03-10T01:21:35.000Z</time></trkpt>
        <trkpt lat="28.8102416" lon="105.9298988"><ele>329.56</ele><time>2026-03-10T01:21:41.000Z</time></trkpt>
        <trkpt lat="28.8103184" lon="105.9298312"><ele>329.79</ele><time>2026-03-10T01:21:47.000Z</time></trkpt>
        <trkpt lat="28.8103828" lon="105.9297386"><ele>330</ele><time>2026-03-10T01:21:55.000Z</time></trkpt>
        <trkpt lat="28.8104506" lon="105.9296382"><ele>330.12</ele><time>2026-03-10T01:22:03.000Z</time></trkpt>
        <trkpt lat="28.8105489" lon="105.9295971"><ele>330.05</ele><time>2026-03-10T01:22:11.000Z</time></trkpt>
        <trkpt lat="28.8106511" lon="105.9295384"><ele>329.34</ele><time>2026-03-10T01:22:19.000Z</time></trkpt>
        <trkpt lat="28.8107612" lon="105.9294803"><ele>327.79</ele><time>2026-03-10T01:22:27.000Z</time></trkpt>
        <trkpt lat="28.8108624" lon="105.9294246"><ele>326.57</ele><time>2026-03-10T01:22:35.000Z</time></trkpt>
        <trkpt lat="28.8109513" lon="105.9293766"><ele>325.57</ele><time>2026-03-10T01:22:41.000Z</time></trkpt>
        <trkpt lat="28.8110438" lon="105.9293213"><ele>325.28</ele><time>2026-03-10T01:22:49.000Z</time></trkpt>
        <trkpt lat="28.8111409" lon="105.9292816"><ele>325.01</ele><time>2026-03-10T01:22:57.000Z</time></trkpt>
        <trkpt lat="28.8112283" lon="105.9292352"><ele>324.65</ele><time>2026-03-10T01:23:05.000Z</time></trkpt>
        <trkpt lat="28.8113087" lon="105.9291517"><ele>324.29</ele><time>2026-03-10T01:23:13.000Z</time></trkpt>
        <trkpt lat="28.8113856" lon="105.9290593"><ele>323.46</ele><time>2026-03-10T01:23:21.000Z</time></trkpt>
        <trkpt lat="28.8114847" lon="105.9290293"><ele>322.73</ele><time>2026-03-10T01:23:29.000Z</time></trkpt>
        <trkpt lat="28.8115918" lon="105.9290684"><ele>322.58</ele><time>2026-03-10T01:23:37.000Z</time></trkpt>
        <trkpt lat="28.8117025" lon="105.9291082"><ele>322.74</ele><time>2026-03-10T01:23:45.000Z</time></trkpt>
        <trkpt lat="28.8118147" lon="105.9291308"><ele>322.72</ele><time>2026-03-10T01:23:53.000Z</time></trkpt>
        <trkpt lat="28.811918" lon="105.9291828"><ele>322.8</ele><time>2026-03-10T01:24:01.000Z</time></trkpt>
        <trkpt lat="28.8120098" lon="105.9292457"><ele>323.49</ele><time>2026-03-10T01:24:09.000Z</time></trkpt>
        <trkpt lat="28.8121121" lon="105.9292714"><ele>323.94</ele><time>2026-03-10T01:24:17.000Z</time></trkpt>
        <trkpt lat="28.8122194" lon="105.9292463"><ele>323.82</ele><time>2026-03-10T01:24:25.000Z</time></trkpt>
        <trkpt lat="28.8123094" lon="105.9292713"><ele>322.38</ele><time>2026-03-10T01:24:31.000Z</time></trkpt>
        <trkpt lat="28.8123688" lon="105.9293444"><ele>321.76</ele><time>2026-03-10T01:24:37.000Z</time></trkpt>
        <trkpt lat="28.8124255" lon="105.929427"><ele>321.54</ele><time>2026-03-10T01:24:43.000Z</time></trkpt>
        <trkpt lat="28.8125137" lon="105.9294969"><ele>321.86</ele><time>2026-03-10T01:24:51.000Z</time></trkpt>
        <trkpt lat="28.8126212" lon="105.9295222"><ele>322.41</ele><time>2026-03-10T01:24:59.000Z</time></trkpt>
        <trkpt lat="28.8126935" lon="105.9294617"><ele>322.55</ele><time>2026-03-10T01:25:05.000Z</time></trkpt>
        <trkpt lat="28.8127238" lon="105.9293518"><ele>321.48</ele><time>2026-03-10T01:25:11.000Z</time></trkpt>
        <trkpt lat="28.8127614" lon="105.9292321"><ele>319.79</ele><time>2026-03-10T01:25:17.000Z</time></trkpt>
        <trkpt lat="28.8128188" lon="105.9291369"><ele>317.99</ele><time>2026-03-10T01:25:21.000Z</time></trkpt>
        <trkpt lat="28.8128944" lon="105.9290573"><ele>316.37</ele><time>2026-03-10T01:25:27.000Z</time></trkpt>
        <trkpt lat="28.8129933" lon="105.9289906"><ele>315.36</ele><time>2026-03-10T01:25:35.000Z</time></trkpt>
        <trkpt lat="28.8130864" lon="105.9289479"><ele>314.54</ele><time>2026-03-10T01:25:41.000Z</time></trkpt>
        <trkpt lat="28.8131773" lon="105.9289641"><ele>314.52</ele><time>2026-03-10T01:25:47.000Z</time></trkpt>
        <trkpt lat="28.8132325" lon="105.9290698"><ele>314.93</ele><time>2026-03-10T01:25:55.000Z</time></trkpt>
        <trkpt lat="28.8132844" lon="105.9291948"><ele>315.3</ele><time>2026-03-10T01:26:03.000Z</time></trkpt>
        <trkpt lat="28.8133467" lon="105.9292887"><ele>315.78</ele><time>2026-03-10T01:26:09.000Z</time></trkpt>
        <trkpt lat="28.8134172" lon="105.9293638"><ele>315.94</ele><time>2026-03-10T01:26:15.000Z</time></trkpt>
        <trkpt lat="28.8134979" lon="105.9294131"><ele>316.18</ele><time>2026-03-10T01:26:21.000Z</time></trkpt>
        <trkpt lat="28.8136039" lon="105.9294521"><ele>316.26</ele><time>2026-03-10T01:26:29.000Z</time></trkpt>
        <trkpt lat="28.8137219" lon="105.9294829"><ele>315.99</ele><time>2026-03-10T01:26:37.000Z</time></trkpt>
        <trkpt lat="28.8138224" lon="105.9295156"><ele>315.06</ele><time>2026-03-10T01:26:43.000Z</time></trkpt>
        <trkpt lat="28.8139151" lon="105.9295432"><ele>313.97</ele><time>2026-03-10T01:26:49.000Z</time></trkpt>
        <trkpt lat="28.8140035" lon="105.9295704"><ele>313.3</ele><time>2026-03-10T01:26:55.000Z</time></trkpt>
        <trkpt lat="28.8140355" lon="105.929536"><ele>313.32</ele><time>2026-03-10T01:26:59.000Z</time></trkpt>
        <trkpt lat="28.8140416" lon="105.9294272"><ele>312.78</ele><time>2026-03-10T01:27:11.000Z</time></trkpt>
        <trkpt lat="28.8141228" lon="105.9293709"><ele>310.88</ele><time>2026-03-10T01:27:19.000Z</time></trkpt>
        <trkpt lat="28.814223" lon="105.9293306"><ele>309.24</ele><time>2026-03-10T01:27:27.000Z</time></trkpt>
        <trkpt lat="28.8143204" lon="105.9292592"><ele>306.87</ele><time>2026-03-10T01:27:33.000Z</time></trkpt>
        <trkpt lat="28.8143851" lon="105.9291423"><ele>305.16</ele><time>2026-03-10T01:27:39.000Z</time></trkpt>
        <trkpt lat="28.8144706" lon="105.9291236"><ele>304.37</ele><time>2026-03-10T01:27:43.000Z</time></trkpt>
        <trkpt lat="28.8145606" lon="105.9291789"><ele>303.47</ele><time>2026-03-10T01:27:47.000Z</time></trkpt>
        <trkpt lat="28.8146545" lon="105.9292284"><ele>303.23</ele><time>2026-03-10T01:27:51.000Z</time></trkpt>
        <trkpt lat="28.8147545" lon="105.9292471"><ele>302.64</ele><time>2026-03-10T01:27:55.000Z</time></trkpt>
        <trkpt lat="28.8148562" lon="105.9292237"><ele>302.28</ele><time>2026-03-10T01:27:59.000Z</time></trkpt>
        <trkpt lat="28.8149367" lon="105.9291581"><ele>301.36</ele><time>2026-03-10T01:28:03.000Z</time></trkpt>
        <trkpt lat="28.8150321" lon="105.92909"><ele>300.71</ele><time>2026-03-10T01:28:09.000Z</time></trkpt>
        <trkpt lat="28.8151408" lon="105.929075"><ele>300.48</ele><time>2026-03-10T01:28:17.000Z</time></trkpt>
        <trkpt lat="28.8152492" lon="105.9290481"><ele>300.15</ele><time>2026-03-10T01:28:25.000Z</time></trkpt>
        <trkpt lat="28.8153396" lon="105.9290808"><ele>299.39</ele><time>2026-03-10T01:28:31.000Z</time></trkpt>
        <trkpt lat="28.815436" lon="105.9291541"><ele>299.17</ele><time>2026-03-10T01:28:39.000Z</time></trkpt>
        <trkpt lat="28.8155343" lon="105.9291769"><ele>300.32</ele><time>2026-03-10T01:28:47.000Z</time></trkpt>
        <trkpt lat="28.8156254" lon="105.9291158"><ele>300.07</ele><time>2026-03-10T01:28:55.000Z</time></trkpt>
        <trkpt lat="28.8157202" lon="105.9290355"><ele>298.74</ele><time>2026-03-10T01:29:03.000Z</time></trkpt>
        <trkpt lat="28.8158094" lon="105.9290311"><ele>297.87</ele><time>2026-03-10T01:29:09.000Z</time></trkpt>
        <trkpt lat="28.8158954" lon="105.9290637"><ele>297.51</ele><time>2026-03-10T01:29:15.000Z</time></trkpt>
        <trkpt lat="28.8159875" lon="105.9291079"><ele>298.38</ele><time>2026-03-10T01:29:23.000Z</time></trkpt>
        <trkpt lat="28.8160931" lon="105.929131"><ele>299.29</ele><time>2026-03-10T01:29:31.000Z</time></trkpt>
        <trkpt lat="28.8162108" lon="105.9291522"><ele>299.52</ele><time>2026-03-10T01:29:39.000Z</time></trkpt>
        <trkpt lat="28.816308" lon="105.9291928"><ele>298.25</ele><time>2026-03-10T01:29:43.000Z</time></trkpt>
        <trkpt lat="28.8164116" lon="105.9292431"><ele>297.77</ele><time>2026-03-10T01:29:49.000Z</time></trkpt>
        <trkpt lat="28.8165096" lon="105.9292422"><ele>297.55</ele><time>2026-03-10T01:29:55.000Z</time></trkpt>
        <trkpt lat="28.8166094" lon="105.9292392"><ele>297.03</ele><time>2026-03-10T01:30:03.000Z</time></trkpt>
        <trkpt lat="28.816683" lon="105.9291611"><ele>295.1</ele><time>2026-03-10T01:30:11.000Z</time></trkpt>
        <trkpt lat="28.816691" lon="105.929045"><ele>292.24</ele><time>2026-03-10T01:30:17.000Z</time></trkpt>
        <trkpt lat="28.8166421" lon="105.9289075"><ele>290.44</ele><time>2026-03-10T01:30:25.000Z</time></trkpt>
        <trkpt lat="28.8166052" lon="105.9287595"><ele>288.22</ele><time>2026-03-10T01:30:31.000Z</time></trkpt>
        <trkpt lat="28.8166653" lon="105.928686"><ele>287.32</ele><time>2026-03-10T01:30:35.000Z</time></trkpt>
        <trkpt lat="28.8167633" lon="105.9286591"><ele>286.77</ele><time>2026-03-10T01:30:39.000Z</time></trkpt>
        <trkpt lat="28.816867" lon="105.9286972"><ele>286.93</ele><time>2026-03-10T01:30:45.000Z</time></trkpt>
        <trkpt lat="28.8169789" lon="105.9287537"><ele>287.74</ele><time>2026-03-10T01:30:53.000Z</time></trkpt>
        <trkpt lat="28.8170841" lon="105.9288229"><ele>288.26</ele><time>2026-03-10T01:31:01.000Z</time></trkpt>
        <trkpt lat="28.8171861" lon="105.9288607"><ele>288.5</ele><time>2026-03-10T01:31:09.000Z</time></trkpt>
        <trkpt lat="28.8172769" lon="105.928818"><ele>288.89</ele><time>2026-03-10T01:31:19.000Z</time></trkpt>
        <trkpt lat="28.8173289" lon="105.9287206"><ele>289.3</ele><time>2026-03-10T01:31:29.000Z</time></trkpt>
        <trkpt lat="28.8173963" lon="105.9286426"><ele>290.05</ele><time>2026-03-10T01:31:37.000Z</time></trkpt>
        <trkpt lat="28.8174652" lon="105.9285469"><ele>289.88</ele><time>2026-03-10T01:31:47.000Z</time></trkpt>
        <trkpt lat="28.8175309" lon="105.928446"><ele>290.27</ele><time>2026-03-10T01:31:55.000Z</time></trkpt>
        <trkpt lat="28.8176036" lon="105.9283506"><ele>289.08</ele><time>2026-03-10T01:32:03.000Z</time></trkpt>
        <trkpt lat="28.817665" lon="105.9282377"><ele>288.06</ele><time>2026-03-10T01:32:11.000Z</time></trkpt>
        <trkpt lat="28.817722" lon="105.9281178"><ele>287.34</ele><time>2026-03-10T01:32:19.000Z</time></trkpt>
        <trkpt lat="28.8177684" lon="105.9279948"><ele>287.02</ele><time>2026-03-10T01:32:27.000Z</time></trkpt>
        <trkpt lat="28.8177916" lon="105.9278663"><ele>286.83</ele><time>2026-03-10T01:32:35.000Z</time></trkpt>
        <trkpt lat="28.8178095" lon="105.9277445"><ele>286.91</ele><time>2026-03-10T01:32:43.000Z</time></trkpt>
        <trkpt lat="28.8178753" lon="105.9276663"><ele>287.46</ele><time>2026-03-10T01:32:51.000Z</time></trkpt>
        <trkpt lat="28.8179688" lon="105.9276261"><ele>288.37</ele><time>2026-03-10T01:32:59.000Z</time></trkpt>
        <trkpt lat="28.8180526" lon="105.9276691"><ele>290.34</ele><time>2026-03-10T01:33:05.000Z</time></trkpt>
        <trkpt lat="28.8181378" lon="105.9277479"><ele>292.18</ele><time>2026-03-10T01:33:13.000Z</time></trkpt>
        <trkpt lat="28.8182301" lon="105.927832"><ele>293.45</ele><time>2026-03-10T01:33:21.000Z</time></trkpt>
        <trkpt lat="28.8183343" lon="105.9278687"><ele>294.25</ele><time>2026-03-10T01:33:29.000Z</time></trkpt>
        <trkpt lat="28.8184429" lon="105.9278633"><ele>294.55</ele><time>2026-03-10T01:33:37.000Z</time></trkpt>
        <trkpt lat="28.8185535" lon="105.9278373"><ele>295.03</ele><time>2026-03-10T01:33:45.000Z</time></trkpt>
        <trkpt lat="28.8186599" lon="105.9277992"><ele>295.44</ele><time>2026-03-10T01:33:53.000Z</time></trkpt>
        <trkpt lat="28.818767" lon="105.9278038"><ele>295.34</ele><time>2026-03-10T01:34:01.000Z</time></trkpt>
        <trkpt lat="28.8188669" lon="105.9278541"><ele>294.83</ele><time>2026-03-10T01:34:07.000Z</time></trkpt>
        <trkpt lat="28.8189782" lon="105.9279063"><ele>294.01</ele><time>2026-03-10T01:34:13.000Z</time></trkpt>
        <trkpt lat="28.8190625" lon="105.9279293"><ele>292.96</ele><time>2026-03-10T01:34:21.000Z</time></trkpt>
        <trkpt lat="28.8191716" lon="105.9279839"><ele>291.84</ele><time>2026-03-10T01:34:29.000Z</time></trkpt>
        <trkpt lat="28.8192889" lon="105.9280587"><ele>290.49</ele><time>2026-03-10T01:34:37.000Z</time></trkpt>
        <trkpt lat="28.8193721" lon="105.9281422"><ele>289.85</ele><time>2026-03-10T01:34:41.000Z</time></trkpt>
        <trkpt lat="28.81945" lon="105.9282053"><ele>289.5</ele><time>2026-03-10T01:34:45.000Z</time></trkpt>
        <trkpt lat="28.8195584" lon="105.9282651"><ele>289.11</ele><time>2026-03-10T01:34:51.000Z</time></trkpt>
        <trkpt lat="28.8196548" lon="105.9283172"><ele>288.52</ele><time>2026-03-10T01:34:57.000Z</time></trkpt>
        <trkpt lat="28.8197558" lon="105.9283116"><ele>287.75</ele><time>2026-03-10T01:35:09.000Z</time></trkpt>
        <trkpt lat="28.8198433" lon="105.9282655"><ele>285.7</ele><time>2026-03-10T01:35:19.000Z</time></trkpt>
        <trkpt lat="28.8199275" lon="105.928213"><ele>282.8</ele><time>2026-03-10T01:35:29.000Z</time></trkpt>
        <trkpt lat="28.8200072" lon="105.9281537"><ele>279.94</ele><time>2026-03-10T01:35:37.000Z</time></trkpt>
        <trkpt lat="28.8200951" lon="105.9281277"><ele>277.01</ele><time>2026-03-10T01:35:45.000Z</time></trkpt>
        <trkpt lat="28.8201839" lon="105.9280887"><ele>274.09</ele><time>2026-03-10T01:35:53.000Z</time></trkpt>
        <trkpt lat="28.8202767" lon="105.928077"><ele>270.94</ele><time>2026-03-10T01:36:01.000Z</time></trkpt>
        <trkpt lat="28.8203665" lon="105.9280539"><ele>268.21</ele><time>2026-03-10T01:36:09.000Z</time></trkpt>
        <trkpt lat="28.820475" lon="105.9280732"><ele>265.71</ele><time>2026-03-10T01:36:19.000Z</time></trkpt>
        <trkpt lat="28.8205822" lon="105.9280697"><ele>263.19</ele><time>2026-03-10T01:36:29.000Z</time></trkpt>
        <trkpt lat="28.8206703" lon="105.9280291"><ele>261.02</ele><time>2026-03-10T01:36:39.000Z</time></trkpt>
        <trkpt lat="28.8207618" lon="105.928018"><ele>257.86</ele><time>2026-03-10T01:36:49.000Z</time></trkpt>
        <trkpt lat="28.8208537" lon="105.9280417"><ele>254.23</ele><time>2026-03-10T01:36:59.000Z</time></trkpt>
        <trkpt lat="28.8209501" lon="105.9280703"><ele>250.47</ele><time>2026-03-10T01:37:11.000Z</time></trkpt>
        <trkpt lat="28.8210513" lon="105.928086"><ele>246.42</ele><time>2026-03-10T01:37:25.000Z</time></trkpt>
        <trkpt lat="28.8211454" lon="105.9280999"><ele>242.18</ele><time>2026-03-10T01:37:37.000Z</time></trkpt>
        <trkpt lat="28.8212356" lon="105.9281102"><ele>238.32</ele><time>2026-03-10T01:37:51.000Z</time></trkpt>
        <trkpt lat="28.8213238" lon="105.9281451"><ele>234.23</ele><time>2026-03-10T01:38:05.000Z</time></trkpt>
        <trkpt lat="28.8214168" lon="105.9281885"><ele>230.54</ele><time>2026-03-10T01:38:19.000Z</time></trkpt>
        <trkpt lat="28.8215044" lon="105.9282434"><ele>226.37</ele><time>2026-03-10T01:38:31.000Z</time></trkpt>
        <trkpt lat="28.8215914" lon="105.9282799"><ele>221.4</ele><time>2026-03-10T01:38:41.000Z</time></trkpt>
        <trkpt lat="28.8216808" lon="105.9283195"><ele>216.11</ele><time>2026-03-10T01:38:51.000Z</time></trkpt>
        <trkpt lat="28.821783" lon="105.9283616"><ele>212.06</ele><time>2026-03-10T01:39:01.000Z</time></trkpt>
        <trkpt lat="28.8218867" lon="105.9283511"><ele>208.91</ele><time>2026-03-10T01:39:09.000Z</time></trkpt>
        <trkpt lat="28.8219775" lon="105.9282878"><ele>203.7</ele><time>2026-03-10T01:39:17.000Z</time></trkpt>
        <trkpt lat="28.8220782" lon="105.9282967"><ele>199.26</ele><time>2026-03-10T01:39:27.000Z</time></trkpt>
        <trkpt lat="28.822155" lon="105.9283438"><ele>195.95</ele><time>2026-03-10T01:39:45.000Z</time></trkpt>
        <trkpt lat="28.8222177" lon="105.9284271"><ele>196.77</ele><time>2026-03-10T01:40:07.000Z</time></trkpt>
        <trkpt lat="28.8222958" lon="105.9284913"><ele>199.38</ele><time>2026-03-10T01:40:15.000Z</time></trkpt>
        <trkpt lat="28.8223342" lon="105.9285963"><ele>200.58</ele><time>2026-03-10T01:40:25.000Z</time></trkpt>
        <trkpt lat="28.8223813" lon="105.9287115"><ele>201.71</ele><time>2026-03-10T01:40:35.000Z</time></trkpt>
        <trkpt lat="28.8224467" lon="105.9288174"><ele>202.55</ele><time>2026-03-10T01:40:43.000Z</time></trkpt>
        <trkpt lat="28.8225373" lon="105.928876"><ele>205.61</ele><time>2026-03-10T01:40:51.000Z</time></trkpt>
        <trkpt lat="28.8226352" lon="105.9289326"><ele>206.93</ele><time>2026-03-10T01:40:59.000Z</time></trkpt>
        <trkpt lat="28.8227342" lon="105.9289909"><ele>208.28</ele><time>2026-03-10T01:41:07.000Z</time></trkpt>
        <trkpt lat="28.8228394" lon="105.929011"><ele>209.04</ele><time>2026-03-10T01:41:15.000Z</time></trkpt>
        <trkpt lat="28.8229335" lon="105.9290278"><ele>208.58</ele><time>2026-03-10T01:41:21.000Z</time></trkpt>
        <trkpt lat="28.8230266" lon="105.9290663"><ele>207.93</ele><time>2026-03-10T01:41:31.000Z</time></trkpt>
        <trkpt lat="28.8231161" lon="105.9290553"><ele>206.75</ele><time>2026-03-10T01:41:43.000Z</time></trkpt>
        <trkpt lat="28.8231913" lon="105.9289868"><ele>204.34</ele><time>2026-03-10T01:41:51.000Z</time></trkpt>
        <trkpt lat="28.8232904" lon="105.9289585"><ele>201.33</ele><time>2026-03-10T01:41:59.000Z</time></trkpt>
        <trkpt lat="28.8233973" lon="105.9289692"><ele>198.95</ele><time>2026-03-10T01:42:07.000Z</time></trkpt>
        <trkpt lat="28.8234999" lon="105.9290052"><ele>197.25</ele><time>2026-03-10T01:42:15.000Z</time></trkpt>
        <trkpt lat="28.8235434" lon="105.929023"><ele>196.84</ele><time>2026-03-10T01:42:19.000Z</time></trkpt>
        <trkpt lat="28.8236285" lon="105.9290424"><ele>196.88</ele><time>2026-03-10T01:42:35.000Z</time></trkpt>
        <trkpt lat="28.8237229" lon="105.9290267"><ele>198.08</ele><time>2026-03-10T01:42:43.000Z</time></trkpt>
        <trkpt lat="28.8237946" lon="105.9289595"><ele>198.33</ele><time>2026-03-10T01:42:51.000Z</time></trkpt>
        <trkpt lat="28.8238447" lon="105.9288654"><ele>198.28</ele><time>2026-03-10T01:42:59.000Z</time></trkpt>
        <trkpt lat="28.8238584" lon="105.9287414"><ele>198.61</ele><time>2026-03-10T01:43:09.000Z</time></trkpt>
        <trkpt lat="28.8238426" lon="105.9286185"><ele>199.21</ele><time>2026-03-10T01:43:17.000Z</time></trkpt>
        <trkpt lat="28.8238165" lon="105.9285086"><ele>199.44</ele><time>2026-03-10T01:43:23.000Z</time></trkpt>
        <trkpt lat="28.8237985" lon="105.9284036"><ele>199.52</ele><time>2026-03-10T01:43:29.000Z</time></trkpt>
        <trkpt lat="28.8238195" lon="105.9282914"><ele>199.65</ele><time>2026-03-10T01:43:37.000Z</time></trkpt>
        <trkpt lat="28.8238591" lon="105.9281747"><ele>200.07</ele><time>2026-03-10T01:43:45.000Z</time></trkpt>
        <trkpt lat="28.8238871" lon="105.9280511"><ele>200.06</ele><time>2026-03-10T01:43:53.000Z</time></trkpt>
        <trkpt lat="28.8239041" lon="105.9279289"><ele>200.31</ele><time>2026-03-10T01:44:01.000Z</time></trkpt>
        <trkpt lat="28.8239441" lon="105.9278186"><ele>200.21</ele><time>2026-03-10T01:44:09.000Z</time></trkpt>
        <trkpt lat="28.8239984" lon="105.9277185"><ele>200.05</ele><time>2026-03-10T01:44:17.000Z</time></trkpt>
        <trkpt lat="28.8240528" lon="105.927624"><ele>200.07</ele><time>2026-03-10T01:44:25.000Z</time></trkpt>
        <trkpt lat="28.8240528" lon="105.927624"><ele>200.07</ele><time>2026-03-10T01:44:28.000Z</time></trkpt>
      </trkseg>
  </trk>
</gpx>